[[{"header":{"parameterUnit":"m.s-1","parameterCategory":1,"la1":30.6,"la2":29.2853,"lo1":-89.7004,"lo2":-87.6739,"dy":0.0162,"dx":0.0183,"nx":112,"ny":82,"refTime":"2024-09-07T00:00:00:Z","depth":0,"parameterNumber":2,"parameterNumberName":"U-component_of_WINDS"},"data":[0.0,0.0,0.0,0.0,0.0,0.0,0.0,0.0,0.0,0.0,0.0,0.0,0.0,0.0,0.0,0.0,0.0,0.0,0.0,0.0,0.0,0.0,0.0,0.0,0.0,0.0,0.0,0.0,0.0,0.0,0.0,0.0,0.0,0.0,0.0,0.0,0.0,0.0,0.0,0.0,0.0,0.0,0.0,0.0,0.0,0.0,0.0,0.0,0.0,0.0,0.0,0.0,0.0,0.0,0.0,0.0,0.0,0.0,0.0,0.0,0.0,0.0,0.0,0.0,0.0,0.0,0.0,0.0,0.0,0.0,0.0,0.0,0.0,0.0,0.0,0.0,0.0,0.0,0.0,0.0,0.0,0.0,0.0,0.0,0.0,0.0,0.0,0.0,0.0,0.0,-0.2068,-0.2232,-0.1523,-0.0482,0.0893,-0.024,-0.0451,0.0719,0.0,0.0,0.0,0.0,0.0,0.0,0.0,0.0,0.0,0.0,0.0,0.0,0.0,0.0,0.0,0.0,0.0,0.0,0.0,0.0,0.0,0.0,0.0,0.0,0.0,0.0,0.0,0.0,0.0,0.0,0.0,0.0,0.0,0.0,0.0,0.0,0.0,0.0,0.0,0.0,0.0,0.0,0.0,0.0,0.0,0.0,0.0,0.0,0.0,0.0,0.0,0.0,0.0,0.0,0.0,0.0,0.0,0.0,0.0,0.0,0.0,0.0,0.0,0.0,0.0,0.0,0.0,0.0,0.0,0.0,0.0,0.0,0.0,0.0,0.0,0.0,0.0,0.0,0.0,0.0,0.0,0.0,0.0,0.0,0.0,0.0,0.0,0.0,0.0,0.0,0.0,0.0,0.0,0.0,0.0,0.0,0.0,0.0,0.0,0.0,0.0,0.0,0.0,0.0,-0.2079,-0.2429,-0.2384,-0.1785,-0.0488,-0.1501,-0.1632,-0.0132,0.0,0.0,0.0,0.0,0.0,0.0,0.0,0.0,0.0,0.0,0.0,0.0,0.0,0.0,0.0,0.0,0.0,0.0,0.0,0.0,0.0,0.0,0.0,0.0,0.0,0.0,0.0,0.0,0.0,0.0,0.0,0.0,0.0,0.0,0.0,0.0,0.0,0.0,0.0,0.0,0.0,0.0,0.0,0.0,0.0,0.0,0.0,0.0,0.0,0.0,0.0,0.0,0.0,0.0,0.0,0.0,0.0,0.0,0.0,0.0,0.0,0.0,0.0,0.0,0.0,0.0,0.0,0.0,0.0,0.0,0.0,0.0,0.0,0.0,0.0,0.0,0.0,0.0,0.0,0.0,0.0,0.0,0.0,0.0,0.0,0.0,0.0,0.0,0.0,0.0,0.0,0.0,0.0,0.0,0.0,0.0,0.0,0.0,0.0,0.0,0.0,0.0,0.0,-0.1774,-0.2202,-0.2527,-0.2586,-0.2357,-0.1788,-0.2218,-0.2153,-0.1313,-0.1662,0.0,0.0,0.0,0.0,0.0,0.0,0.0,0.0,0.0,0.0,0.0,0.0,0.0,0.0,0.0,0.0,0.0,0.0,0.0,0.0,0.0,0.0,0.0,0.0,0.0,0.0,0.0,0.0,0.0,0.0,0.0,0.0,0.0,0.0,0.0,0.0,0.0,0.0,0.0,0.0,0.0,0.0,0.0,0.0,0.0,0.0,0.0,0.0,0.0,0.0,0.0,0.0,0.0,0.0,0.0,0.0,0.0,0.0,0.0,0.0,0.0,0.0,0.0,0.0,0.0,0.0,0.0,0.0,0.0,0.0,0.0,0.0,0.0,0.0,0.0,0.0,0.0,0.0,0.0,0.0,0.0,0.0,0.0,0.0,0.0,0.0,0.0,0.0,0.0,0.0,0.0,0.0,0.0,0.0,0.0,0.0,0.0,0.0,0.0,0.0,0.0,0.0,-0.2225,-0.2333,-0.2567,-0.2592,-0.2592,-0.2592,-0.2512,-0.2348,-0.2145,-0.1896,0.0,0.0,0.0,0.0,0.0,0.0,0.0,0.0,0.0,0.0,0.0,0.0,0.0,0.0,0.0,0.0,0.0,0.0,0.0,0.0,0.0,0.0,0.0,0.0,0.0,0.0,0.0,0.0,0.0,0.0,0.0,0.0,0.0,0.0,0.0,0.0,0.0,0.0,0.0,0.0,0.0,0.0,0.0,0.0,0.0,0.0,0.0,0.0,0.0,0.0,0.0,0.0,0.0,0.0,0.0,0.0,0.0,0.0,0.0,0.0,0.0,0.0,0.0,0.0,0.0,0.0,0.0,0.0,0.0,0.0,0.0,0.0,0.0,0.0,0.0,0.0,0.0,0.0,0.0,0.0,0.0,0.0,0.0,0.0,0.0,0.0,0.0,0.0,0.0,0.0,0.0,0.0,0.0,0.0,0.0,0.0,0.0,0.0,0.0,0.0,0.0,0.0,-0.2245,-0.2416,-0.2548,-0.2563,-0.2563,-0.2563,-0.2405,-0.2237,-0.2138,-0.1875,0.0,0.0,0.0,0.0,0.0,0.0,0.0,0.0,0.0,0.0,0.0,0.0,0.0,0.0,0.0,0.0,0.0,0.0,0.0,0.0,0.0,0.0,0.0,0.0,0.0,0.0,0.0,0.0,0.0,0.0,0.0,0.0,0.0,0.0,0.0,0.0,0.0,0.0,0.0,0.0,0.0,0.0,0.0,0.0,0.0,0.0,0.0,0.0,0.0,0.0,0.0,0.0,0.0,0.0,0.0,0.0,0.0,0.0,0.0,0.0,0.0,0.0,0.0,0.0,0.0,0.0,0.0,0.0,0.0,0.0,0.0,0.0,0.0,0.0,0.0,0.0,0.0,0.0,0.0,0.0,0.0,0.0,0.0,0.0,0.0,0.0,0.0,0.0,0.0,0.0,0.0,0.0,0.0,0.0,0.0,0.0,0.0,0.0,0.0,0.0,0.0,0.0,-0.2217,-0.2391,-0.2567,-0.2586,-0.2586,-0.2586,-0.2455,-0.2285,-0.2143,0.0,0.0,0.0,0.0,0.0,0.0,0.0,0.0,0.0,0.0,0.0,0.0,0.0,0.0,0.0,0.0,0.0,0.0,0.0,0.0,0.0,0.0,0.0,0.0,0.0,0.0,0.0,0.0,0.0,0.0,0.0,0.0,0.0,0.0,0.0,0.0,0.0,0.0,0.0,0.0,0.0,0.0,0.0,0.0,0.0,0.0,0.0,0.0,0.0,0.0,0.0,0.0,0.0,0.0,0.0,0.0,0.0,0.0,0.0,0.0,0.0,0.0,0.0,0.0,0.0,0.0,0.0,0.0,0.0,0.0,0.0,0.0,0.0,0.0,0.0,0.0,0.0,0.0,0.0,0.0,0.0,0.0,0.0,0.0,0.0,0.0,0.0,0.0,0.0,0.0,0.0,0.0,0.0,0.0,0.0,0.0,0.0,0.0,0.0,0.0,0.0,0.0,-0.2093,-0.223,-0.2409,-0.2571,-0.2589,-0.2585,-0.2575,-0.2438,-0.2262,-0.2049,0.0,0.0,0.0,0.0,0.0,0.0,0.0,0.0,0.0,0.0,0.0,0.0,0.0,0.0,0.0,0.0,0.0,0.0,0.0,0.0,0.0,0.0,0.0,0.0,0.0,0.0,0.0,0.0,0.0,0.0,0.0,0.0,0.0,0.0,0.0,0.0,0.0,0.0,0.0,0.0,0.0,0.0,0.0,0.0,0.0,0.0,0.0,0.0,0.0,0.0,0.0,0.0,0.0,0.0,0.0,0.0,0.0,0.0,0.0,0.0,0.0,0.0,0.0,0.0,0.0,0.0,0.0,0.0,0.0,0.0,0.0,0.0,0.0,0.0,0.0,0.0,0.0,0.0,0.0,0.0,0.0,0.0,0.0,0.0,0.0,0.0,0.0,0.0,0.0,0.0,0.0,0.0,0.0,0.0,0.0,0.0,0.0,0.0,0.0,0.0,0.0,0.0,-0.2168,-0.2373,-0.257,-0.2635,-0.264,-0.2548,-0.2518,-0.2322,-0.2138,0.0,0.0,0.0,0.0,0.0,0.0,0.0,0.0,0.0,0.0,0.0,0.0,0.0,0.0,0.0,0.0,0.0,0.0,0.0,0.0,0.0,0.0,0.0,0.0,0.0,0.0,0.0,0.0,0.0,0.0,0.0,0.0,0.0,0.0,0.0,0.0,0.0,0.0,0.0,0.0,0.0,0.0,0.0,0.0,0.0,0.0,0.0,0.0,0.0,0.0,0.0,0.0,0.0,0.0,0.0,0.0,0.0,0.0,0.0,0.0,0.0,0.0,0.0,0.0,0.0,0.0,0.0,0.0,0.0,0.0,0.0,0.0,0.0,0.0,0.0,0.0,0.0,0.0,0.0,0.0,0.0,0.0,0.0,0.0,0.0,0.0,0.0,0.0,0.0,0.0,0.0,0.0,0.0,0.0,0.0,0.0,0.0,0.0,0.0,0.0,0.0,0.0,0.0,-0.3039,-0.3207,-0.3399,-0.3591,-0.3007,-0.2578,-0.2549,-0.2391,-0.2211,-0.2018,0.0,0.0,0.0,0.0,0.0,0.0,0.0,0.0,0.0,0.0,0.0,0.0,0.0,0.0,0.0,0.0,0.0,0.0,0.0,0.0,0.0,0.0,0.0,0.0,0.0,0.0,0.0,0.0,0.0,0.0,0.0,0.0,0.0,0.0,0.0,0.0,0.0,0.0,0.0,0.0,0.0,0.0,0.0,0.0,0.0,0.0,0.0,0.0,0.0,0.0,0.0,0.0,0.0,0.0,0.0,0.0,0.0,0.0,0.0,0.0,0.0,0.0,0.0,0.0,0.0,0.0,0.0,0.0,0.0,0.0,0.0,0.0,0.0,0.0,0.0,0.0,0.0,0.0,0.0,0.0,0.0,0.0,0.0,0.0,0.0,0.0,0.0,0.0,0.0,0.0,0.0,0.0,0.0,0.0,0.0,0.0,0.0,0.0,0.0,0.0,0.0,0.0,-0.2952,-0.3176,-0.328,-0.3462,-0.2946,-0.259,-0.2562,-0.242,-0.2243,-0.2031,0.0,0.0,0.0,0.0,0.0,0.0,0.0,0.0,0.0,0.0,0.0,0.0,0.0,0.0,0.0,0.0,0.0,0.0,0.0,0.0,0.0,0.0,0.0,0.0,0.0,0.0,0.0,0.0,0.0,0.0,0.0,0.0,0.0,0.0,0.0,0.0,0.0,0.0,0.0,0.0,0.0,0.0,0.0,0.0,0.0,0.0,0.0,0.0,0.0,0.0,0.0,0.0,0.0,0.0,0.0,0.0,0.0,0.0,0.0,0.0,0.0,0.0,0.0,0.0,0.0,0.0,0.0,0.0,0.0,0.0,0.0,0.0,0.0,0.0,0.0,0.0,0.0,0.0,0.0,0.0,0.0,0.0,0.0,0.0,0.0,0.0,0.0,0.0,0.0,0.0,0.0,0.0,0.0,0.0,0.0,0.0,0.0,0.0,0.0,0.0,0.0,0.0,-0.2465,-0.2768,-0.2906,-0.2893,-0.2785,-0.2671,-0.2642,-0.2423,-0.2249,-0.2044,0.0,0.0,0.0,0.0,0.0,0.0,0.0,0.0,0.0,0.0,0.0,0.0,0.0,0.0,0.0,0.0,0.0,0.0,0.0,0.0,0.0,0.0,0.0,0.0,0.0,0.0,0.0,0.0,0.0,0.0,0.0,0.0,0.0,0.0,0.0,0.0,0.0,0.0,0.0,0.0,0.0,0.0,0.0,0.0,0.0,0.0,0.0,0.0,0.0,0.0,0.0,0.0,0.0,0.0,0.0,0.0,0.0,0.0,0.0,0.0,-1.006,-0.8635,0.0,0.0,0.0,0.0,0.0,0.0,0.0,0.0,0.0,0.0,0.0,0.0,0.0,0.0,0.0,0.0,0.0,0.0,0.0,0.0,0.0,0.0,0.0,0.0,0.0,0.0,0.0,0.0,0.0,0.0,0.0,0.0,0.0,0.0,0.0,0.0,0.0,0.0,0.0,0.0,-0.4322,-0.5032,-0.5336,-0.4841,-0.4114,-0.332,-0.2643,-0.2442,-0.2298,-0.2136,-0.1951,0.0,0.0,0.0,0.0,0.0,0.0,0.0,0.0,0.0,0.0,0.0,0.0,0.0,0.0,0.0,0.0,0.0,0.0,0.0,0.0,0.0,0.0,0.0,0.0,0.0,0.0,0.0,0.0,0.0,0.0,0.0,0.0,0.0,0.0,0.0,0.0,0.0,0.0,0.0,0.0,0.0,0.0,0.0,0.0,0.0,0.0,0.0,0.0,0.0,0.0,0.0,0.0,0.0,0.0,0.0,0.0,0.0,0.0,0.0,-1.2645,-1.1325,0.0,0.0,0.0,0.0,0.0,0.0,0.0,0.0,0.0,0.0,0.0,0.0,0.0,0.0,0.0,0.0,0.0,0.0,0.0,0.0,0.0,0.0,0.0,0.0,0.0,0.0,0.0,0.0,0.0,0.0,0.0,0.0,0.0,0.0,0.0,0.0,0.0,0.0,0.0,0.0,-0.4814,-0.5428,-0.5689,-0.5324,-0.4846,-0.4288,-0.3841,-0.3688,-0.3518,-0.3408,-0.3222,0.0,0.0,0.0,0.0,0.0,0.0,0.0,0.0,0.0,0.0,0.0,0.0,0.0,0.0,0.0,0.0,0.0,0.0,0.0,0.0,0.0,0.0,0.0,0.0,0.0,0.0,0.0,0.0,0.0,0.0,0.0,0.0,0.0,0.0,0.0,0.0,0.0,0.0,0.0,0.0,0.0,0.0,0.0,0.0,0.0,0.0,0.0,0.0,0.0,0.0,0.0,0.0,0.0,-1.8159,-1.8336,-1.8638,-1.8872,-1.9202,-1.9306,-1.6023,-1.5084,-1.5666,-1.4244,0.0,0.0,0.0,0.0,0.0,0.0,0.0,0.0,0.0,0.0,0.0,0.0,0.0,0.0,0.0,0.0,0.0,0.0,0.0,0.0,0.0,0.0,-1.1853,-1.1075,-1.1769,-1.2067,-1.0046,0.0,0.0,0.0,0.0,0.0,0.0,0.0,0.0,0.0,0.0,0.0,-0.5627,-0.5926,-0.5972,-0.5796,-0.5573,-0.5344,-0.5131,-0.4959,-0.4862,-0.4774,-0.4777,-0.4692,0.0,0.0,0.0,0.0,0.0,0.0,0.0,0.0,0.0,0.0,0.0,0.0,0.0,0.0,0.0,0.0,0.0,0.0,0.0,0.0,0.0,0.0,0.0,0.0,0.0,0.0,0.0,0.0,0.0,0.0,0.0,0.0,-1.2585,-1.3053,0.0,0.0,0.0,0.0,0.0,0.0,0.0,0.0,0.0,0.0,0.0,0.0,0.0,-1.9171,-1.9648,-2.037,-2.0714,-2.0759,-2.1505,-2.1834,-2.1903,-2.2065,-2.2339,-2.251,-2.1806,0.0,-1.8211,-1.7998,0.0,0.0,0.0,0.0,0.0,0.0,0.0,0.0,0.0,0.0,0.0,0.0,0.0,0.0,0.0,0.0,0.0,0.0,0.0,0.0,0.0,0.0,-1.5268,-1.5194,-1.5254,-1.518,-1.4635,-1.1423,-0.8558,-0.822,-0.7877,-0.7533,0.0,0.0,0.0,0.0,0.0,0.0,-0.9144,-0.9291,-0.9003,-0.8273,-0.7069,-0.601,-0.5272,-0.51,-0.4962,-0.4884,-0.5832,-0.6251,-0.6053,-0.6737,0.0,0.0,0.0,0.0,0.0,0.0,0.0,0.0,0.0,0.0,0.0,0.0,0.0,0.0,0.0,0.0,0.0,0.0,0.0,0.0,0.0,0.0,0.0,0.0,0.0,0.0,0.0,0.0,0.0,-1.1887,-1.3165,-1.294,-1.3113,-1.2885,0.0,0.0,0.0,0.0,0.0,0.0,0.0,0.0,0.0,-2.1655,-2.2214,-2.2912,-2.3993,-2.4406,-2.4698,-2.4698,-2.5029,-2.5236,-2.5236,-2.5432,-2.5621,-2.5665,-2.5773,-2.5019,-2.3538,-2.1185,-1.9506,-1.8308,0.0,0.0,0.0,0.0,-1.6198,-1.5899,-1.6449,-1.6619,-1.6359,-1.5317,0.0,0.0,0.0,0.0,0.0,0.0,0.0,-1.3751,-1.4436,-1.5123,-1.5667,-1.6001,-1.616,-1.623,-1.6076,-1.4539,-1.2689,-1.0897,-1.06,-1.0143,-0.8594,-0.8126,0.0,0.0,0.0,-0.9654,-1.067,-1.0876,-1.079,-1.0432,-0.9723,-0.9123,-0.8665,-0.8535,-0.8491,-0.8389,-0.884,-0.8993,-0.8705,-0.8649,-0.8278,0.0,0.0,0.0,0.0,0.0,0.0,0.0,0.0,0.0,0.0,0.0,0.0,0.0,0.0,0.0,0.0,0.0,0.0,0.0,0.0,0.0,0.0,0.0,0.0,0.0,0.0,0.0,0.0,-1.3231,-1.4411,-1.3341,-1.4915,-1.5316,0.0,0.0,0.0,0.0,0.0,0.0,-2.1062,-2.1739,-2.3054,-2.5203,-2.5649,-2.636,-2.7541,-2.7785,-2.7907,-2.7907,-2.7907,-2.7907,-2.7907,-2.8041,-2.8149,-2.8149,-2.8379,-2.8338,-2.7861,-2.4472,-2.2674,-2.203,-2.1145,-2.0177,-1.9222,-1.9786,-1.9577,-1.909,-1.9675,-1.9768,-1.9426,-1.8036,-1.7005,-1.6131,-1.4689,0.0,0.0,0.0,0.0,-1.4847,-1.5731,-1.5972,-1.6149,-1.6672,-1.6802,-1.6823,-1.6852,-1.687,-1.6137,-1.3546,-1.3197,-1.2687,-1.0699,-1.0272,0.0,-1.0401,-1.092,-1.155,-1.236,-1.239,-1.2323,-1.2323,-1.1764,-1.1464,-1.1438,-1.1364,-1.1284,-1.1186,-1.1359,-1.1392,-1.1134,-1.0677,-1.0274,-0.9851,0.0,0.0,0.0,0.0,0.0,0.0,0.0,0.0,0.0,0.0,0.0,0.0,0.0,0.0,0.0,0.0,0.0,0.0,0.0,0.0,0.0,0.0,0.0,0.0,0.0,0.0,0.0,0.0,0.0,-1.5514,-1.8921,0.0,0.0,0.0,0.0,-2.0299,-2.1066,-2.2497,-2.4804,-2.5411,-2.6652,-2.8783,-2.9118,-2.93,-2.9328,-2.9342,-2.9356,-2.9356,-2.9356,-2.9356,-2.9356,-2.937,-2.937,-2.9384,-2.9398,-2.9384,-2.9258,-2.7958,-2.631,-2.4673,-2.4147,-2.3008,-2.1531,-2.1908,-2.2136,-2.2377,-2.2865,-2.2931,-2.2509,-2.1298,-1.9287,-1.7256,-1.6777,-1.612,0.0,0.0,-1.6235,-1.6775,-1.7388,-1.757,-1.7764,-1.8407,-1.8105,-1.7607,-1.76,-1.761,-1.7181,-1.5693,-1.516,-1.4776,-1.4075,0.0,-1.2466,-1.3714,-1.3422,-1.3617,-1.5098,-1.449,-1.3858,-1.3858,-1.2537,-1.1647,-1.1715,-1.1475,-1.1321,-1.1315,-1.2186,-1.2641,-1.2473,-1.3256,-1.2757,-1.0894,-1.0642,0.0,0.0,0.0,0.0,0.0,0.0,0.0,0.0,0.0,0.0,0.0,0.0,0.0,0.0,0.0,0.0,0.0,0.0,0.0,0.0,0.0,0.0,0.0,0.0,0.0,0.0,0.0,0.0,-1.9374,-2.1365,0.0,-2.0438,-2.2493,-2.3774,-2.3591,-2.5702,-2.7268,-2.8078,-2.8557,-2.9207,-3.0145,-3.026,-3.0317,-3.0317,-3.0317,-3.0317,-3.0317,-3.0317,-3.0317,-3.0317,-3.0317,-3.0317,-3.0317,-3.0317,-3.0317,-3.0317,-2.9869,-2.8952,-2.7825,-2.766,-2.6996,-2.606,-2.6154,-2.5954,-2.5528,-2.534,-2.5332,-2.5243,-2.3785,-2.1653,-1.9701,-1.9532,-1.8919,-1.8233,-1.8138,-1.8103,-1.8174,-1.8414,-1.8438,-1.8491,-1.8935,-1.8799,-1.8529,-1.8736,-1.856,-1.8045,-1.7063,-1.6341,-1.5604,-1.4686,-1.4303,-1.422,-1.4301,-1.4533,-1.494,-1.5642,-1.5383,-1.5128,-1.5128,-1.4524,-1.4104,-1.3993,-1.3778,-1.36,-1.3504,-1.3626,-1.3618,-1.3439,-1.3579,-1.3253,-1.2352,-1.2032,-1.0921,0.0,0.0,0.0,0.0,0.0,0.0,0.0,0.0,0.0,0.0,0.0,0.0,0.0,0.0,0.0,0.0,0.0,0.0,0.0,0.0,0.0,0.0,0.0,0.0,0.0,-2.0759,-2.2802,-2.1591,-2.3857,-2.4888,-2.3354,-2.5737,-2.7286,-2.6983,-2.8944,-3.0194,-3.0098,-3.0345,-3.0612,-3.0817,-3.0817,-3.0817,-3.0817,-3.0817,-3.0817,-3.0817,-3.0817,-3.0817,-3.0817,-3.0817,-3.0817,-3.0817,-3.0817,-3.0817,-3.0817,-3.0817,-3.0484,-2.99,-2.983,-2.9439,-2.9007,-2.8841,-2.8469,-2.7934,-2.7473,-2.7297,-2.7082,-2.5924,-2.4074,-2.2362,-2.2215,-2.133,-2.0308,-2.0123,-1.9737,-1.9475,-1.9446,-1.9338,-1.9315,-1.9536,-1.9453,-1.9223,-1.9277,-1.913,-1.8733,-1.7951,-1.7164,-1.6284,-1.5306,-1.5252,-1.5228,-1.4927,-1.5293,-1.5666,-1.5845,-1.5861,-1.5861,-1.5861,-1.5658,-1.5463,-1.5342,-1.4992,-1.4765,-1.4716,-1.4261,-1.3969,-1.3904,-1.3612,-1.3344,-1.31,-1.2686,-1.1907,-1.0608,0.0,0.0,0.0,0.0,0.0,0.0,0.0,0.0,0.0,0.0,0.0,0.0,0.0,0.0,0.0,0.0,0.0,0.0,0.0,0.0,0.0,0.0,0.0,-2.1622,-2.3575,-2.4446,-2.2133,-2.6643,-2.8927,-2.6273,-2.8721,-3.0446,-3.0446,-3.0656,-3.0817,-3.0817,-3.0817,-3.0817,-3.0817,-3.0817,-3.0817,-3.0817,-3.0817,-3.0817,-3.0817,-3.0817,-3.0817,-3.0817,-3.0817,-3.0817,-3.0817,-3.0817,-3.0817,-3.0817,-3.0817,-3.0817,-3.0749,-3.0332,-3.0263,-3.0179,-2.9747,-2.9565,-2.9523,-2.9228,-2.8673,-2.7947,-2.7753,-2.6489,-2.4995,-2.4675,-2.3342,-2.197,-2.1602,-2.1149,-2.0763,-2.0553,-2.0418,-2.0251,-2.0327,-2.0043,-1.9634,-1.944,-1.9483,-1.9381,-1.8486,-1.7682,-1.6909,-1.6196,-1.5772,-1.5593,-1.5764,-1.5788,0.0,-1.5942,-1.5966,-1.5966,-1.5966,-1.5731,-1.552,-1.5512,-1.4854,-1.4513,-1.4684,-1.4026,-1.3709,-1.3888,-1.3384,-1.3108,-1.3108,-1.2596,-1.2239,-1.1999,0.0,0.0,0.0,0.0,0.0,0.0,0.0,0.0,0.0,0.0,0.0,0.0,0.0,0.0,0.0,0.0,0.0,0.0,0.0,0.0,0.0,-2.4216,-2.5469,-2.4156,-2.6613,-2.8446,-2.8016,-2.9301,-3.0039,-2.9492,-3.0234,-3.07,-3.07,-3.0773,-3.0817,-3.0817,-3.0817,-3.0817,-3.0817,-3.0817,-3.0817,-3.0817,-3.0817,-3.0817,-3.0817,-3.0817,-3.0817,-3.0817,-3.0817,-3.0817,-3.0817,-3.0817,-3.0817,-3.0817,-3.0817,-3.0817,-3.0832,-3.0665,-3.0665,-3.0582,-3.0484,-3.0248,-3.0067,-3.0231,-2.9656,-2.8797,-2.9055,-2.8131,-2.6729,-2.6134,-2.5205,-2.4189,-2.2995,-2.2565,-2.2271,-2.1651,-2.1313,-2.121,-2.1274,-2.0809,-2.0312,-2.0292,-1.9893,-1.9512,-1.9006,-1.8522,-1.7957,-1.7087,-1.6485,-1.6105,-1.6154,-1.6048,-1.5991,-1.604,-1.5966,-1.5966,-1.5966,-1.5837,-1.565,-1.5528,-1.4976,-1.4546,-1.4335,-1.3774,-1.353,-1.3709,-1.3441,-1.336,-1.349,-1.3084,-1.2848,0.0,0.0,0.0,0.0,0.0,0.0,0.0,0.0,0.0,0.0,0.0,0.0,0.0,0.0,0.0,0.0,0.0,0.0,0.0,0.0,0.0,0.0,-2.6627,-2.7813,-2.7395,-2.8899,-3.0225,-3.0401,-3.0466,-3.0627,-3.0803,-3.0817,-3.0817,-3.0817,-3.0817,-3.0817,-3.0817,-3.0817,-3.0817,-3.0817,-3.0817,-3.0817,-3.0817,-3.0817,-3.0817,-3.0817,-3.0817,-3.0817,-3.0817,-3.0817,-3.0817,-3.0817,-3.0817,-3.0817,-3.0817,-3.0817,-3.0817,-3.0817,0.0,0.0,0.0,0.0,-3.0665,-3.0499,-3.0749,-3.0368,-2.9878,-3.0058,-2.9385,-2.8378,-2.797,-2.6892,-2.5636,-2.4763,-2.399,-2.3222,-2.2631,-2.2301,-2.2123,-2.1997,-2.1731,-2.1357,-2.0952,-2.0703,-2.039,-1.9596,-1.9344,0.0,-1.8258,-1.7349,-1.6726,-1.6567,-1.6302,-1.6129,-1.5974,-1.5966,-1.5966,-1.5966,-1.5886,-1.5731,-1.5634,-1.5065,0.0,0.0,0.0,-1.3612,-1.3574,-1.3539,0.0,0.0,0.0,0.0,0.0,-1.405,0.0,0.0,-1.3598,-1.3807,0.0,0.0,0.0,0.0,0.0,0.0,0.0,0.0,0.0,0.0,0.0,0.0,0.0,0.0,0.0,0.0,-2.877,-3.0446,-3.0475,-3.049,-3.049,-3.049,-3.0656,-3.0817,-3.0817,-3.0817,-3.0817,-3.0817,-3.0817,-3.0817,-3.0817,-3.0817,0.0,0.0,0.0,-3.0817,-3.0817,-3.0817,-3.0817,-3.0817,-3.0817,-3.0817,-3.0817,-3.0817,-3.0817,-3.0817,-3.0817,-3.0817,-3.0817,-3.0817,-3.0817,-3.0817,-3.0817,-3.0817,-3.0817,-3.0817,-3.0817,-3.0817,-3.0817,0.0,0.0,-3.0817,-3.0393,-2.9832,-2.9707,-2.8392,-2.6865,-2.6665,-2.54,-2.404,-2.3702,-2.3289,-2.2964,-2.2763,-2.2648,-2.2406,-2.1599,-2.1724,-2.163,-2.0541,-2.038,-2.024,-1.9979,-1.8542,-1.7307,-1.7045,-1.6659,-1.6326,-1.6064,-1.5966,-1.5966,-1.5966,-1.5886,0.0,-1.5772,-1.5155,-1.4822,-1.496,-1.4375,-1.3961,-1.376,-1.3792,-1.4034,-1.4351,-1.4529,-1.4927,-1.5577,-1.591,-1.6014,-1.6022,-1.4576,-1.457,0.0,0.0,0.0,0.0,0.0,0.0,0.0,0.0,0.0,0.0,0.0,0.0,0.0,0.0,0.0,-2.8289,-2.9552,-3.0437,-3.07,-3.0729,-3.0729,-3.0729,-3.0788,-3.0817,-3.0817,-3.0817,-3.0817,-3.0817,-3.0817,-3.0817,-3.0817,-3.0817,-3.0817,-3.0817,-3.0817,-3.0817,-3.0817,-3.0817,-3.0817,-3.0817,-3.0817,0.0,-3.0817,-3.0817,-3.0817,-3.0817,-3.0817,-3.0817,-3.0817,-3.0817,-3.0817,-3.0817,-3.0817,-3.0817,-3.0817,-3.0817,-3.0817,-3.0817,-3.0817,-3.0817,-3.0817,-3.0817,-3.0705,-3.0437,-2.9861,-2.9414,0.0,-2.7486,-2.6852,-2.6397,-2.5422,-2.4578,-2.3977,-2.3648,-2.305,-2.2567,-2.2406,-2.2382,-2.2621,-2.3109,-2.3179,-2.3417,-2.4092,-2.0782,-1.7836,-1.7307,-1.6994,-1.6668,-1.6073,-1.5966,-1.5966,-1.5966,-1.5886,-1.5772,-1.5772,-1.5382,-1.509,-1.4968,-1.4838,-1.4814,-1.4927,-1.5212,-1.539,-1.5463,-1.5642,-1.5723,-1.5861,-1.6154,-1.6405,-1.6604,-1.6227,-1.6146,0.0,0.0,0.0,0.0,0.0,0.0,0.0,0.0,0.0,0.0,0.0,-2.5637,-2.6764,0.0,-2.8739,-2.9705,-3.0261,-3.0642,-3.0803,-3.0817,-3.0817,-3.0817,-3.0817,-3.0817,-3.0817,-3.0817,-3.0817,-3.0817,-3.0817,-3.0817,-3.0817,-3.0817,-3.0817,-3.0817,-3.0817,-3.0817,-3.0817,-3.0817,-3.0817,-3.0817,-3.0817,-3.0817,-3.0817,-3.0817,-3.0817,-3.0817,-3.0817,-3.0817,-3.0817,-3.0817,-3.0817,-3.0817,-3.0817,-3.0817,-3.0817,-3.0817,-3.0817,-3.0817,-3.0817,-3.0817,-3.0817,-3.0817,-3.0817,-3.0705,-3.0393,-2.9986,-2.9499,-2.8769,-2.7948,-2.7146,-2.6607,-2.5834,-2.5037,-2.4752,-2.4368,-2.4045,-2.3803,-2.3856,-2.4081,-2.4437,-2.4613,-2.4885,-2.53,-2.3391,-2.1351,-2.0034,-1.9579,-1.8904,-1.7622,-1.7504,-1.7295,-1.6797,-1.6622,-1.64,-1.591,-1.5658,-1.5472,-1.5374,-1.6224,-1.6853,-1.6977,-1.813,-1.8694,-1.8799,-1.8999,-1.9078,-1.9192,-1.9391,-1.9514,-1.9722,-1.9609,-1.8628,0.0,0.0,0.0,0.0,0.0,0.0,0.0,-2.3554,-2.4642,-2.575,-2.6617,-2.7642,-2.893,-2.9442,-2.991,-3.07,-3.0817,-3.0817,-3.0817,-3.0817,-3.0817,-3.0817,-3.0817,-3.0817,-3.0817,-3.0817,-3.0817,-3.0817,-3.0817,-3.0817,-3.0817,-3.0817,-3.0817,-3.0817,-3.0817,-3.0817,-3.0817,-3.0817,-3.0817,-3.0817,-3.0817,-3.0817,-3.0817,-3.0817,-3.0817,-3.0817,-3.0817,-3.0817,-3.0817,-3.0817,-3.0817,-3.0817,-3.0817,-3.0817,-3.0817,-3.0817,-3.0817,-3.0817,-3.0817,-3.0817,-3.0817,-3.0817,-3.0817,-3.0817,-3.0817,-3.0393,-2.9875,-2.9792,-2.8867,-2.7839,-2.7525,-2.6938,-2.6216,-2.5852,-2.5707,-2.5626,-2.5301,-2.5432,-2.5683,-2.5787,-2.5977,-2.6248,-2.6406,-2.6478,-2.5628,-2.3168,-2.2457,-2.161,-2.001,-1.9785,-1.9469,-1.8566,-1.8428,-1.8092,-1.7316,-1.7203,-1.7133,-1.706,-1.8503,-1.94,-1.9463,-2.11,-2.2025,-2.2113,-2.2382,-2.2569,-2.2692,-2.2793,-2.288,-2.288,-2.288,-2.1155,-1.689,-1.8816,-2.0523,-2.1465,-2.2215,-2.3284,0.0,-2.6721,-2.7393,-2.8637,-2.9521,-3.0049,-3.024,-3.0451,-3.07,-3.0803,-3.0817,-3.0817,-3.0817,-3.0817,-3.0817,-3.0817,-3.0817,-3.0817,-3.0817,-3.0817,-3.0817,-3.0817,-3.0817,-3.0817,-3.0817,-3.0817,-3.0817,-3.0817,-3.0817,-3.0817,-3.0817,-3.0817,-3.0817,-3.0817,-3.0817,-3.0817,-3.0817,-3.0817,-3.0817,-3.0817,-3.0817,-3.0817,-3.0817,-3.0817,-3.0817,-3.0817,-3.0817,-3.0817,-3.0817,-3.0817,-3.0817,-3.0817,-3.0817,-3.0817,-3.0817,-3.0817,-3.0817,-3.0817,-3.0817,-3.0719,-3.0607,-3.0205,-3.001,-2.9675,-2.8565,-2.7904,-2.7327,-2.6613,-2.6234,-2.6082,-2.6397,-2.67,-2.7241,-2.8441,-2.8855,-2.9314,-3.0053,-3.022,-2.884,-2.4747,-2.4123,-2.3686,-2.2676,-2.2527,-2.2515,-2.2411,-2.2128,-2.1853,-2.1594,-2.1861,-2.1803,-2.1388,-2.1969,-2.2244,-2.199,-2.2905,-2.3354,-2.3102,-2.354,-2.3818,-2.3852,-2.3875,-2.3801,-2.3801,-2.3801,-2.3212,-2.0323,-2.1098,-2.1752,-2.3345,-2.4649,-2.597,-2.7444,-2.8384,-2.9076,-2.9793,-3.0305,-3.0627,-3.0627,-3.0729,-3.0817,-3.0817,-3.0817,-3.0817,-3.0817,-3.0817,-3.0817,-3.0817,-3.0817,-3.0817,-3.0817,-3.0817,-3.0817,-3.0817,-3.0817,-3.0817,-3.0817,-3.0817,-3.0817,-3.0817,-3.0817,-3.0817,-3.0817,-3.0817,-3.0817,-3.0817,-3.0817,-3.0817,-3.0817,-3.0817,-3.0817,-3.0817,-3.0817,-3.0817,-3.0817,-3.0817,-3.0817,-3.0817,-3.0817,-3.0817,-3.0817,-3.0817,-3.0817,-3.0817,-3.0817,-3.0817,-3.0817,-3.0817,-3.0817,-3.0817,-3.0817,-3.0817,-3.0749,-3.0582,-3.0415,-3.0067,-2.9591,-2.8883,-2.8217,-2.7754,-2.7522,-2.7453,-2.7687,-2.8029,-2.8579,-2.9521,-2.9829,-3.0081,-3.0734,-3.0817,-3.0176,-2.8424,-2.7491,-2.6498,-2.5111,-2.498,-2.4741,-2.4091,-2.3388,-2.3038,-2.2905,-2.309,-2.3132,-2.3028,-2.4222,-2.4927,-2.4938,-2.6302,-2.7039,-2.6901,-2.7071,-2.724,-2.724,-2.724,-2.733,-2.7486,-2.7486,-2.7405,-2.2876,-2.3201,-2.3496,-2.5198,-2.678,-2.81,-2.8808,-2.9573,-3.0203,-3.0437,-3.0656,-3.0817,-3.0817,-3.0817,-3.0817,-3.0817,-3.0817,-3.0817,-3.0817,-3.0817,-3.0817,-3.0817,-3.0817,-3.0817,-3.0817,-3.0817,-3.0817,-3.0817,-3.0817,-3.0817,-3.0817,-3.0817,-3.0817,-3.0817,-3.0817,-3.0817,-3.0817,-3.0817,-3.0817,-3.0817,-3.0817,-3.0817,-3.0817,-3.0817,-3.0817,-3.0817,-3.0817,-3.0817,-3.0817,-3.0817,-3.0817,-3.0817,-3.0817,-3.0817,-3.0817,-3.0817,-3.0817,-3.0817,-3.0817,-3.0817,-3.0817,-3.0817,-3.0817,-3.0817,-3.0817,-3.0817,-3.0817,-3.0817,-3.0582,-3.0346,-3.0263,-2.9663,-2.9104,-2.88,-2.8662,-2.8745,-2.8841,-2.9159,-2.9561,-3.0205,-3.0346,-3.0415,-3.0749,-3.0817,-3.0817,-3.0817,-2.9969,-2.8938,-2.7639,-2.7516,-2.7149,-2.6259,-2.569,-2.5326,-2.5169,-2.5231,-2.5283,-2.5312,-2.6691,-2.7548,-2.748,-2.9048,-2.9816,-2.9747,-2.9816,-2.99,-2.99,-2.99,-3.0013,-3.024,-3.024,-3.0368,-2.4232,-2.5383,-2.6858,-2.7201,-2.8325,-2.9425,-3.0136,-3.0554,-3.0803,-3.0803,-3.0817,-3.0817,-3.0817,-3.0817,-3.0817,-3.0817,-3.0817,-3.0817,-3.0817,-3.0817,-3.0817,-3.0817,-3.0817,-3.0817,-3.0817,-3.0817,-3.0817,-3.0817,-3.0817,-3.0817,-3.0817,-3.0817,-3.0817,-3.0817,-3.0817,-3.0817,-3.0817,-3.0817,-3.0817,-3.0817,-3.0817,-3.0817,-3.0817,-3.0817,-3.0817,-3.0817,-3.0817,-3.0817,-3.0817,-3.0817,-3.0817,-3.0817,-3.0817,-3.0817,-3.0817,-3.0817,-3.0817,-3.0817,-3.0817,-3.0817,-3.0817,-3.0817,-3.0817,-3.0817,-3.0817,-3.0817,-3.0817,-3.0817,-3.0817,-3.0665,-3.0346,-3.0179,-2.9998,-2.9565,-2.9467,-2.9565,-3.0081,-3.0165,-3.0332,-3.0734,-3.0734,-3.0832,-3.0817,-3.0817,-3.0817,-3.0817,-3.0734,-3.0632,-3.0311,-3.0267,-3.0136,-2.9815,-3.0258,-3.0256,-2.9542,-2.9798,-2.9802,-2.9384,-2.9816,-2.99,-2.9398,-3.0317,-3.0582,-3.0179,-3.0582,-3.0749,-3.0749,-3.0749,-3.0749,-3.0749,-3.0749,-3.0763,-2.6199,-2.7081,-2.7719,-2.8439,-2.9318,-3.0112,-3.0598,-3.0744,-3.0817,-3.0817,-3.0656,-3.051,-3.051,-3.051,-3.051,-3.051,-3.0685,-3.0817,-3.0817,-3.0817,-3.0817,-3.0817,-3.0817,-3.0817,-3.0817,-3.0817,-3.0817,-3.0817,-3.0817,-3.0817,-3.0817,-3.0817,-3.0817,-3.0817,-3.0817,-3.0817,-3.0817,-3.0817,-3.0817,-3.0817,-3.0817,-3.0817,-3.0817,-3.0817,-3.0817,-3.0817,-3.0817,-3.0817,-3.0817,-3.0817,-3.0817,-3.0817,-3.0817,-3.0817,-3.0817,-3.0817,-3.0817,-3.0817,-3.0817,-3.0817,-3.0817,-3.0817,-3.0817,-3.0817,-3.0817,-3.0817,-3.0817,-3.0817,-3.0817,-3.0749,-3.0665,-3.0415,-3.0179,-2.9998,-2.9998,-2.9998,-3.0179,-3.0415,-3.0665,-3.0734,-3.0817,-3.0817,-3.0817,-3.0817,-3.0817,-3.0817,-3.0817,-3.0788,-3.0671,-3.0671,-3.0627,-3.051,-3.07,-3.0705,-3.0422,-3.0524,-3.0499,-3.0401,-3.0499,-3.0499,-3.0401,-3.0651,-3.0749,-3.0582,-3.0734,-3.0817,-3.0817,-3.0817,-3.0934,-3.1154,-3.1154,-3.1373,-2.7329,-2.7882,-2.8355,-2.9398,-3.0127,-3.0568,-3.0773,-3.0817,-3.0817,-3.0817,-3.0378,-3.0123,-3.024,-3.0086,-3.0115,-3.0466,-3.089,-3.1168,-3.1168,-3.1168,-3.1081,-3.0846,-3.0817,-3.0817,-3.0817,-3.0817,-3.0817,-3.0817,-3.0817,-3.0817,-3.0817,-3.0817,-3.0817,-3.0817,-3.0817,-3.0817,-3.0817,-3.0817,-3.0817,-3.0817,-3.0817,-3.0817,-3.0817,-3.0817,-3.0817,-3.0817,-3.0817,-3.0817,-3.0817,-3.0817,-3.0817,-3.0817,-3.0817,-3.0817,-3.0817,-3.0817,-3.0817,-3.0817,-3.0817,-3.0817,-3.0817,-3.0817,-3.0817,-3.0817,-3.0817,-3.0817,-3.0817,-3.0817,-3.0817,-3.0817,-3.0817,-3.0582,-3.0415,-3.0415,-3.0415,-3.0415,-3.0415,-3.0582,-3.0817,-3.0817,-3.0817,-3.0817,-3.0817,-3.0817,-3.0817,-3.0817,-3.0817,-3.0817,-3.0817,-3.0817,-3.0817,-3.0817,-3.0817,-3.0817,-3.0817,-3.0817,-3.0817,-3.0817,-3.0817,-3.0817,-3.0817,-3.0817,-3.0817,-3.0817,-3.0817,-3.0817,-3.0817,-3.0817,-3.0934,-3.1139,-3.1256,-3.1534,-2.7554,-2.8052,-2.8827,-3.0071,-3.0598,-3.0817,-3.0817,-3.0817,-3.0803,-3.0744,-2.9983,-2.9398,-2.9647,-2.9486,-2.9603,-3.0525,-3.1271,-3.1724,-3.1724,-3.1739,-3.152,-3.089,-3.0817,-3.0817,-3.0817,-3.0817,-3.0817,-3.0817,-3.0817,-3.0817,-3.0817,-3.0817,-3.0817,-3.0817,-3.0817,-3.0817,-3.0817,-3.0817,-3.0817,-3.0817,-3.0817,-3.0817,-3.0817,-3.0817,-3.0817,-3.0817,-3.0817,-3.0817,-3.0817,-3.0817,-3.0817,-3.0817,-3.0817,-3.0817,-3.0817,-3.0817,-3.0817,-3.0817,-3.0817,-3.0817,-3.0817,-3.0817,-3.0817,-3.0817,-3.0817,-3.0817,-3.0817,-3.0817,-3.0817,-3.0817,-3.0817,-3.0817,-3.0817,-3.0817,-3.0817,-3.0817,-3.0817,-3.0817,-3.0817,-3.0817,-3.0817,-3.0817,-3.0817,-3.0817,-3.0817,-3.0817,-3.0817,-3.0817,-3.0817,-3.0817,-3.0817,-3.0817,-3.0817,-3.0817,-3.0817,-3.0817,-3.0817,-3.0817,-3.0817,-3.0817,-3.0817,-3.0817,-3.0817,-3.0817,-3.0817,-3.0817,-3.0817,-3.0846,-3.0846,-3.0861,-3.1183,-3.1344,-2.8637,-2.9369,-2.9998,-3.0554,-3.0759,-3.0817,-3.0817,-3.0817,-3.0554,-2.9588,-2.9003,-2.8403,-2.7525,-2.7891,-2.8388,-2.856,-2.9822,-3.0715,-3.0715,-3.092,-3.1007,-3.0846,-3.0817,-3.0817,-3.0817,-3.0817,-3.0817,-3.0817,-3.0817,-3.0817,-3.0817,-3.0817,-3.0817,-3.0817,-3.0817,-3.0817,-3.0817,-3.0817,-3.0817,-3.0817,-3.0817,-3.0817,-3.0817,-3.0817,-3.0817,-3.0817,-3.0817,-3.0817,-3.0817,-3.0817,-3.0817,-3.0817,-3.0817,-3.0817,-3.0817,-3.0817,-3.0817,-3.0817,-3.0817,-3.0817,-3.0817,-3.0817,-3.0817,-3.0817,-3.0817,-3.0817,-3.0817,-3.0817,-3.0817,-3.0817,-3.0817,-3.0817,-3.0817,-3.0817,-3.0817,-3.0817,-3.0817,-3.0817,-3.0817,-3.0817,-3.0817,-3.0817,-3.0817,-3.0817,-3.0817,-3.0817,-3.0817,-3.0817,-3.0817,-3.0817,-3.0817,-3.0817,-3.0817,-3.0817,-3.0817,-3.0817,-3.0817,-3.0817,-3.0817,-3.0817,-3.0817,-3.0817,-3.0817,-3.0817,-3.0817,-3.0817,-3.0817,-3.1066,-3.1183,-3.1198,-3.152,-3.1812,-2.9149,-2.9954,-3.0598,-3.0773,-3.1037,-3.0993,-2.9998,-2.9983,-2.9705,-2.7978,-2.7378,-2.6852,-2.5842,-2.6676,-2.7569,-2.7715,-2.9325,-3.0612,-3.0744,-3.092,-3.0978,-3.0846,-3.0817,-3.0817,-3.0817,-3.0817,-3.0817,-3.0817,-3.0817,-3.0817,-3.0817,-3.0817,-3.0817,-3.0817,-3.0817,-3.0817,-3.0817,-3.0817,-3.0817,-3.0817,-3.0817,-3.0817,-3.0817,-3.0817,-3.0817,-3.0817,-3.0817,-3.0817,-3.0817,-3.0817,-3.0817,-3.0817,-3.0817,-3.0817,-3.0817,-3.0817,-3.0817,-3.0817,-3.0817,-3.0817,-3.0817,-3.0817,-3.0817,-3.0817,-3.0817,-3.0817,-3.0817,-3.0817,-3.0984,-3.1067,-3.1067,-3.1248,-3.1331,-3.115,-3.1067,-3.1067,-3.0817,-3.0817,-3.0817,-3.0817,-3.0817,-3.0817,-3.0817,-3.0817,-3.0817,-3.0817,-3.0817,-3.0817,-3.0817,-3.0817,-3.0817,-3.0817,-3.0817,-3.0817,-3.0817,-3.0817,-3.0817,-3.0817,-3.0817,-3.0817,-3.0817,-3.0817,-3.089,-3.1037,-3.1037,-3.111,-3.1256,-3.1432,-3.152,-3.1534,-3.1856,-3.2105,-2.9456,-3.0217,-3.089,-3.0934,-3.1373,-3.1227,-2.9282,-2.9149,-2.8887,-2.6661,-2.5972,-2.5442,-2.4583,-2.5918,-2.7152,-2.7291,-2.9267,-3.0831,-3.116,-3.1208,-3.1164,-3.0886,-3.0803,-3.0817,-3.0817,-3.0817,-3.0817,-3.0817,-3.0817,-3.0817,-3.0817,-3.0817,-3.0817,-3.0817,-3.0817,-3.0817,-3.0817,-3.0817,-3.0817,-3.0817,-3.0817,-3.0817,-3.0817,-3.0817,-3.0817,-3.0817,-3.0817,-3.0817,-3.0817,-3.0817,-3.0817,-3.0817,-3.0817,-3.0817,-3.0817,-3.0817,-3.0817,-3.0817,-3.0817,-3.0817,-3.0817,-3.0817,-3.0817,-3.0817,-3.0817,-3.0817,-3.09,-3.09,-3.1233,-3.1565,-3.1565,-3.1911,-3.2091,-3.1662,-3.1565,-3.1482,-3.1081,-3.0915,-3.09,-3.0817,-3.0817,-3.0817,-3.0817,-3.0817,-3.0817,-3.0817,-3.0817,-3.0817,-3.0817,-3.0817,-3.0817,-3.0817,-3.0817,-3.0817,-3.0817,-3.0817,-3.0817,-3.0817,-3.0817,-3.0817,-3.0817,-3.0861,-3.1022,-3.13,-3.1344,-3.152,-3.1798,-3.1841,-3.1856,-3.1871,-3.2193,-3.2354,-3.0334,-3.089,-3.1285,-3.1563,-3.171,-3.1598,-3.0941,-3.033,-2.94,-2.7685,-2.7015,-2.6048,-2.3935,-2.578,-2.7408,-2.6541,-2.8773,-3.0576,-3.0703,-3.092,-3.1003,-3.0944,-3.0836,-3.0817,-3.0817,-3.0817,-3.0817,-3.0817,-3.0817,-3.0817,-3.0817,-3.0817,-3.0817,-3.0817,-3.0817,-3.0817,-3.0817,-3.0817,-3.0817,-3.0817,-3.0817,-3.0817,-3.0817,-3.0817,-3.0817,-3.0817,-3.0817,-3.0817,-3.0817,-3.0817,-3.0817,-3.0817,-3.0817,-3.0817,-3.0817,-3.0817,-3.0817,-3.0817,-3.0817,-3.0817,-3.0817,-3.0817,-3.0817,-3.0817,-3.0817,-3.1067,-3.1399,-3.1399,-3.1745,-3.2091,-3.2091,-3.2174,-3.2174,-3.2091,-3.2091,-3.2091,-3.2009,-3.1662,-3.1233,-3.09,-3.0817,-3.0817,-3.0817,-3.0817,-3.0817,-3.0817,-3.0817,-3.0817,-3.0817,-3.0817,-3.0817,-3.0817,-3.0817,-3.0817,-3.0817,-3.0817,-3.0817,-3.0817,-3.0817,-3.0817,-3.0817,-3.1081,-3.1256,-3.1315,-3.1578,-3.1739,-3.1798,-3.2076,-3.2193,-3.2207,-3.2529,-3.269,-3.0612,-3.1183,-3.1607,-3.1754,-3.2046,-3.186,-3.0129,-2.9591,-2.8759,-2.6271,-2.5846,-2.5357,-2.3673,-2.5528,-2.7255,-2.7031,-2.8785,-3.0345,-3.102,-3.1084,-3.1148,-3.1314,-3.1205,-3.115,-3.115,-3.09,-3.0817,-3.0817,-3.0817,-3.0817,-3.0817,-3.0817,-3.0817,-3.0817,-3.0817,-3.0817,-3.0817,-3.0817,-3.0817,-3.0817,-3.0817,-3.0817,-3.0817,-3.0817,-3.0817,-3.0817,-3.0817,-3.0817,-3.0817,-3.0817,-3.0817,-3.0817,-3.0817,-3.0817,-3.0817,-3.0817,-3.0817,-3.0817,-3.0817,-3.0817,-3.0817,-3.0817,-3.0984,-3.115,-3.115,-3.1497,-3.1828,-3.1828,-3.2159,-3.2505,-3.2505,-3.267,-3.2834,-3.2587,-3.2339,-3.2174,-3.2174,-3.1828,-3.1399,-3.1233,-3.0984,-3.0817,-3.0817,-3.0817,-3.0817,-3.0817,-3.0817,-3.0817,-3.0817,-3.0817,-3.0817,-3.0817,-3.0817,-3.089,-3.1066,-3.1081,-3.1154,-3.1315,-3.1329,-3.1329,-3.1329,-3.1476,-3.1637,-3.1812,-3.1973,-3.2134,-3.231,-3.2456,-3.2529,-3.2544,-3.2705,-3.2778,-3.0944,-3.1461,-3.1915,-3.1988,-3.2383,-3.2123,-2.9508,-2.9051,-2.83,-2.5548,-2.5147,-2.4969,-2.3996,-2.5765,-2.7464,-2.7741,-2.923,-3.0697,-3.1523,-3.1647,-3.1647,-3.1664,-3.1571,-3.1482,-3.1482,-3.1067,-3.0817,-3.0817,-3.0817,-3.0817,-3.0817,-3.0817,-3.0817,-3.0817,-3.0817,-3.0817,-3.0817,-3.0817,-3.0817,-3.0817,-3.0817,-3.0817,-3.0817,-3.0817,-3.0817,-3.0817,-3.0817,-3.0817,-3.0817,-3.0817,-3.0817,-3.0817,-3.0817,-3.0817,-3.0817,-3.0817,-3.0817,-3.0817,-3.0817,-3.0817,-3.0817,-3.09,-3.1233,-3.1482,-3.1482,-3.1911,-3.2339,-3.2339,-3.267,-3.2983,-3.2983,-3.323,-3.3394,-3.3148,-3.2819,-3.267,-3.2736,-3.2556,-3.2376,-3.2376,-3.2128,-3.1865,-3.1865,-3.1865,-3.1865,-3.1865,-3.1865,-3.1865,-3.1865,-3.1865,-3.1865,-3.1865,-3.1233,-3.0964,-3.1285,-3.1315,-3.1446,-3.1783,-3.1798,-3.1798,-3.1798,-3.1871,-3.2017,-3.228,-3.2354,-3.2515,-3.2778,-3.2778,-3.2778,-3.2778,-3.2778,-3.2778,-3.1945,-3.1973,-3.231,-3.2602,-3.2719,-3.2498,-3.1241,-3.0203,-2.9199,-2.7908,-2.7235,-2.6565,-2.5428,-2.724,-2.871,-2.8156,-3.045,-3.2173,-3.1722,-3.2634,-3.2908,-3.1871,-3.1584,-3.1482,-3.1482,-3.1067,-3.0817,-3.0817,-3.0817,-3.0817,-3.0817,-3.0817,-3.0817,-3.0817,-3.0817,-3.0817,-3.0817,-3.0817,-3.0817,-3.0817,-3.0817,-3.0817,-3.0817,-3.0817,-3.0817,-3.0817,-3.0817,-3.0817,-3.0817,-3.0817,-3.0817,-3.0817,-3.0817,-3.0817,-3.0817,-3.0817,-3.0817,-3.0817,-3.0817,-3.0817,-3.09,-3.1316,-3.1482,-3.1482,-3.1482,-3.2076,-3.2736,-3.2736,-3.3066,-3.341,-3.341,-3.3476,-3.3558,-3.3886,-3.3968,-3.4049,-3.4425,-3.4832,-3.5059,-3.5042,-3.5268,-3.5511,-3.5511,-3.5511,-3.5511,-3.5511,-3.5511,-3.5511,-3.5511,-3.5511,-3.5511,-3.5511,-3.269,-3.0964,-3.1285,-3.1315,-3.1446,-3.1783,-3.1798,-3.1798,-3.1798,-3.2076,-3.2251,-3.228,-3.2573,-3.2749,-3.2778,-3.2778,-3.2778,-3.2778,-3.2778,-3.2778,-3.1826,-3.2032,-3.2368,-3.269,-3.3015,-3.2839,-3.1423,-3.0648,-2.9817,-2.8225,-2.7381,-2.6936,-2.6735,-2.7512,-2.8589,-2.9875,-3.0741,-3.1494,-3.2427,-3.2837,-3.2809,-3.2041,-3.1929,-3.1828,-3.1565,-3.1067,-3.0817,-3.0817,-3.0817,-3.0817,-3.0817,-3.0817,-3.0817,-3.0817,-3.0817,-3.0817,-3.0817,-3.0817,-3.0817,-3.0817,-3.0817,-3.0817,-3.0817,-3.0817,-3.0817,-3.0817,-3.0817,-3.0817,-3.0817,-3.0817,-3.0817,-3.0817,-3.0817,-3.0817,-3.0817,-3.0817,-3.0817,-3.0817,-3.0817,-3.0817,-3.0817,-3.0984,-3.1497,-3.1994,-3.2242,-3.2736,-3.323,-3.323,-3.3312,-3.3492,-3.3492,-3.364,-3.3968,-3.4376,-3.4702,-3.4996,-3.5457,-3.5632,-3.5923,-3.6447,-3.6238,-3.6063,-3.6285,-3.6148,-3.5994,-3.5994,-3.5994,-3.5994,-3.5994,-3.5994,-3.5994,-3.5994,-3.3822,-3.2514,-3.2853,-3.207,-3.1739,-3.2076,-3.228,-3.2383,-3.2383,-3.2515,-3.2573,-3.2573,-3.2705,-3.2778,-3.2778,-3.2778,-3.2778,-3.2778,-3.2968,-3.3056,-3.1919,-3.2229,-3.2485,-3.2719,-3.3044,-3.2841,-3.1365,-3.0763,-2.9998,-2.8249,-2.7415,-2.7126,-2.7434,-2.7701,-2.8551,-3.0657,-3.1023,-3.1563,-3.3243,-3.3707,-3.3751,-3.346,-3.3582,-3.3286,-3.2304,-3.1339,-3.0817,-3.0817,-3.0817,-3.0817,-3.0817,-3.0817,-3.0817,-3.0817,-3.0817,-3.0817,-3.0817,-3.0817,-3.0817,-3.0817,-3.0817,-3.0817,-3.0817,-3.0817,-3.0817,-3.0817,-3.0817,-3.0817,-3.0817,-3.0817,-3.0817,-3.0817,-3.0817,-3.0817,-3.0817,-3.0817,-3.0817,-3.0817,-3.0817,-3.0817,-3.0817,-3.0984,-3.1579,-3.2257,-3.267,-3.3148,-3.3492,-3.3492,-3.3492,-3.3574,-3.364,-3.3966,-3.4441,-3.5194,-3.5668,-3.6147,-3.6977,-3.723,-3.7583,-3.8458,-3.8266,-3.7962,-3.8311,-3.8051,-3.7873,-3.7873,-3.7873,-3.7819,-3.7712,-3.7694,-3.7694,-3.7694,-3.6063,-3.4621,-3.3921,-3.3107,-3.2517,-3.2353,-3.2588,-3.2778,-3.2778,-3.2778,-3.2778,-3.2778,-3.2778,-3.2778,-3.2778,-3.2866,-3.291,-3.2924,-3.3232,-3.3436,-3.2633,-3.2608,-3.2763,-3.2778,-3.2777,-3.2395,-3.1226,-3.0485,-2.9657,-2.8448,-2.7708,-2.7309,-2.7309,-2.8007,-2.8918,-2.9849,-3.1492,-3.3069,-3.4232,-3.5491,-3.636,-3.6606,-3.6968,-3.6281,-3.4156,-3.2079,-3.0817,-3.0817,-3.0817,-3.0817,-3.0817,-3.0817,-3.0817,-3.0817,-3.0817,-3.0817,-3.0817,-3.0817,-3.0817,-3.0817,-3.0817,-3.0817,-3.0817,-3.0817,-3.0817,-3.0817,-3.0817,-3.0817,-3.0817,-3.0817,-3.0817,-3.0817,-3.0817,-3.0817,-3.0817,-3.0817,-3.0817,-3.0817,-3.0817,-3.0817,-3.09,-3.1316,-3.1828,-3.2257,-3.267,-3.3148,-3.3492,-3.3492,-3.3492,-3.3558,-3.3968,-3.4374,-3.5064,-3.6382,-3.6902,-3.7657,-3.9504,-4.0158,-4.0728,-4.1556,-4.2101,-4.2342,-4.2342,-4.2342,-4.2322,-4.2322,-4.2322,-4.2186,-4.1757,-4.1718,-4.1718,-4.1718,-3.9854,-3.7276,-3.417,-3.4171,-3.377,-3.244,-3.2588,-3.2778,-3.2778,-3.2778,-3.2778,-3.2778,-3.2778,-3.2778,-3.2778,-3.3085,-3.3246,-3.3156,-3.3568,-3.389,-3.104,-3.1375,-3.1685,-3.1066,-3.1557,-3.1812,-3.0229,-3.0173,-2.9997,-2.8357,-2.7627,-2.7392,-2.7655,-2.7696,-2.8711,-3.1795,-3.254,-3.3605,-3.618,-3.6213,-3.5632,-3.4818,-3.3611,-3.2601,-3.1878,-3.1173,-3.0817,-3.0817,-3.0817,-3.0817,-3.0817,-3.0817,-3.0817,-3.0817,-3.0817,-3.0817,-3.0817,-3.0817,-3.0817,-3.0817,-3.0817,-3.0817,-3.0817,-3.0817,-3.0817,-3.0817,-3.0817,-3.0817,-3.0817,-3.0817,-3.0817,-3.0817,-3.0817,-3.0817,-3.0817,-3.0817,-3.0817,-3.0817,-3.0817,-3.0817,-3.0817,-3.0984,-3.1579,-3.2257,-3.2339,-3.2917,-3.3492,-3.3492,-3.3492,-3.364,-3.4376,-3.4883,-3.546,-3.6792,-3.7578,-3.8424,-3.962,-4.0443,-4.1141,-4.2055,-4.2264,-4.2519,-4.2812,-4.2617,-4.2422,-4.2422,-4.2422,-4.2383,-4.2246,-4.2226,-4.2226,-4.2226,-4.1372,-4.0049,-3.8188,-3.5808,-3.435,-3.4126,-3.3275,-3.2778,-3.2778,-3.2778,-3.2778,-3.2778,-3.2778,-3.2778,-3.2778,-3.288,-3.3144,-3.3583,-3.3919,-3.4241,-3.0081,-3.0528,-3.0718,-3.0122,-3.0633,-3.0915,-2.9617,-2.96,-2.9518,-2.8193,-2.7572,-2.7392,-2.7614,-2.7717,-2.8711,-3.1629,-3.2313,-3.3402,-3.6127,-3.5939,-3.5358,-3.487,-3.3,-3.1811,-3.2015,-3.1301,-3.0817,-3.0817,-3.0817,-3.0817,-3.0817,-3.0817,-3.0817,-3.0817,-3.0817,-3.0817,-3.0817,-3.0817,-3.0817,-3.0817,-3.0817,-3.0817,-3.0817,-3.0817,-3.0817,-3.0817,-3.0817,-3.0817,0.0,-3.0817,-3.0817,-3.0817,-3.0817,-3.0817,-3.0817,-3.0817,-3.0817,-3.0817,-3.0817,-3.0817,-3.0817,-3.0984,-3.1662,-3.2422,-3.267,-3.3081,-3.3492,-3.3492,-3.364,-3.3886,-3.4621,-3.5311,-3.609,-3.7262,-3.8241,-3.9199,-4.0036,-4.0787,-4.1593,-4.2455,-4.2625,-4.2845,-4.3262,-4.3086,-4.291,-4.291,-4.291,-4.2851,-4.2695,-4.2676,-4.2595,-4.2434,-4.2056,-4.1528,-4.0913,-3.775,-3.5597,-3.5071,-3.415,-3.347,-3.3293,-3.3117,-3.3029,-3.3029,-3.2852,-3.2778,-3.2778,-3.3012,-3.3466,-3.411,-3.43,-3.4505,0.0,-2.9832,-2.9778,-2.971,-2.9771,-2.9702,-2.9233,-2.881,0.0,-2.7966,-2.7552,-2.7351,-2.7517,-2.811,-2.9021,-3.0222,-3.1526,-3.3008,-3.4782,-3.4945,-3.5296,-3.634,-3.4525,-3.3371,-3.4115,-3.2159,-3.0817,-3.0817,-3.0817,-3.0817,-3.0817,-3.0817,-3.0817,-3.0817,-3.0817,-3.0817,-3.0817,-3.0817,-3.0817,-3.0817,-3.0817,-3.0817,-3.0817,-3.0817,-3.0817,-3.0817,-3.0817,-3.0817,-3.0817,-3.0817,-3.0817,-3.0817,-3.0817,-3.0817,-3.0817,-3.0817,-3.0817,-3.0817,-3.0817,-3.0817,-3.09,-3.1399,-3.2159,-3.2901,-3.3312,-3.3492,-3.3492,-3.3558,-3.3804,-3.4213,-3.4702,-3.5741,-3.6793,-3.7691,-3.8786,-3.9943,-4.0789,-4.136,-4.1946,-4.2799,-4.3068,-4.3151,-4.3628,-4.3628,-4.3711,-4.3711,-4.3711,-4.3555,-4.3183,-4.3125,-4.2962,-4.2471,-4.2044,-4.1958,-4.2288,-3.9868,-3.7453,-3.5478,-3.5123,-3.4787,-3.4349,-3.3822,-3.3558,-3.3558,-3.3058,-3.2807,-3.2807,-3.3451,-3.408,-3.4666,-3.4695,-3.471,-2.6685,0.0,-2.7774,-2.7055,-2.7609,-2.8197,0.0,-2.795,-2.838,-2.7572,-2.7372,-2.7849,-2.9559,-2.9187,-2.9953,-3.401,-3.5252,-3.5851,-3.6405,-3.4883,-3.4412,-3.6423,-3.3514,-3.2493,-3.5352,-3.2723,-3.0817,-3.0817,-3.0817,-3.0817,-3.0817,-3.0817,-3.0817,-3.0817,-3.0817,-3.0817,-3.0817,-3.0817,-3.0817,-3.0817,-3.0817,-3.0817,-3.0817,-3.0817,-3.0817,-3.0817,-3.0817,-3.0817,-3.0817,-3.0817,-3.0817,-3.0817,-3.0817,-3.0817,-3.0817,-3.0817,-3.0817,-3.0817,-3.0817,-3.0817,-3.0915,-3.176,-3.2422,-3.2901,-3.3312,-3.3492,-3.3558,-3.3886,-3.4049,-3.4294,-3.5027,-3.5906,-3.6793,-3.7691,-3.8786,-3.9858,-4.0385,-4.1126,-4.1779,-4.1965,-4.2299,-4.2735,-4.3151,-4.3234,-4.3399,-4.3628,-4.3711,-4.3672,-4.3574,-4.3327,-4.3079,-4.2914,-4.2239,-4.1628,-4.1432,-3.9539,-3.8249,-3.8067,-3.6345,-3.528,-3.5193,-3.4422,-3.3998,-3.3998,-3.3442,-3.3129,-3.3129,-3.3788,-3.4183,-3.4344,-3.4592,-3.471,-2.5213,-2.6703,-2.8069,-2.7572,-2.8173,-2.8752,-2.8255,-2.8069,-2.7841,-2.7413,-2.7475,-2.8007,-2.9477,-2.9485,-3.06,-3.4531,-3.4983,-3.5223,-3.6571,-3.6729,-3.652,-3.6173,-3.4366,-3.3336,-3.3666,-3.1948,-3.0817,-3.0817,-3.0817,-3.0817,-3.0817,-3.0817,-3.0817,-3.0817,-3.0817,-3.0817,-3.0817,-3.0817,-3.0817,-3.0817,-3.0817,-3.0817,-3.0817,-3.0817,-3.0817,-3.0817,-3.0817,-3.0817,-3.0817,-3.0817,-3.0817,-3.0817,-3.0817,-3.0817,-3.0817,-3.0817,-3.0817,-3.0817,-3.0817,-3.1081,-3.1497,-3.2009,-3.2587,-3.3148,-3.3394,-3.364,-3.3804,-3.4049,-3.4294,-3.4539,-3.5271,-3.6152,-3.696,-3.7442,-3.8702,-3.9774,-4.0046,-4.0789,-4.1462,-4.1695,-4.1882,-4.2216,-4.2735,-4.2985,-4.3151,-4.338,-4.3546,-4.3633,-4.3437,-4.3109,-4.262,-4.2245,-4.1568,-4.0979,-4.0592,-3.94,-3.8742,-3.8786,-3.7522,-3.6751,-3.6494,-3.6226,-3.5803,-3.5121,-3.405,-3.3589,-3.3737,-3.407,-3.43,-3.4446,-3.4622,-3.471,-2.4921,-2.7147,-2.9227,-2.8858,-2.9332,-2.9849,-2.9704,-2.8524,-2.7537,-2.76,-2.7862,-2.8363,-2.9125,-3.0115,-3.1643,-3.4228,-3.3594,-3.3617,-3.5844,-3.7836,-3.8195,-3.5822,-3.5398,-3.4277,-3.1849,-3.1155,-3.0817,-3.0817,-3.0817,-3.0817,-3.0817,-3.0817,-3.0817,-3.0817,-3.0817,-3.0817,-3.0817,-3.0817,-3.0817,-3.0817,-3.0817,-3.0817,-3.0817,-3.0817,-3.0817,-3.0817,-3.0817,-3.0817,-3.0817,-3.0817,-3.0817,-3.0817,-3.0817,-3.0817,-3.0817,-3.0817,-3.0817,-3.0832,-3.09,-3.1497,-3.2174,-3.2257,-3.2834,-3.3492,-3.3492,-3.3804,-3.4131,-3.4213,-3.4539,-3.4946,-3.5433,-3.6266,-3.7142,-3.7276,-3.8499,-3.9618,-3.9774,-4.0469,-4.1229,-4.1546,-4.1612,-4.1798,-4.2235,-4.2595,-4.2806,-4.2972,-4.3225,-4.3297,-4.2946,-4.25,-4.1958,-4.109,-4.0646,-4.024,-3.9921,-3.9513,-3.9186,-3.884,-3.8689,-3.845,-3.7996,-3.8288,-3.7929,-3.6637,-3.4994,-3.4352,-3.4713,-3.4389,-3.4358,-3.4636,-3.468,-3.471,-2.6842,-2.8377,-2.8968,-2.6914,-2.7924,-2.9208,-2.8421,-2.8317,-2.8524,-2.8897,-2.9042,-2.9733,-3.1841,-3.2892,-3.4285,-3.6755,-3.5779,-3.4699,-3.4404,-3.3144,-3.3181,-3.5714,-3.342,-3.2617,-3.5076,-3.2533,-3.0817,-3.0817,-3.0817,-3.0817,-3.0817,-3.0817,-3.0817,-3.0817,-3.0817,-3.0817,-3.0817,-3.0817,-3.0817,-3.0817,-3.0817,-3.0817,-3.0817,-3.0817,-3.0817,-3.0817,-3.0817,-3.0817,-3.0817,-3.0817,-3.0817,-3.0817,-3.0817,-3.0817,-3.0817,-3.0817,-3.0817,-3.0832,-3.1233,-3.1745,-3.2257,-3.2587,-3.3081,-3.3492,-3.3492,-3.3804,-3.4213,-3.4539,-3.5027,-3.5433,-3.5855,-3.6324,-3.6881,-3.7604,-3.854,-3.9383,-4.0144,-4.0723,-4.1145,-4.1145,-4.1229,-4.1294,-4.1714,-4.1582,-4.1688,-4.2365,-4.2303,-4.2052,-4.1994,-4.1552,-4.1128,-4.0665,-4.0258,-3.9947,-3.9937,-3.9838,-3.99,-4.0203,-3.9787,-3.9497,-3.9275,-3.9345,-3.9108,-3.8477,-3.6616,-3.5858,-3.6243,-3.4894,-3.4241,-3.43,-3.4578,-3.471,-2.6078,-2.7885,-2.9041,-2.7513,-2.8879,-3.0555,-3.0102,-2.9368,-2.9102,-2.9964,-3.0386,-3.0976,-3.2258,-3.3325,-3.4122,-3.4684,-3.5809,-3.6216,-3.4933,-3.5359,-3.5721,-3.5752,-3.4514,-3.3551,-3.3221,-3.1736,-3.0817,-3.0817,-3.0817,-3.0817,-3.0817,-3.0817,-3.0817,-3.0817,-3.0817,-3.0817,-3.0817,-3.0817,-3.0817,-3.0817,-3.0817,-3.0817,-3.0817,-3.0817,-3.0817,-3.0817,-3.0817,-3.0817,-3.0817,-3.0817,-3.0817,-3.0817,-3.0817,-3.0817,-3.0817,-3.0817,-3.0817,-3.09,-3.1316,-3.1828,-3.2257,-3.267,-3.3148,-3.3558,-3.3722,-3.4131,-3.4539,-3.5027,-3.5405,-3.5767,-3.6068,-3.6508,-3.7019,-3.7479,-3.817,-3.8938,-3.9616,-4.0151,-4.0483,-4.0483,-4.0483,-4.0483,-4.0713,-4.0729,-4.0946,-4.1273,-4.1609,-4.1641,-4.117,-4.0891,-4.0636,-4.0189,-3.9831,-3.9677,-3.9907,-4.0076,-4.0382,-4.083,-4.0845,-4.1184,-4.1825,-4.1089,-4.0734,-4.0698,-3.9114,-3.8278,-3.8481,-3.7712,-3.736,-3.7536,-3.6698,-3.6235,-2.5582,-2.7288,-2.8847,-2.8823,-3.0351,-3.1783,-3.1531,-3.0368,-2.9573,-3.0746,-3.1238,-3.1727,-3.2458,-3.3648,-3.4324,-3.3467,-3.5488,-3.6512,-3.4577,-3.6392,-3.6963,-3.459,-3.4614,-3.3797,-3.1057,-3.0817,-3.0817,-3.0817,-3.0817,-3.0817,-3.0817,-3.0817,-3.0817,-3.0817,-3.0817,-3.0817,-3.0817,-3.0817,-3.0817,-3.0817,-3.0817,-3.0817,-3.0817,-3.0817,-3.0817,-3.0817,-3.0817,-3.0817,-3.0817,-3.0817,-3.0817,-3.0817,-3.0817,-3.0817,-3.0817,-3.0817,-3.0817,-3.09,-3.1482,-3.1911,-3.2257,-3.2834,-3.3246,-3.3558,-3.3968,-3.4458,-3.4865,-3.5271,-3.5767,-3.6133,-3.6102,-3.6525,-3.7067,-3.7352,-3.7918,-3.8576,-3.9258,-3.9686,-3.9932,-3.9932,-3.9932,-3.9932,-3.9932,-4.0084,-4.0191,-4.0353,-4.0925,-4.1155,-4.0413,-4.0455,-4.0322,-3.994,-3.9588,-3.9625,-4.0192,-4.0671,-4.1151,-4.1571,-4.1909,-4.262,-4.3856,-4.278,-4.2447,-4.2927,-4.1196,-4.0428,-4.0646,-4.0067,-4.0001,-4.0361,-3.8902,-3.831,-2.709,-2.768,-2.8145,-3.0156,-3.1348,-3.1722,-3.0729,-3.028,-3.0303,-3.0933,-3.1114,-3.1635,-3.3386,-3.5475,-3.6932,-3.6807,-3.5798,-3.4058,-3.1503,-3.1337,-3.1351,-3.114,-3.1155,-3.1057,-3.0832,-3.0817,-3.0817,-3.0817,-3.0817,-3.0817,-3.0817,-3.0817,-3.0817,-3.0817,-3.0817,-3.0817,-3.0817,-3.0817,-3.0817,-3.0817,-3.0817,-3.0817,-3.0817,-3.0817,-3.0817,-3.0817,-3.0817,-3.0817,-3.0817,-3.0817,-3.0817,-3.0817,-3.0817,-3.0817,-3.0817,-3.0817,-3.0817,-3.09,-3.1843,-3.2174,-3.2339,-3.3164,-3.3476,-3.3558,-3.3968,-3.4458,-3.4865,-3.5271,-3.593,-3.6461,-3.6183,-3.6131,-3.6494,-3.7636,-3.7986,-3.8337,-3.9595,-3.985,-3.9932,-3.9932,-3.9932,-3.9932,-3.9932,-3.952,-3.9443,-3.9863,-4.0024,-3.9978,-3.9959,-4.0254,-4.0313,-3.9902,-3.9902,-4.0211,-4.1067,-4.181,-4.2478,-4.2926,-4.3026,-4.3443,-4.4288,-4.3876,-4.3958,-4.48,-4.2281,-4.131,-4.2122,-4.035,-3.9607,-4.0056,-4.0236,-4.03,-2.657,-2.7471,-2.8276,-2.9683,-3.1501,-3.2535,-3.0885,-3.0971,-3.2015,-3.4394,-3.3364,-3.2777,-3.5081,-3.4225,-3.3708,-3.5413,-3.3754,-3.1934,-3.0915,-3.0817,-3.0817,-3.0817,-3.0817,-3.0817,-3.0817,-3.0817,-3.0817,-3.0817,-3.0817,-3.0817,-3.0817,-3.0817,-3.0817,-3.0817,-3.0817,-3.0817,-3.0817,-3.0817,-3.0817,-3.0817,-3.0817,-3.0817,-3.0817,-3.0817,-3.0817,-3.0817,-3.0817,-3.0817,-3.0817,-3.0817,-3.0817,-3.0817,-3.0817,-3.0817,-3.0817,-3.0817,-3.0984,-3.1316,-3.2009,-3.2339,-3.267,-3.3328,-3.3492,-3.364,-3.4294,-3.4621,-3.4946,-3.5612,-3.6021,-3.6268,-3.6131,-3.6251,-3.6649,-3.7453,-3.7676,-3.7873,-3.8901,-3.9098,-3.9098,-3.9098,-3.9098,-3.9098,-3.9098,-3.897,-3.9019,-3.9435,-3.976,-3.9902,-3.9902,-4.0294,-4.0431,-4.0275,-4.0759,-4.1324,-4.1909,-4.2498,-4.3008,-4.3437,-4.3448,-4.3711,-4.437,-4.4205,-4.4288,-4.4616,-4.3609,-4.3356,-4.3983,-4.3262,-4.3242,-4.3895,-4.2782,-4.23,-2.6447,-2.7973,-2.9202,-2.93,-3.1558,-3.3196,-3.1039,-3.1501,-3.2857,-3.4772,-3.3949,-3.3493,-3.533,-3.3452,-3.2222,-3.418,-3.2443,-3.0817,-3.0817,-3.0817,-3.0817,-3.0817,-3.0817,-3.0817,-3.0817,-3.0817,-3.0817,-3.0817,-3.0817,-3.0817,-3.0817,-3.0817,-3.0817,-3.0817,-3.0817,-3.0817,-3.0817,-3.0817,-3.0817,-3.0817,-3.0817,-3.0817,-3.0817,-3.0817,-3.0817,-3.0817,-3.0817,-3.0817,-3.0817,-3.0817,-3.0817,-3.0817,-3.0817,-3.0817,-3.0817,-3.0817,-3.1067,-3.1565,-3.2009,-3.2422,-3.2901,-3.3328,-3.3492,-3.3656,-3.4376,-3.4702,-3.4946,-3.5676,-3.6016,-3.6097,-3.6097,-3.6268,-3.6632,-3.7258,-3.7445,-3.7605,-3.8402,-3.856,-3.856,-3.856,-3.856,-3.864,-3.8798,-3.8798,-3.8956,-3.943,-3.9823,-4.0059,-4.0059,-4.0451,-4.0763,-4.0763,-4.1386,-4.1973,-4.2402,-4.2832,-4.3262,-4.3672,-4.3711,-4.3876,-4.437,-4.4288,-4.4288,-4.437,-4.4288,-4.4474,-4.5019,-4.5019,-4.5469,-4.6308,-4.4933,-4.4296,-2.7182,-2.9352,-3.0898,-2.9445,-3.1551,-3.3417,-3.1146,-3.1902,-3.2625,-3.1145,-3.2165,-3.3468,-3.3888,-3.3581,-3.3452,-3.3888,-3.2196,-3.0817,-3.0817,-3.0817,-3.0817,-3.0817,-3.0817,-3.0817,-3.0817,-3.0817,-3.0817,-3.0817,-3.0817,-3.0817,-3.0817,-3.0817,-3.0817,-3.0817,-3.0817,-3.0817,-3.0817,-3.0817,-3.0817,-3.0817,-3.0817,-3.0817,-3.0817,-3.0817,-3.0817,-3.0817,-3.0817,-3.0817,-3.0817,-3.0817,-3.0817,-3.0817,-3.0817,-3.0817,-3.0817,-3.0832,-3.1067,-3.1565,-3.2009,-3.2505,-3.2901,-3.3312,-3.3492,-3.3558,-3.3968,-3.4458,-3.4865,-3.5271,-3.5757,-3.6097,-3.6097,-3.6097,-3.6339,-3.7205,-3.7445,-3.7605,-3.8402,-3.856,-3.856,-3.856,-3.856,-3.8719,-3.9193,-3.9272,-3.943,-3.9823,-4.0197,-4.0509,-4.0509,-4.0919,-4.1172,-4.1172,-4.1562,-4.1973,-4.2402,-4.2832,-4.3262,-4.3672,-4.3711,-4.3876,-4.437,-4.3958,-4.3958,-4.437,-4.3958,-4.4141,-4.5019,-4.5019,-4.5469,-4.6289,-4.6289,-4.6289,-2.9895,-3.0056,-3.0426,-3.1328,-3.2507,-3.3129,-3.1904,-3.1965,-3.2055,-3.1048,-3.2902,-3.4586,-3.4115,-3.2663,-3.2073,-3.3692,-3.2196,-3.0817,-3.0817,-3.0817,-3.0817,-3.0817,-3.0817,-3.0817,-3.0817,-3.0817,-3.0817,-3.0817,-3.0817,-3.0817,-3.0817,-3.0817,-3.0817,-3.0817,-3.0817,-3.0817,-3.0817,-3.0817,-3.0817,-3.0817,-3.0817,-3.0817,-3.0817,-3.0817,-3.0817,-3.0817,-3.0817,-3.0817,-3.0817,-3.0817,-3.0817,-3.0817,-3.0817,-3.0817,-3.0817,-3.115,-3.1579,-3.2091,-3.2505,-3.2917,-3.3328,-3.3476,-3.3492,-3.3558,-3.3968,-3.4213,-3.4458,-3.519,-3.5514,-3.5676,-3.6016,-3.6097,-3.6339,-3.7205,-3.7445,-3.7605,-3.8402,-3.856,-3.856,-3.856,-3.8877,-3.9114,-3.9272,-3.9509,-3.9902,-4.0275,-4.0431,-4.0588,-4.0919,-4.1094,-4.1172,-4.1172,-4.1816,-4.2285,-4.2422,-4.3105,-4.3574,-4.3691,-4.3711,-4.3793,-4.3876,-4.3793,-4.3793,-4.3876,-4.3793,-4.3984,-4.459,-4.459,-4.5019,-4.5859,-4.5859,-4.6016,-3.1054,-3.1422,-3.1993,-3.1888,-3.2543,-3.2851,-3.1791,-3.1518,-3.1381,-3.0866,-3.2267,-3.3406,-3.2834,-3.17,-3.1218,-3.251,-3.1632,-3.0817,-3.0817,-3.0817,-3.0817,-3.0817,-3.0817,-3.0817,-3.0817,-3.0817,-3.0817,-3.0817,-3.0817,-3.0817,-3.0817,-3.0817,-3.0817,-3.0817,-3.0817,-3.0817,-3.0817,-3.0817,-3.0817,-3.0817,-3.0817,-3.0817,-3.0817,-3.0817,-3.0817,-3.0817,-3.0817,-3.0817,-3.0817,-3.0817,-3.0817,-3.0817,-3.0817,-3.09,-3.1067,-3.1399,-3.1911,-3.2505,-3.2736,-3.3066,-3.3492,-3.3492,-3.3492,-3.3574,-3.3804,-3.3968,-3.4213,-3.4702,-3.5109,-3.5433,-3.5757,-3.5935,-3.6339,-3.7205,-3.7445,-3.7605,-3.8402,-3.856,-3.864,-3.8877,-3.9114,-3.943,-3.9726,-3.9981,-4.0294,-4.0685,-4.0763,-4.0841,-4.1172,-4.1172,-4.1172,-4.1172,-4.1933,-4.2422,-4.2422,-4.3203,-4.3711,-4.3711,-4.3711,-4.3711,-4.3711,-4.3711,-4.3711,-4.3711,-4.3711,-4.3926,-4.4394,-4.4394,-4.4844,-4.5683,-4.5683,-4.5898,-3.1405,-3.3121,-3.4345,-3.1724,-3.1968,-3.241,-3.1101,-3.0817,-3.0817,-3.0817,-3.0817,-3.0817,-3.0817,-3.0817,-3.0817,-3.0817,-3.0817,-3.0817,-3.0817,-3.0817,-3.0817,-3.0817,-3.0817,-3.0817,-3.0817,-3.0817,-3.0817,-3.0817,-3.0817,-3.0817,-3.0817,-3.0817,-3.0817,-3.0817,-3.0817,-3.0817,-3.0817,-3.0817,-3.0817,-3.0817,-3.0817,-3.0817,-3.0817,-3.0817,-3.0817,-3.0817,-3.0817,-3.0817,-3.0817,-3.0817,-3.0817,-3.0817,-3.0817,-3.115,-3.1482,-3.1565,-3.2159,-3.2819,-3.2819,-3.3148,-3.3492,-3.3492,-3.3492,-3.3492,-3.3492,-3.3722,-3.4049,-3.4131,-3.4702,-3.5271,-3.5352,-3.5676,-3.6241,-3.7205,-3.7445,-3.7605,-3.8402,-3.864,-3.8798,-3.9193,-3.9351,-3.9647,-4.0353,-4.0509,-4.0685,-4.1172,-4.1172,-4.1172,-4.1172,-4.1172,-4.1172,-4.1172,-4.1933,-4.2422,-4.2422,-4.3203,-4.3711,-4.3711,-4.3711,-4.3711,-4.3711,-4.3711,-4.3711,-4.3711,-4.3711,-4.3906,-4.4336,-4.4336,-4.4766,-4.5566,-4.5605,-4.584,-3.3819,-3.3218,-3.2864,-3.3028,-3.2142,-3.1175,-3.0827,-3.0817,-3.0817,-3.0817,-3.0817,-3.0817,-3.0817,-3.0817,-3.0817,-3.0817,-3.0817,-3.0817,-3.0817,-3.0817,-3.0817,-3.0817,-3.0817,-3.0817,-3.0817,-3.0817,-3.0817,-3.0817,-3.0817,-3.0817,-3.0817,-3.0817,-3.0817,-3.0817,-3.0817,-3.0817,-3.0817,-3.0817,-3.0817,-3.0817,-3.0817,-3.0817,-3.0817,-3.0817,-3.0817,-3.0817,-3.0817,-3.0817,-3.0817,-3.0817,-3.0817,-3.0817,-3.1233,-3.1399,-3.1565,-3.2242,-3.2654,-3.2819,-3.323,-3.341,-3.3492,-3.3492,-3.3492,-3.3492,-3.3492,-3.3558,-3.3722,-3.4049,-3.4213,-3.4539,-3.519,-3.5433,-3.5838,-3.7125,-3.7445,-3.7605,-3.8402,-3.8877,-3.9193,-3.9272,-3.9805,-4.0275,-4.0509,-4.0841,-4.1094,-4.1172,-4.1172,-4.1172,-4.1172,-4.1172,-4.1172,-4.1172,-4.1933,-4.2422,-4.2422,-4.3203,-4.3711,-4.3711,-4.3711,-4.3711,-4.3711,-4.3711,-4.3711,-4.3711,-4.3711,-4.375,-4.3848,-4.3848,-4.4141,-4.4687,-4.5019,-4.5391,-3.3578,-3.3454,-3.3589,-3.3078,-3.2227,-3.1497,-3.1497,-3.1497,-3.1414,-3.115,-3.0984,-3.0817,-3.0817,-3.0817,-3.0817,-3.0817,-3.0817,-3.0817,-3.0817,-3.0817,-3.0817,-3.0817,-3.0817,-3.0817,-3.0817,-3.0817,-3.0817,-3.0817,-3.0817,-3.0817,-3.0817,-3.0817,-3.0817,-3.0817,-3.0817,-3.0817,-3.0817,-3.0817,-3.0817,-3.0817,-3.0817,-3.0817,-3.0817,-3.0817,-3.0817,-3.0817,-3.0817,-3.0817,-3.0817,-3.0817,-3.09,-3.115,-3.1399,-3.173,-3.2159,-3.2654,-3.2901,-3.3148,-3.341,-3.3492,-3.3492,-3.3492,-3.3492,-3.3492,-3.3492,-3.3492,-3.3558,-3.3722,-3.3968,-3.4213,-3.4702,-3.5109,-3.5595,-3.6563,-3.7125,-3.7605,-3.8402,-3.8956,-3.9351,-3.9588,-4.004,-4.0588,-4.0841,-4.1016,-4.1172,-4.1172,-4.1172,-4.1172,-4.1172,-4.1172,-4.1172,-4.1172,-4.1933,-4.2422,-4.2422,-4.3203,-4.3711,-4.3711,-4.3711,-4.3711,-4.3711,-4.3711,-4.3711,-4.3711,-4.3711,-4.3711,-4.3711,-4.3711,-4.3945,-4.4414,-4.4629,-4.4961,-3.252,-3.3545,-3.4602,-3.289,-3.2422,-3.2422,-3.2422,-3.2339,-3.2174,-3.1813,-3.1316,-3.09,-3.0817,-3.0817,-3.0817,-3.0817,-3.0817,-3.0817,-3.0817,-3.0817,-3.0817,-3.0817,-3.0817,-3.0817,-3.0817,-3.0817,-3.0817,-3.0817,-3.0817,-3.0817,-3.0817,-3.0817,-3.0817,-3.0817,-3.0817,-3.0817,-3.0817,-3.0817,-3.0817,-3.0817,-3.0817,-3.0817,-3.0817,-3.0817,-3.0817,-3.0817,-3.0817,-3.0817,-3.0832,-3.09,-3.115,-3.1482,-3.1647,-3.2159,-3.2819,-3.2901,-3.3148,-3.3492,-3.3492,-3.3492,-3.3492,-3.3492,-3.3492,-3.3492,-3.3492,-3.3492,-3.3492,-3.3492,-3.3722,-3.4049,-3.4049,-3.4621,-3.5352,-3.5935,-3.6724,-3.7508,-3.8322,-3.8956,-3.9509,-3.9823,-4.0294,-4.0763,-4.1094,-4.125,-4.1327,-4.1327,-4.1327,-4.1327,-4.1327,-4.125,-4.1172,-4.1172,-4.1855,-4.2324,-4.2324,-4.3105,-4.3594,-4.3594,-4.3672,-4.3711,-4.3711,-4.3711,-4.3711,-4.3711,-4.3711,-4.3711,-4.3711,-4.3711,-4.3906,-4.4277,-4.4355,-4.459,-3.2353,-3.2785,-3.3211,-3.3338,-3.3378,-3.3378,-3.3378,-3.2968,-3.2654,-3.2654,-3.1994,-3.1316,-3.09,-3.0817,-3.0817,-3.0817,-3.0817,-3.0817,-3.0817,-3.0817,-3.0817,-3.0817,-3.0817,-3.0817,-3.0817,-3.0817,-3.0817,-3.0817,-3.0817,-3.0817,-3.0817,-3.0817,-3.0817,-3.0817,-3.0817,-3.0817,-3.0817,-3.0817,-3.0817,-3.0817,-3.0817,-3.0817,-3.0817,-3.0817,-3.0817,-3.0817,-3.0817,-3.0817,-3.0817,-3.1233,-3.1482,-3.1565,-3.2324,-3.2736,-3.2819,-3.323,-3.3476,-3.3492,-3.3492,-3.3492,-3.3492,-3.3492,-3.3492,-3.3492,-3.3492,-3.3492,-3.3492,-3.3492,-3.3558,-3.364,-3.4049,-3.4213,-3.4621,-3.5855,-3.6483,-3.7028,-3.7924,-3.9035,-3.9823,-3.9902,-4.0529,-4.1094,-4.1172,-4.1483,-4.1695,-4.1695,-4.1695,-4.1695,-4.1695,-4.1405,-4.1172,-4.1172,-4.1601,-4.1894,-4.1894,-4.2676,-4.3164,-4.3164,-4.3496,-4.3711,-4.3711,-4.3711,-4.3711,-4.3711,-4.3711,-4.3711,-4.3711,-4.3711,-4.373,-4.3808,-4.4219,-4.4433,-3.357,-3.3598,-3.3386,-3.4329,-3.4213,-3.3888,-3.3888,-3.3597,-3.3275,-3.3224,-3.293,-3.2422,-3.1715,-3.1579,-3.1579,-3.1579,-3.1579,-3.1497,-3.1233,-3.115,-3.1067,-3.0817,-3.0817,-3.0817,-3.0817,-3.0817,-3.0817,-3.0817,-3.0817,-3.0817,-3.0817,-3.0817,-3.0817,-3.0817,-3.0817,-3.0817,-3.0817,-3.0817,-3.0817,-3.0817,-3.0817,-3.0817,-3.0817,-3.0817,-3.0817,-3.0817,-3.0817,-3.0817,-3.0817,-3.0984,-3.1414,-3.1911,-3.2339,-3.2752,-3.323,-3.3394,-3.3492,-3.3492,-3.3492,-3.3492,-3.3492,-3.3492,-3.3492,-3.3492,-3.3492,-3.3492,-3.3492,-3.3492,-3.3492,-3.3558,-3.3722,-3.3968,-3.4294,-3.519,-3.6063,-3.6947,-3.7845,-3.9035,-4.0137,-4.0841,-4.123,-4.1618,-4.185,-4.2005,-4.2159,-4.2159,-4.2159,-4.2082,-4.185,-4.1618,-4.1483,-4.125,-4.1543,-4.1797,-4.1797,-4.2363,-4.2715,-4.2715,-4.3125,-4.3242,-4.2988,-4.3457,-4.3594,-4.3359,-4.3594,-4.3711,-4.3711,-4.3711,-4.3711,-4.3711,-4.3906,-4.4004,-3.3692,-3.3941,-3.3913,-3.4988,-3.5029,-3.4752,-3.4705,-3.4446,-3.4171,-3.412,-3.393,-3.3548,-3.2849,-3.2628,-3.2489,-3.2489,-3.2422,-3.2257,-3.1911,-3.1745,-3.1497,-3.1067,-3.0984,-3.09,-3.0832,-3.0817,-3.0817,-3.0817,-3.0817,-3.0817,-3.0817,-3.0817,-3.0817,-3.0817,-3.0817,-3.0817,-3.0817,-3.0817,-3.0817,-3.0817,-3.0817,-3.0817,-3.0817,-3.0817,-3.0817,-3.0817,-3.0817,-3.0817,-3.0832,-3.09,-3.1414,-3.2009,-3.2174,-3.2587,-3.3164,-3.3328,-3.3328,-3.3312,-3.3492,-3.3492,-3.3492,-3.3492,-3.3492,-3.3492,-3.3492,-3.3492,-3.3492,-3.3492,-3.3492,-3.3492,-3.3492,-3.364,-3.3886,-3.4376,-3.5416,-3.6769,-3.8304,-3.943,-4.0529,-4.1773,-4.1927,-4.2082,-4.237,-4.2447,-4.2524,-4.2524,-4.2524,-4.237,-4.2005,-4.185,-4.1618,-4.125,-4.1445,-4.1641,-4.1641,-4.2031,-4.2266,-4.2266,-4.2676,-4.2773,-4.2441,-4.3047,-4.3281,-4.3086,-4.3379,-4.3594,-4.3711,-4.3711,-4.3711,-4.3711,-4.3711,-4.3711,-3.1343,-3.2773,-3.4107,-3.4685,-3.5635,-3.6425,-3.6183,-3.5764,-3.5435,-3.5375,-3.4827,-3.4295,-3.4233,-3.3742,-3.3444,-3.3444,-3.305,-3.2736,-3.2736,-3.2422,-3.2009,-3.1482,-3.1482,-3.1316,-3.0817,-3.0817,-3.0817,-3.0817,-3.0817,-3.0817,-3.0817,-3.0817,-3.0817,-3.0817,-3.0817,-3.0817,-3.0817,-3.0817,-3.0817,-3.0817,-3.0817,-3.0817,-3.0817,-3.0817,-3.0817,-3.0817,-3.0817,-3.0817,-3.0817,-3.1316,-3.1482,-3.1565,-3.2009,-3.2257,-3.2339,-3.2654,-3.2819,-3.2901,-3.3328,-3.3492,-3.3492,-3.3492,-3.3492,-3.3492,-3.3492,-3.3492,-3.3492,-3.3492,-3.3492,-3.3492,-3.3492,-3.3148,-3.2983,-3.3492,-3.4523,-3.6351,-3.9629,-4.0744,-4.1308,-4.2216,-4.237,-4.237,-4.237,-4.2697,-4.2927,-4.2927,-4.2927,-4.2851,-4.2447,-4.2082,-4.1618,-4.125,-4.1191,-4.1211,-4.1211,-4.1582,-4.1836,-4.1836,-4.2226,-4.2461,-4.2422,-4.2461,-4.2676,-4.3066,-4.3105,-4.3301,-4.3711,-4.3711,-4.3711,-4.3711,-4.3711,-4.3711,-3.1281,-3.2339,-3.3231,-3.4591,-3.5048,-3.5154,-3.5429,-3.5318,-3.5275,-3.5539,-3.5362,-3.52,-3.5461,-3.4463,-3.3611,-3.3611,-3.3531,-3.3291,-3.297,-3.2757,-3.2492,-3.1987,-3.1939,-3.1911,-3.1662,-3.1414,-3.1233,-3.1233,-3.0984,-3.0817,-3.0817,-3.0817,-3.0817,-3.0817,-3.0817,-3.0817,-3.0817,-3.0817,-3.0817,-3.0817,-3.0817,-3.0817,-3.0817,-3.0817,-3.0817,-3.0817,-3.0817,-3.0817,-3.0817,-3.0984,-3.1233,-3.1482,-3.1662,-3.1926,-3.2257,-3.2339,-3.2422,-3.2422,-3.2587,-3.267,-3.267,-3.267,-3.267,-3.267,-3.267,-3.267,-3.267,-3.267,-3.267,-3.267,-3.267,-3.2752,-3.323,-3.4767,-3.6368,-3.8109,-4.0412,-4.0977,-4.1463,-4.2544,-4.2774,-4.2851,-4.3157,-4.331,-4.3386,-4.3386,-4.3386,-4.3233,-4.2851,-4.2447,-4.2005,-4.1618,-4.1327,-4.1172,-4.1172,-4.1308,-4.1387,-4.1387,-4.1797,-4.1894,-4.1641,-4.2148,-4.25,-4.2656,-4.293,-4.3281,-4.3711,-4.3711,-4.3711,-4.3711,-4.3711,-4.3711,-3.058,-3.1741,-3.2913,-3.4758,-3.4719,-3.455,-3.604,-3.5762,-3.5319,-3.6085,-3.6095,-3.6092,-3.6381,-3.5267,-3.4348,-3.4525,-3.4418,-3.4183,-3.3694,-3.3495,-3.321,-3.2759,-3.267,-3.2612,-3.2407,-3.1994,-3.1647,-3.1482,-3.1067,-3.0817,-3.0817,-3.0817,-3.0817,-3.0817,-3.0817,-3.0817,-3.0817,-3.0817,-3.0817,-3.0817,-3.0817,-3.0817,-3.0817,-3.0817,-3.0817,-3.0817,-3.0817,-3.0817,-3.0817,-3.0817,-3.0984,-3.1233,-3.1233,-3.1497,-3.176,-3.1926,-3.2009,-3.2009,-3.2174,-3.2174,-3.2174,-3.2174,-3.2174,-3.2174,-3.2174,-3.2174,-3.2257,-3.2339,-3.2422,-3.2505,-3.2752,-3.3148,-3.3952,-3.5804,-3.749,-3.9059,-4.0958,-4.1443,-4.185,-4.3004,-4.3157,-4.331,-4.3539,-4.3615,-4.3615,-4.3615,-4.3615,-4.3462,-4.3004,-4.2621,-4.2216,-4.185,-4.1483,-4.1172,-4.1172,-4.1172,-4.1172,-4.1172,-4.1426,-4.1465,-4.1191,-4.1699,-4.207,-4.2207,-4.2637,-4.3066,-4.3496,-4.3633,-4.3711,-4.3711,-4.3711,-4.3711,0.0,0.0,0.0,-3.5089,-3.4786,-3.4785,-3.8005,-3.709,-3.5865,-3.7066,-3.7051,-3.6793,-3.6775,-3.6182,-3.5764,-3.6095,-3.5772,-3.5305,-3.4915,-3.4541,-3.4125,-3.3676,-3.3644,-3.3387,-3.2936,-3.2376,-3.1948,-3.1565,-3.1067,-3.0817,-3.0817,-3.0817,-3.0817,-3.0817,-3.0817,-3.0817,-3.0817,-3.0817,-3.0817,-3.0817,-3.0817,-3.0817,-3.0817,-3.0817,-3.0817,-3.0817,-3.0817,-3.0817,-3.0817,-3.0817,-3.0817,-3.0817,-3.0817,-3.0817,-3.0832,-3.1316,-3.1482,-3.1565,-3.2009,-3.2174,-3.2174,-3.2174,-3.2174,-3.2174,-3.2174,-3.2174,-3.2257,-3.2654,-3.2819,-3.2983,-3.3886,-3.4523,-3.5156,-3.6448,-3.7711,-3.9276,-4.1443,-4.2159,-4.2677,-4.3462,-4.3615,-4.3615,-4.3615,-4.3615,-4.3615,-4.3615,-4.3615,-4.3462,-4.3081,-4.2697,-4.2293,-4.185,-4.1483,-4.1172,-4.1172,-4.1172,-4.1172,-4.1172,-4.1172,-4.1172,-4.1172,-4.1172,-4.1367,-4.1797,-4.2207,-4.2637,-4.3086,-4.3496,-4.3711,-4.3711,-4.3711,-4.3711,-2.9813,0.0,0.0,0.0,0.0,0.0,-3.4964,-3.5431,-3.5656,-3.6063,-3.6483,-3.6727,-3.6353,-3.608,-3.601,-3.6088,-3.5569,-3.5117,-3.4947,-3.4811,-3.4728,-3.4581,-3.4306,-3.415,-3.4257,-3.3322,-3.262,-3.2474,-3.173,-3.115,-3.0817,-3.0817,-3.0817,-3.0817,-3.0817,-3.0817,-3.0817,-3.0817,-3.0817,-3.0817,-3.0817,-3.0817,-3.0817,-3.0817,-3.0817,-3.0817,-3.0817,-3.0817,-3.0817,-3.0817,-3.0817,-3.0817,-3.0817,-3.0817,-3.0817,-3.0984,-3.0984,-3.0984,-3.1164,-3.1164,-3.1164,-3.1164,-3.1414,-3.1662,-3.1662,-3.2159,-3.267,-3.2736,-3.305,-3.3542,-3.436,-3.5399,-3.6529,-3.7809,-3.9295,-4.1016,-4.3019,-4.3345,-4.331,-4.3539,-4.3615,-4.3615,-4.3615,-4.3615,-4.3615,-4.3615,-4.3615,-4.3539,-4.3462,-4.3081,-4.2697,-4.2293,-4.185,-4.156,-4.125,-4.1172,-4.1172,-4.1172,-4.1172,-4.1172,-4.1172,-4.1172,-4.1367,-4.1797,-4.1914,-4.2344,-4.3086,-4.3496,-4.3711,-4.3711,-4.3711,-4.3711,-3.1171,-3.1862,-3.2763,-3.3703,0.0,0.0,-3.5718,-3.5688,-3.5519,-3.6795,-3.7243,-3.7404,-3.7151,-3.6952,-3.681,-3.681,-3.6334,-3.576,-3.5265,-3.5168,-3.5139,-3.5157,-3.4946,-3.4848,-3.5049,-3.407,-3.3419,-3.3385,-3.2422,-3.158,-3.115,-3.09,-3.0817,-3.0817,-3.0817,-3.0817,-3.0817,-3.0817,-3.0817,-3.0817,-3.0817,-3.0817,-3.0817,-3.0817,-3.0817,-3.0817,-3.0817,-3.0817,-3.0817,-3.0817,-3.0817,-3.0817,-3.0817,-3.0817,-3.0817,-3.0817,-3.09,-3.1067,-3.1067,-3.1248,-3.1414,-3.1579,-3.1828,-3.2061,-3.2309,-3.2803,-3.3378,-3.3542,-3.4343,-3.5237,-3.5948,-3.7072,-3.8347,-3.961,-4.1152,-4.2846,-4.4494,-4.5116,-4.5159,-4.4504,-4.3898,-4.3615,-4.3615,-4.3615,-4.3615,-4.3615,-4.3615,-4.3615,-4.3615,-4.3233,-4.2927,-4.2697,-4.2313,-4.1927,-4.1463,-4.1483,-4.1405,-4.1172,-4.1172,-4.1172,-4.1172,-4.1172,-4.1289,-4.1543,-4.1699,-4.2129,-4.2812,-4.3242,-4.3437,-4.3437,-4.3262,-4.3262,-3.3143,-3.3561,-3.4502,-3.6279,-3.5025,0.0,-3.7929,-3.6786,-3.5602,-3.7775,-3.8098,-3.7922,-3.7882,-3.767,-3.7505,-3.7445,-3.7233,-3.6724,-3.5759,-3.5653,-3.5645,-3.5555,-3.5571,-3.5503,-3.5597,-3.4796,-3.4261,-3.4362,-3.3065,-3.2119,-3.1632,-3.1233,-3.09,-3.09,-3.0817,-3.0817,-3.0817,-3.0817,-3.0817,-3.0817,-3.0817,-3.0817,-3.09,-3.0817,-3.0817,-3.09,-3.0817,-3.0817,-3.09,-3.09,-3.09,-3.0832,-3.0832,-3.09,-3.09,-3.0984,-3.1316,-3.1647,-3.173,-3.1994,-3.2422,-3.2819,-3.2983,-3.3148,-3.3526,-3.4017,-3.4506,-3.4994,-3.6368,-3.7649,-3.8127,-3.9235,-4.049,-4.1636,-4.3151,-4.4666,-4.5915,-4.7045,-4.7434,-4.6129,-4.4934,-4.4125,-4.4125,-4.3974,-4.3822,-4.3822,-4.3691,-4.3615,-4.3615,-4.331,-4.3004,-4.3004,-4.2697,-4.2293,-4.185,-4.1773,-4.1618,-4.125,-4.1172,-4.1172,-4.1172,-4.1172,-4.1172,-4.1172,-4.1582,-4.1992,-4.2363,-4.2793,-4.3008,-4.2988,-4.2617,-4.2637,-3.5809,-3.6227,-3.6724,-3.526,-3.6227,0.0,-3.4543,-3.5401,-3.6232,-3.4551,-3.4598,-3.4853,-3.4519,-3.5119,-3.5569,-3.5119,-3.587,-3.6456,-3.6483,-3.6437,-3.6352,-3.6021,-3.5699,-3.5777,-3.6422,-3.5464,-3.4911,-3.5123,-3.3961,-3.3014,-3.2556,-3.2061,-3.1715,-3.1399,-3.0984,-3.0817,-3.0817,-3.0817,-3.0817,-3.0817,-3.0817,-3.0984,-3.1316,-3.0984,-3.0984,-3.1316,-3.0984,-3.0984,-3.1399,-3.1715,-3.1399,-3.0817,-3.1233,-3.1399,-3.1482,-3.2159,-3.2489,-3.2572,-3.2968,-3.3198,-3.3296,-3.369,-3.4099,-3.4506,-3.4913,-3.5561,-3.6368,-3.7188,-3.8365,-3.9393,-3.955,-4.0724,-4.2119,-4.3019,-4.4482,-4.6129,-4.7945,-4.8236,-4.8381,-4.9008,-4.819,-4.7389,-4.7389,-4.6285,-4.5415,-4.5415,-4.4407,-4.3615,-4.3615,-4.3539,-4.3386,-4.3004,-4.2927,-4.2621,-4.185,-4.1773,-4.1618,-4.125,-4.1172,-4.1172,-4.1172,-4.1172,-4.1172,-4.1172,-4.1582,-4.1836,-4.1933,-4.2344,-4.2558,-4.2558,-4.2461,-4.248,-3.7892,-3.7848,-3.8161,-3.756,-3.7639,0.0,0.0,-3.6374,-3.6374,-3.6657,-3.5624,-3.4984,-3.5591,-3.5759,-3.5736,-3.579,-3.6436,-3.6967,-3.7087,-3.6789,-3.6475,-3.6294,-3.6278,-3.6431,-3.6918,-3.6106,-3.5483,-3.5427,-3.4864,-3.4329,-3.4147,-3.3272,-3.278,-3.2788,-3.2376,-3.1896,-3.1482,-3.1482,-3.1233,-3.0817,-3.0817,-3.09,-3.115,-3.1399,-3.1565,-3.1798,-3.2046,-3.2376,-3.2788,-3.3034,-3.2936,-3.269,-3.2541,-3.2623,-3.287,-3.3296,-3.3706,-3.4099,-3.4343,-3.4588,-3.4913,-3.548,-3.5884,-3.6207,-3.6832,-3.7631,-3.8444,-3.9314,-4.0334,-4.1191,-4.1424,-4.2503,-4.3822,-4.4633,-4.5959,-4.7603,-4.9198,-4.9771,-5.034,-5.1257,-5.0952,-5.008,-4.8552,-4.7608,-4.7096,-4.7096,-4.6455,-4.5639,-4.4838,-4.4762,-4.4407,-4.3386,-4.331,-4.3081,-4.2467,-4.2236,-4.1927,-4.154,-4.1327,-4.1172,-4.1172,-4.1172,-4.1172,-4.1172,-4.1387,-4.1484,-4.1484,-4.1699,-4.1914,-4.2109,-4.1894,-4.1914,-4.0366,-4.0043,-4.0226,-4.0252,-3.9364,-3.8558,0.0,0.0,0.0,-3.8586,-3.6949,-3.562,-3.7051,-3.6549,-3.6048,-3.6407,-3.6881,-3.7038,-3.6711,-3.6383,-3.6362,-3.6521,-3.6851,-3.714,-3.741,-3.6582,-3.6028,-3.5962,-3.5674,-3.5587,-3.5774,-3.476,-3.4338,-3.4537,-3.4213,-3.3592,-3.2772,-3.2772,-3.2376,-3.155,-3.155,-3.1632,-3.1715,-3.2376,-3.2772,-3.2854,-3.3674,-3.4246,-3.4571,-3.4815,-3.5042,-3.5383,-3.4343,-3.418,-3.449,-3.4734,-3.5302,-3.5948,-3.6109,-3.6368,-3.685,-3.7649,-3.7968,-3.8206,-3.898,-3.9786,-4.0568,-4.1268,-4.2119,-4.2907,-4.3269,-4.4256,-4.533,-4.6151,-4.7383,-4.8743,-5.0056,-5.1071,-5.203,-5.2792,-5.2929,-5.2119,-4.9652,-4.8912,-4.8768,-4.8768,-4.848,-4.7827,-4.6507,-4.6359,-4.5862,-4.4633,-4.4482,-4.418,-4.3518,-4.3136,-4.26,-4.185,-4.1483,-4.1327,-4.1327,-4.1327,-4.125,-4.1172,-4.1172,-4.1172,-4.1172,-4.1172,-4.1348,-4.168,-4.1328,-4.1348,-4.4398,-4.48,-4.4643,-4.0697,-4.1821,-4.2239,-3.5817,0.0,-3.6981,-3.4831,0.0,-3.459,-3.4796,0.0,0.0,-3.41,-3.4977,-3.5211,-3.3728,-3.4773,-3.5992,-3.6725,-3.6788,-3.712,-3.8061,-3.675,-3.6298,-3.7377,-3.6493,-3.6271,-3.692,-3.688,-3.6648,-3.6307,-3.5903,-3.5511,-3.5025,-3.5025,-3.4799,-3.4246,-3.4246,-3.449,-3.4896,-3.4961,-3.5204,-3.5544,-3.5689,-3.6011,-3.6494,-3.7197,-3.7755,-3.795,-3.6351,-3.5706,-3.5948,-3.7152,-3.7631,-3.7809,-3.8524,-3.8761,-3.8998,-3.9864,-4.0412,-4.0783,-4.1249,-4.1733,-4.2216,-4.2657,-4.367,-4.4579,-4.4579,-4.548,-4.6596,-4.7406,-4.8209,-4.927,-5.0789,-5.1446,-5.203,-5.2792,-5.2929,-5.2792,-5.2421,-5.1233,-5.0339,-5.0339,-4.92,-4.8263,-4.8045,-4.8045,-4.7972,-4.7754,-4.7754,-4.7023,-4.5191,-4.5041,-4.4063,-4.1927,-4.1773,-4.1695,-4.1695,-4.1695,-4.154,-4.1172,-4.1172,-4.1172,-4.1172,-4.1172,-4.1191,-4.125,-4.1191,-4.1191,-4.4116,-4.4591,-4.4774,-4.1821,-4.1951,-4.169,-3.7508,-3.6724,-3.6802,-3.6593,0.0,0.0,0.0,0.0,0.0,0.0,-3.4608,-3.4455,-3.3885,-3.4285,-3.4899,-3.5596,-3.5859,-3.6246,-3.7019,-3.709,-3.7276,-3.758,-3.775,-3.8194,-3.9094,-3.8724,-3.8783,-3.9433,-3.885,-3.8194,-3.756,-3.756,-3.7082,-3.6138,-3.6138,-3.6218,-3.6477,-3.7179,-3.7657,-3.7816,-3.8609,-3.916,-3.9651,-3.9964,-4.051,-4.1055,-4.0588,-3.9651,-3.8743,-3.9531,-3.9924,-4.0218,-4.0783,-4.1035,-4.1113,-4.1733,-4.2406,-4.2943,-4.3421,-4.3801,-4.418,-4.4633,-4.5234,-4.5928,-4.6151,-4.6891,-4.7794,-4.8282,-4.9005,-4.9866,-5.1,-5.1516,-5.203,-5.2792,-5.2929,-5.2929,-5.2929,-5.2327,-5.1956,-5.1956,-5.1397,-5.067,-4.9771,-4.9629,-4.9271,-4.8407,-4.8335,-4.7972,-4.7096,-4.678,-4.5819,-4.3911,-4.2734,-4.2159,-4.2159,-4.1927,-4.1695,-4.156,-4.1327,-4.1172,-4.1172,-4.1172,-4.1172,-4.1172,-4.1172,-4.1172,-4.542,-4.5684,-4.5709,-4.2498,-4.1507,-4.0697,-3.8318,-3.7403,-3.7299,-3.8083,-3.756,0.0,0.0,0.0,-3.5103,-3.5051,0.0,-3.4135,-3.3558,-3.355,-3.3896,-3.4844,-3.5443,-3.5945,-3.6308,-3.6818,-3.7383,-3.7888,-3.8415,-3.9412,-4.0822,-4.0619,-4.0946,-4.2133,-4.1779,-4.1271,-4.0569,-4.0763,-4.0278,-3.9262,-3.9262,-3.9262,-3.9262,-4.0356,-4.0822,-4.0822,-4.1942,-4.2596,-4.2826,-4.2978,-4.3359,-4.3966,-4.4365,-4.3608,-4.2309,-4.2176,-4.233,-4.2616,-4.3019,-4.3192,-4.3421,-4.3877,-4.4407,-4.4934,-4.5459,-4.5832,-4.6129,-4.6522,-4.6965,-4.7332,-4.7626,-4.8136,-4.8812,-4.915,-4.9795,-5.0459,-5.1236,-5.1656,-5.2169,-5.2792,-5.2929,-5.2929,-5.2929,-5.2929,-5.2929,-5.2929,-5.2929,-5.2491,-5.1373,-5.1233,-5.0787,-4.9652,-4.9581,-4.9415,-4.8984,-4.8601,-4.7708,-4.6041,-4.4214,-4.3192,-4.304,-4.237,-4.1927,-4.1773,-4.1405,-4.1172,-4.1172,-4.1172,-4.1172,-4.1172,-4.1172,-4.1172,-5.0594,-5.0256,-4.9027,-4.2176,-4.0906,-4.0278,-3.6305,-3.7534,-3.9024,-3.7403,-3.9233,-4.0461,-3.8292,-3.7351,-3.6384,-3.4685,-3.492,0.0,0.0,-3.2058,-3.3375,-3.508,-3.6206,-3.68,-3.6616,-3.5573,-3.6028,-3.8733,-3.8272,-3.908,-4.1896,-4.2637,-4.3259,-4.3883,-4.4617,-4.4755,-4.4292,-4.4816,-4.4902,-4.4452,-4.4452,-4.4452,-4.4452,-4.4902,-4.5127,-4.5127,-4.5543,-4.5766,-4.5766,-4.6233,-4.6359,-4.6433,-4.6824,-4.6971,-4.6751,-4.5191,-4.4687,-4.4762,-4.5159,-4.5555,-4.5928,-4.6374,-4.6522,-4.667,-4.7361,-4.7631,-4.7726,-4.8159,-4.8572,-4.8838,-4.8838,-4.9126,-4.958,-4.9961,-5.0388,-5.0884,-5.1611,-5.2099,-5.2515,-5.2861,-5.2929,-5.2929,-5.2929,-5.2929,-5.2929,-5.2929,-5.2929,-5.2861,-5.2861,-5.2861,-5.2792,-5.2792,-5.2792,-5.2119,-5.0646,-5.0481,-4.9677,-4.7636,-4.6041,-4.502,-4.4666,-4.3192,-4.2216,-4.185,-4.1405,-4.1172,-4.1172,-4.1172,-4.1172,-4.1172,-4.1172,-4.1172,-5.1654,-5.1372,-5.0254,-4.5221,-4.3218,-4.1376,-3.7351,-3.8083,-3.8998,-3.6854,-3.9024,-4.0618,-3.8318,-3.709,-3.6096,-3.5155,-3.4188,-3.3091,0.0,-3.185,-3.2319,-3.2894,-3.4186,-3.4815,-3.4403,-3.533,-3.6372,-3.735,-3.8311,-3.9896,-4.2347,-4.2818,-4.3827,-4.5818,-4.5897,-4.6008,-4.6291,-4.6472,-4.6555,-4.6486,-4.6486,-4.6665,-4.7073,-4.7512,-4.7658,-4.7658,-4.8118,-4.8286,-4.8286,-4.843,-4.8647,-4.8887,-4.9031,-4.9246,-4.9223,-4.7411,-4.6898,-4.7192,-4.7872,-4.8236,-4.8308,-4.8453,-4.867,-4.8982,-4.9175,-4.9462,-4.9676,-4.9771,-4.9914,-5.0127,-5.034,-5.0506,-5.0718,-5.1095,-5.1306,-5.1586,-5.2099,-5.2308,-5.2515,-5.2861,-5.2929,-5.2929,-5.2929,-5.2929,-5.2929,-5.2929,-5.2929,-5.2929,-5.2929,-5.2929,-5.2929,-5.2929,-5.2929,-5.2698,-5.2189,-5.1163,-5.0339,-4.9605,-4.8167,-4.7243,-4.7073,-4.6263,-4.567,-4.5341,-4.4945,-4.4042,-4.2734,-4.2734,-4.2216,-4.1172,-4.1172,-4.1172,-5.3617,-5.3133,-5.2156,-4.8104,-4.6113,-4.4098,-3.9847,-4.042,-4.102,-3.8201,-3.9599,-4.0984,-3.9913,-3.8083,-3.6567,-3.5992,-3.4424,-3.2881,0.0,-3.1548,-3.1548,-3.1548,-3.2684,-3.3471,-3.3208,-3.454,-3.5715,-3.6555,-3.8001,-3.9805,-4.2062,-4.2996,-4.4363,-4.64,-4.6867,-4.7322,-4.7903,-4.8161,-4.8378,-4.8662,-4.8662,-4.8992,-4.951,-4.9819,-4.9961,-4.9961,-5.0198,-5.034,-5.034,-5.034,-5.0482,-5.0718,-5.0718,-5.086,-5.0835,-4.9318,-4.8887,-4.9175,-4.9676,-4.989,-4.989,-5.0032,-5.0269,-5.0482,-5.0648,-5.086,-5.1,-5.1,-5.1,-5.1071,-5.1376,-5.1446,-5.1516,-5.1751,-5.189,-5.2099,-5.2377,-5.2515,-5.2654,-5.2861,-5.2929,-5.2929,-5.2929,-5.2929,-5.2929,-5.2929,-5.2929,-5.2929,-5.2929,-5.2929,-5.2929,-5.2929,-5.2929,-5.2929,-5.2929,-5.198,-5.1443,-5.1443,-5.0009,-4.9128,-4.9128,-4.8144,-4.749,-4.7316,-4.678,-4.5596,-4.3739,-4.3608,-4.281,-4.1405,-4.1405,-4.1405]},{"header":{"parameterUnit":"m.s-1","parameterCategory":1,"la1":30.6,"la2":29.2853,"lo1":-89.7004,"lo2":-87.6739,"dy":0.0162,"dx":0.0183,"nx":112,"ny":82,"refTime":"2024-09-07T00:00:00:Z","depth":0,"parameterNumber":3,"parameterNumberName":"V-component_of_WINDS"},"data":[0.0,0.0,0.0,0.0,0.0,0.0,0.0,0.0,0.0,0.0,0.0,0.0,0.0,0.0,0.0,0.0,0.0,0.0,0.0,0.0,0.0,0.0,0.0,0.0,0.0,0.0,0.0,0.0,0.0,0.0,0.0,0.0,0.0,0.0,0.0,0.0,0.0,0.0,0.0,0.0,0.0,0.0,0.0,0.0,0.0,0.0,0.0,0.0,0.0,0.0,0.0,0.0,0.0,0.0,0.0,0.0,0.0,0.0,0.0,0.0,0.0,0.0,0.0,0.0,0.0,0.0,0.0,0.0,0.0,0.0,0.0,0.0,0.0,0.0,0.0,0.0,0.0,0.0,0.0,0.0,0.0,0.0,0.0,0.0,0.0,0.0,0.0,0.0,0.0,0.0,5.9222,6.3906,6.9788,7.3709,7.4448,7.3476,6.8944,5.9878,0.0,0.0,0.0,0.0,0.0,0.0,0.0,0.0,0.0,0.0,0.0,0.0,0.0,0.0,0.0,0.0,0.0,0.0,0.0,0.0,0.0,0.0,0.0,0.0,0.0,0.0,0.0,0.0,0.0,0.0,0.0,0.0,0.0,0.0,0.0,0.0,0.0,0.0,0.0,0.0,0.0,0.0,0.0,0.0,0.0,0.0,0.0,0.0,0.0,0.0,0.0,0.0,0.0,0.0,0.0,0.0,0.0,0.0,0.0,0.0,0.0,0.0,0.0,0.0,0.0,0.0,0.0,0.0,0.0,0.0,0.0,0.0,0.0,0.0,0.0,0.0,0.0,0.0,0.0,0.0,0.0,0.0,0.0,0.0,0.0,0.0,0.0,0.0,0.0,0.0,0.0,0.0,0.0,0.0,0.0,0.0,0.0,0.0,0.0,0.0,0.0,0.0,0.0,0.0,5.9534,6.9567,7.2812,7.4353,7.449,7.2406,6.7988,6.0664,0.0,0.0,0.0,0.0,0.0,0.0,0.0,0.0,0.0,0.0,0.0,0.0,0.0,0.0,0.0,0.0,0.0,0.0,0.0,0.0,0.0,0.0,0.0,0.0,0.0,0.0,0.0,0.0,0.0,0.0,0.0,0.0,0.0,0.0,0.0,0.0,0.0,0.0,0.0,0.0,0.0,0.0,0.0,0.0,0.0,0.0,0.0,0.0,0.0,0.0,0.0,0.0,0.0,0.0,0.0,0.0,0.0,0.0,0.0,0.0,0.0,0.0,0.0,0.0,0.0,0.0,0.0,0.0,0.0,0.0,0.0,0.0,0.0,0.0,0.0,0.0,0.0,0.0,0.0,0.0,0.0,0.0,0.0,0.0,0.0,0.0,0.0,0.0,0.0,0.0,0.0,0.0,0.0,0.0,0.0,0.0,0.0,0.0,0.0,0.0,0.0,0.0,0.0,5.8059,6.3047,7.2378,7.4056,7.4494,7.451,7.2583,6.8052,6.0181,5.6421,0.0,0.0,0.0,0.0,0.0,0.0,0.0,0.0,0.0,0.0,0.0,0.0,0.0,0.0,0.0,0.0,0.0,0.0,0.0,0.0,0.0,0.0,0.0,0.0,0.0,0.0,0.0,0.0,0.0,0.0,0.0,0.0,0.0,0.0,0.0,0.0,0.0,0.0,0.0,0.0,0.0,0.0,0.0,0.0,0.0,0.0,0.0,0.0,0.0,0.0,0.0,0.0,0.0,0.0,0.0,0.0,0.0,0.0,0.0,0.0,0.0,0.0,0.0,0.0,0.0,0.0,0.0,0.0,0.0,0.0,0.0,0.0,0.0,0.0,0.0,0.0,0.0,0.0,0.0,0.0,0.0,0.0,0.0,0.0,0.0,0.0,0.0,0.0,0.0,0.0,0.0,0.0,0.0,0.0,0.0,0.0,0.0,0.0,0.0,0.0,0.0,0.0,6.3711,6.6795,7.351,7.4212,7.4212,7.4212,7.1948,6.7224,5.9571,5.4303,0.0,0.0,0.0,0.0,0.0,0.0,0.0,0.0,0.0,0.0,0.0,0.0,0.0,0.0,0.0,0.0,0.0,0.0,0.0,0.0,0.0,0.0,0.0,0.0,0.0,0.0,0.0,0.0,0.0,0.0,0.0,0.0,0.0,0.0,0.0,0.0,0.0,0.0,0.0,0.0,0.0,0.0,0.0,0.0,0.0,0.0,0.0,0.0,0.0,0.0,0.0,0.0,0.0,0.0,0.0,0.0,0.0,0.0,0.0,0.0,0.0,0.0,0.0,0.0,0.0,0.0,0.0,0.0,0.0,0.0,0.0,0.0,0.0,0.0,0.0,0.0,0.0,0.0,0.0,0.0,0.0,0.0,0.0,0.0,0.0,0.0,0.0,0.0,0.0,0.0,0.0,0.0,0.0,0.0,0.0,0.0,0.0,0.0,0.0,0.0,0.0,0.0,6.4297,6.9176,7.2963,7.3393,7.3393,7.3393,6.8864,6.4062,5.9375,5.2075,0.0,0.0,0.0,0.0,0.0,0.0,0.0,0.0,0.0,0.0,0.0,0.0,0.0,0.0,0.0,0.0,0.0,0.0,0.0,0.0,0.0,0.0,0.0,0.0,0.0,0.0,0.0,0.0,0.0,0.0,0.0,0.0,0.0,0.0,0.0,0.0,0.0,0.0,0.0,0.0,0.0,0.0,0.0,0.0,0.0,0.0,0.0,0.0,0.0,0.0,0.0,0.0,0.0,0.0,0.0,0.0,0.0,0.0,0.0,0.0,0.0,0.0,0.0,0.0,0.0,0.0,0.0,0.0,0.0,0.0,0.0,0.0,0.0,0.0,0.0,0.0,0.0,0.0,0.0,0.0,0.0,0.0,0.0,0.0,0.0,0.0,0.0,0.0,0.0,0.0,0.0,0.0,0.0,0.0,0.0,0.0,0.0,0.0,0.0,0.0,0.0,0.0,6.3477,6.8474,7.351,7.4056,7.4056,7.4056,7.0309,6.5429,5.9493,0.0,0.0,0.0,0.0,0.0,0.0,0.0,0.0,0.0,0.0,0.0,0.0,0.0,0.0,0.0,0.0,0.0,0.0,0.0,0.0,0.0,0.0,0.0,0.0,0.0,0.0,0.0,0.0,0.0,0.0,0.0,0.0,0.0,0.0,0.0,0.0,0.0,0.0,0.0,0.0,0.0,0.0,0.0,0.0,0.0,0.0,0.0,0.0,0.0,0.0,0.0,0.0,0.0,0.0,0.0,0.0,0.0,0.0,0.0,0.0,0.0,0.0,0.0,0.0,0.0,0.0,0.0,0.0,0.0,0.0,0.0,0.0,0.0,0.0,0.0,0.0,0.0,0.0,0.0,0.0,0.0,0.0,0.0,0.0,0.0,0.0,0.0,0.0,0.0,0.0,0.0,0.0,0.0,0.0,0.0,0.0,0.0,0.0,0.0,0.0,0.0,0.0,5.8126,6.3867,6.8981,7.3627,7.4134,7.4017,7.3744,6.9801,6.4765,5.8675,0.0,0.0,0.0,0.0,0.0,0.0,0.0,0.0,0.0,0.0,0.0,0.0,0.0,0.0,0.0,0.0,0.0,0.0,0.0,0.0,0.0,0.0,0.0,0.0,0.0,0.0,0.0,0.0,0.0,0.0,0.0,0.0,0.0,0.0,0.0,0.0,0.0,0.0,0.0,0.0,0.0,0.0,0.0,0.0,0.0,0.0,0.0,0.0,0.0,0.0,0.0,0.0,0.0,0.0,0.0,0.0,0.0,0.0,0.0,0.0,0.0,0.0,0.0,0.0,0.0,0.0,0.0,0.0,0.0,0.0,0.0,0.0,0.0,0.0,0.0,0.0,0.0,0.0,0.0,0.0,0.0,0.0,0.0,0.0,0.0,0.0,0.0,0.0,0.0,0.0,0.0,0.0,0.0,0.0,0.0,0.0,0.0,0.0,0.0,0.0,0.0,0.0,5.8436,6.5895,7.136,7.3156,7.3312,7.2963,7.2104,6.6483,6.1213,0.0,0.0,0.0,0.0,0.0,0.0,0.0,0.0,0.0,0.0,0.0,0.0,0.0,0.0,0.0,0.0,0.0,0.0,0.0,0.0,0.0,0.0,0.0,0.0,0.0,0.0,0.0,0.0,0.0,0.0,0.0,0.0,0.0,0.0,0.0,0.0,0.0,0.0,0.0,0.0,0.0,0.0,0.0,0.0,0.0,0.0,0.0,0.0,0.0,0.0,0.0,0.0,0.0,0.0,0.0,0.0,0.0,0.0,0.0,0.0,0.0,0.0,0.0,0.0,0.0,0.0,0.0,0.0,0.0,0.0,0.0,0.0,0.0,0.0,0.0,0.0,0.0,0.0,0.0,0.0,0.0,0.0,0.0,0.0,0.0,0.0,0.0,0.0,0.0,0.0,0.0,0.0,0.0,0.0,0.0,0.0,0.0,0.0,0.0,0.0,0.0,0.0,0.0,5.9219,6.6759,7.242,7.4757,7.447,7.3822,7.3002,6.8474,6.3321,5.7777,0.0,0.0,0.0,0.0,0.0,0.0,0.0,0.0,0.0,0.0,0.0,0.0,0.0,0.0,0.0,0.0,0.0,0.0,0.0,0.0,0.0,0.0,0.0,0.0,0.0,0.0,0.0,0.0,0.0,0.0,0.0,0.0,0.0,0.0,0.0,0.0,0.0,0.0,0.0,0.0,0.0,0.0,0.0,0.0,0.0,0.0,0.0,0.0,0.0,0.0,0.0,0.0,0.0,0.0,0.0,0.0,0.0,0.0,0.0,0.0,0.0,0.0,0.0,0.0,0.0,0.0,0.0,0.0,0.0,0.0,0.0,0.0,0.0,0.0,0.0,0.0,0.0,0.0,0.0,0.0,0.0,0.0,0.0,0.0,0.0,0.0,0.0,0.0,0.0,0.0,0.0,0.0,0.0,0.0,0.0,0.0,0.0,0.0,0.0,0.0,0.0,0.0,6.0084,6.766,7.3286,7.5506,7.4981,7.4173,7.3354,6.9294,6.4219,5.8168,0.0,0.0,0.0,0.0,0.0,0.0,0.0,0.0,0.0,0.0,0.0,0.0,0.0,0.0,0.0,0.0,0.0,0.0,0.0,0.0,0.0,0.0,0.0,0.0,0.0,0.0,0.0,0.0,0.0,0.0,0.0,0.0,0.0,0.0,0.0,0.0,0.0,0.0,0.0,0.0,0.0,0.0,0.0,0.0,0.0,0.0,0.0,0.0,0.0,0.0,0.0,0.0,0.0,0.0,0.0,0.0,0.0,0.0,0.0,0.0,0.0,0.0,0.0,0.0,0.0,0.0,0.0,0.0,0.0,0.0,0.0,0.0,0.0,0.0,0.0,0.0,0.0,0.0,0.0,0.0,0.0,0.0,0.0,0.0,0.0,0.0,0.0,0.0,0.0,0.0,0.0,0.0,0.0,0.0,0.0,0.0,0.0,0.0,0.0,0.0,0.0,0.0,6.1044,6.8538,7.3966,7.5726,7.5065,7.417,7.3351,6.9372,6.4414,5.8519,0.0,0.0,0.0,0.0,0.0,0.0,0.0,0.0,0.0,0.0,0.0,0.0,0.0,0.0,0.0,0.0,0.0,0.0,0.0,0.0,0.0,0.0,0.0,0.0,0.0,0.0,0.0,0.0,0.0,0.0,0.0,0.0,0.0,0.0,0.0,0.0,0.0,0.0,0.0,0.0,0.0,0.0,0.0,0.0,0.0,0.0,0.0,0.0,0.0,0.0,0.0,0.0,0.0,0.0,0.0,0.0,0.0,0.0,0.0,0.0,5.4946,5.2656,0.0,0.0,0.0,0.0,0.0,0.0,0.0,0.0,0.0,0.0,0.0,0.0,0.0,0.0,0.0,0.0,0.0,0.0,0.0,0.0,0.0,0.0,0.0,0.0,0.0,0.0,0.0,0.0,0.0,0.0,0.0,0.0,0.0,0.0,0.0,0.0,0.0,0.0,0.0,0.0,6.1802,6.8722,7.3987,7.6409,7.5356,7.4183,7.339,6.9918,6.5819,6.1174,5.5864,0.0,0.0,0.0,0.0,0.0,0.0,0.0,0.0,0.0,0.0,0.0,0.0,0.0,0.0,0.0,0.0,0.0,0.0,0.0,0.0,0.0,0.0,0.0,0.0,0.0,0.0,0.0,0.0,0.0,0.0,0.0,0.0,0.0,0.0,0.0,0.0,0.0,0.0,0.0,0.0,0.0,0.0,0.0,0.0,0.0,0.0,0.0,0.0,0.0,0.0,0.0,0.0,0.0,0.0,0.0,0.0,0.0,0.0,0.0,5.9811,5.7927,0.0,0.0,0.0,0.0,0.0,0.0,0.0,0.0,0.0,0.0,0.0,0.0,0.0,0.0,0.0,0.0,0.0,0.0,0.0,0.0,0.0,0.0,0.0,0.0,0.0,0.0,0.0,0.0,0.0,0.0,0.0,0.0,0.0,0.0,0.0,0.0,0.0,0.0,0.0,0.0,6.3842,6.9946,7.4353,7.6142,7.5195,7.4095,7.3298,7.0372,6.7134,6.3698,5.9014,0.0,0.0,0.0,0.0,0.0,0.0,0.0,0.0,0.0,0.0,0.0,0.0,0.0,0.0,0.0,0.0,0.0,0.0,0.0,0.0,0.0,0.0,0.0,0.0,0.0,0.0,0.0,0.0,0.0,0.0,0.0,0.0,0.0,0.0,0.0,0.0,0.0,0.0,0.0,0.0,0.0,0.0,0.0,0.0,0.0,0.0,0.0,0.0,0.0,0.0,0.0,0.0,0.0,6.3591,6.4475,6.581,6.6637,6.7802,6.9031,6.4565,6.3747,6.5255,6.0494,0.0,0.0,0.0,0.0,0.0,0.0,0.0,0.0,0.0,0.0,0.0,0.0,0.0,0.0,0.0,0.0,0.0,0.0,0.0,0.0,0.0,0.0,5.9933,6.0121,6.162,6.1722,5.6973,0.0,0.0,0.0,0.0,0.0,0.0,0.0,0.0,0.0,0.0,0.0,6.5971,7.1317,7.484,7.5755,7.4988,7.4104,7.3375,7.092,6.846,6.6195,6.2435,5.8797,0.0,0.0,0.0,0.0,0.0,0.0,0.0,0.0,0.0,0.0,0.0,0.0,0.0,0.0,0.0,0.0,0.0,0.0,0.0,0.0,0.0,0.0,0.0,0.0,0.0,0.0,0.0,0.0,0.0,0.0,0.0,0.0,4.8229,5.0246,0.0,0.0,0.0,0.0,0.0,0.0,0.0,0.0,0.0,0.0,0.0,0.0,0.0,6.472,6.6331,6.795,6.8825,6.8975,7.0341,7.1139,7.1363,7.2171,7.3067,7.3914,7.2454,0.0,6.767,6.6878,0.0,0.0,0.0,0.0,0.0,0.0,0.0,0.0,0.0,0.0,0.0,0.0,0.0,0.0,0.0,0.0,0.0,0.0,0.0,0.0,0.0,0.0,6.7474,6.749,6.7757,6.7774,6.7054,6.0891,5.4805,5.2643,5.0443,4.8243,0.0,0.0,0.0,0.0,0.0,0.0,6.6641,7.1784,7.5362,7.631,7.5137,7.4288,7.4227,7.1811,6.9863,6.8772,6.6659,6.4188,6.146,5.8008,0.0,0.0,0.0,0.0,0.0,0.0,0.0,0.0,0.0,0.0,0.0,0.0,0.0,0.0,0.0,0.0,0.0,0.0,0.0,0.0,0.0,0.0,0.0,0.0,0.0,0.0,0.0,0.0,0.0,4.8808,5.2556,5.3898,5.4097,5.367,0.0,0.0,0.0,0.0,0.0,0.0,0.0,0.0,0.0,6.6155,6.7863,6.9484,7.0935,7.2156,7.2758,7.2758,7.3471,7.3813,7.3813,7.4654,7.5208,7.5606,7.5652,7.4505,7.2444,7.0111,6.7471,6.4645,0.0,0.0,0.0,0.0,6.1254,6.0928,6.1389,6.1222,6.0523,5.8698,0.0,0.0,0.0,0.0,0.0,0.0,0.0,5.8684,6.101,6.4541,6.7863,6.931,6.9995,7.0299,7.0334,6.7315,6.3431,5.9518,5.8619,5.6797,5.1356,5.167,0.0,0.0,0.0,6.4595,6.8826,7.2233,7.4417,7.4823,7.3855,7.2987,7.2531,7.1445,7.0427,6.9574,6.8297,6.6622,6.4493,6.1543,5.844,0.0,0.0,0.0,0.0,0.0,0.0,0.0,0.0,0.0,0.0,0.0,0.0,0.0,0.0,0.0,0.0,0.0,0.0,0.0,0.0,0.0,0.0,0.0,0.0,0.0,0.0,0.0,0.0,5.2821,5.6229,5.7215,5.8197,5.8174,0.0,0.0,0.0,0.0,0.0,0.0,6.4582,6.6169,6.816,7.068,7.218,7.3419,7.4402,7.5062,7.5391,7.5391,7.5391,7.5391,7.5391,7.6008,7.6301,7.6301,7.6924,7.6814,7.6032,7.2876,7.0834,6.9605,6.7835,6.6253,6.5153,6.7064,6.7166,6.6575,6.7503,6.7273,6.6111,6.3423,6.1318,5.9168,5.5794,0.0,0.0,0.0,0.0,6.0107,6.3389,6.5583,6.759,7.0115,7.1008,7.1444,7.1919,7.1995,7.0601,6.5847,6.56,6.4148,5.7728,5.7885,0.0,5.8615,6.2728,6.7218,7.1002,7.3058,7.4139,7.4139,7.3241,7.2379,7.1711,7.1248,7.0746,7.0129,6.927,6.8077,6.6536,6.4236,6.1808,5.9265,0.0,0.0,0.0,0.0,0.0,0.0,0.0,0.0,0.0,0.0,0.0,0.0,0.0,0.0,0.0,0.0,0.0,0.0,0.0,0.0,0.0,0.0,0.0,0.0,0.0,0.0,0.0,0.0,0.0,5.9454,6.1409,0.0,0.0,0.0,0.0,6.294,6.532,6.7975,7.0779,7.2512,7.3978,7.5228,7.6104,7.6578,7.6651,7.6688,7.6724,7.6724,7.6724,7.6724,7.6724,7.6761,7.6761,7.6797,7.6834,7.6797,7.672,7.6039,7.4556,7.2684,7.2696,7.1876,7.07,7.083,7.1291,7.1788,7.0896,7.0053,6.9533,7.0485,6.7819,6.3842,6.2069,6.0426,0.0,0.0,6.2496,6.4575,6.5464,6.7032,6.9,7.1496,7.1614,7.1617,7.3307,7.3706,7.2965,7.0421,6.8739,6.7343,6.6216,0.0,6.4509,6.5932,6.7865,7.0056,7.2587,7.4542,7.5695,7.5695,7.442,7.3536,7.3446,7.1942,7.0978,7.0939,7.0002,6.9047,6.8125,6.6265,6.4134,6.1781,5.742,0.0,0.0,0.0,0.0,0.0,0.0,0.0,0.0,0.0,0.0,0.0,0.0,0.0,0.0,0.0,0.0,0.0,0.0,0.0,0.0,0.0,0.0,0.0,0.0,0.0,0.0,0.0,0.0,6.4374,6.551,0.0,6.5069,6.6741,6.8078,6.8513,7.0375,7.221,7.3867,7.4395,7.5107,7.6039,7.633,7.6475,7.6475,7.6475,7.6475,7.6475,7.6475,7.6475,7.6475,7.6475,7.6475,7.6475,7.6475,7.6475,7.6475,7.6316,7.5917,7.5422,7.5482,7.4934,7.4106,7.4114,7.406,7.3878,7.3075,7.254,7.2033,7.1087,6.8413,6.5459,6.4898,6.3613,6.2553,6.3516,6.4459,6.5534,6.6967,6.8216,6.9617,7.1601,7.2364,7.2957,7.4113,7.444,7.4446,7.4276,7.2958,7.1121,6.8722,6.8762,6.874,6.7645,6.9872,7.2221,7.359,7.4363,7.4774,7.4774,7.3859,7.2985,7.241,7.1298,7.0377,6.9879,6.8502,6.7308,6.6427,6.5282,6.3714,6.1745,5.914,5.5538,0.0,0.0,0.0,0.0,0.0,0.0,0.0,0.0,0.0,0.0,0.0,0.0,0.0,0.0,0.0,0.0,0.0,0.0,0.0,0.0,0.0,0.0,0.0,0.0,0.0,6.2955,6.6223,6.7449,6.9041,6.9797,6.9295,7.1194,7.2496,7.2651,7.3951,7.4968,7.568,7.5581,7.5768,7.6275,7.6275,7.6275,7.6275,7.6275,7.6275,7.6275,7.6275,7.6275,7.6275,7.6275,7.6275,7.6275,7.6275,7.6275,7.6275,7.6275,7.6409,7.6639,7.6708,7.6441,7.6063,7.6126,7.589,7.5464,7.4719,7.4242,7.3655,7.1957,6.9669,6.7567,6.7616,6.6384,6.515,6.5821,6.6101,6.6545,6.8098,6.9143,7.0244,7.1966,7.2918,7.3666,7.454,7.4981,7.5484,7.6235,7.5094,7.3451,7.1625,7.1756,7.1642,7.0228,7.1947,7.3705,7.4545,7.4622,7.4622,7.4622,7.3667,7.275,7.2176,7.0533,6.9464,6.9234,6.7095,6.5719,6.5413,6.4038,6.2777,6.1631,5.9682,5.6932,5.333,0.0,0.0,0.0,0.0,0.0,0.0,0.0,0.0,0.0,0.0,0.0,0.0,0.0,0.0,0.0,0.0,0.0,0.0,0.0,0.0,0.0,0.0,0.0,6.3696,6.6574,6.8793,6.8628,7.1736,7.3202,7.1456,7.3619,7.5119,7.5119,7.5877,7.6275,7.6275,7.6275,7.6275,7.6275,7.6275,7.6275,7.6275,7.6275,7.6275,7.6275,7.6275,7.6275,7.6275,7.6275,7.6275,7.6275,7.6275,7.6275,7.6275,7.6275,7.6275,7.6345,7.6512,7.6581,7.6614,7.6741,7.6769,7.666,7.5894,7.5187,7.4501,7.3739,7.2042,7.0339,7.0411,6.9011,6.7367,6.7486,6.7589,6.7912,6.8833,6.9769,7.0915,7.268,7.3204,7.3598,7.4497,7.5334,7.5965,7.6268,7.5095,7.4351,7.5389,7.4201,7.3361,7.4163,7.4278,0.0,7.5403,7.5518,7.5518,7.5518,7.401,7.3017,7.2979,6.9884,6.8279,6.9082,6.5987,6.4496,6.5337,6.2968,6.1669,6.1669,5.9262,5.7581,5.6753,0.0,0.0,0.0,0.0,0.0,0.0,0.0,0.0,0.0,0.0,0.0,0.0,0.0,0.0,0.0,0.0,0.0,0.0,0.0,0.0,0.0,6.4553,6.767,6.7279,7.0245,7.2678,7.3222,7.4147,7.482,7.4869,7.5542,7.5985,7.5985,7.6167,7.6275,7.6275,7.6275,7.6275,7.6275,7.6275,7.6275,7.6275,7.6275,7.6275,7.6275,7.6275,7.6275,7.6275,7.6275,7.6275,7.6275,7.6275,7.6275,7.6275,7.6275,7.6275,7.6311,7.6378,7.6378,7.6412,7.6409,7.6545,7.6574,7.6257,7.577,7.5265,7.4956,7.3763,7.2453,7.2047,7.1177,7.0249,6.9991,6.9967,7.0102,7.0541,7.1378,7.2182,7.2693,7.3477,7.4183,7.4432,7.5226,7.6133,7.6945,7.6782,7.6635,7.7074,7.6326,7.5768,7.5997,7.5501,7.5233,7.5462,7.5518,7.5518,7.5518,7.4507,7.3628,7.3055,7.0457,6.8432,6.7439,6.4802,6.3656,6.4496,6.3236,6.2853,6.3465,6.1554,6.0446,0.0,0.0,0.0,0.0,0.0,0.0,0.0,0.0,0.0,0.0,0.0,0.0,0.0,0.0,0.0,0.0,0.0,0.0,0.0,0.0,0.0,0.0,6.8692,7.129,7.1368,7.313,7.4576,7.5011,7.5406,7.5804,7.6239,7.6275,7.6275,7.6275,7.6275,7.6275,7.6275,7.6275,7.6275,7.6275,7.6275,7.6275,7.6275,7.6275,7.6275,7.6275,7.6275,7.6275,7.6275,7.6275,7.6275,7.6275,7.6275,7.6275,7.6275,7.6275,7.6275,7.6275,0.0,0.0,0.0,0.0,7.6378,7.6445,7.6345,7.6119,7.5851,7.5822,7.5079,7.417,7.3824,7.2893,7.1894,7.1662,7.1183,7.0944,7.1504,7.2098,7.2643,7.3089,7.3658,7.4174,7.4289,7.5291,7.6428,7.716,7.7948,0.0,7.8691,7.7856,7.7033,7.6708,7.6285,7.5883,7.5556,7.5518,7.5518,7.5518,7.4736,7.401,7.3552,7.0877,0.0,0.0,0.0,6.4038,6.4206,6.3694,0.0,0.0,0.0,0.0,0.0,6.6101,0.0,0.0,6.432,6.4955,0.0,0.0,0.0,0.0,0.0,0.0,0.0,0.0,0.0,0.0,0.0,0.0,0.0,0.0,0.0,0.0,7.2803,7.5119,7.5192,7.5228,7.5228,7.5228,7.5877,7.6275,7.6275,7.6275,7.6275,7.6275,7.6275,7.6275,7.6275,7.6275,0.0,0.0,0.0,7.6275,7.6275,7.6275,7.6275,7.6275,7.6275,7.6275,7.6275,7.6275,7.6275,7.6275,7.6275,7.6275,7.6275,7.6275,7.6275,7.6275,7.6275,7.6275,7.6275,7.6275,7.6275,7.6275,7.6275,0.0,0.0,7.6275,7.594,7.5491,7.5415,7.4207,7.282,7.2768,7.1978,7.1331,7.2144,7.2483,7.2833,7.3591,7.379,7.3864,7.4104,7.545,7.6695,7.6994,7.8451,7.9696,7.9762,7.8745,7.7665,7.6883,7.6728,7.64,7.5577,7.5518,7.5518,7.5518,7.4736,0.0,7.4201,7.1298,6.9731,7.0381,6.763,6.5681,6.5085,6.5238,6.6025,6.7515,6.8356,7.0228,7.3284,7.4851,7.5747,7.5786,6.8945,6.8547,0.0,0.0,0.0,0.0,0.0,0.0,0.0,0.0,0.0,0.0,0.0,0.0,0.0,0.0,0.0,7.0682,7.3374,7.5334,7.5985,7.6058,7.6058,7.6058,7.6203,7.6275,7.6275,7.6275,7.6275,7.6275,7.6275,7.6275,7.6275,7.6275,7.6275,7.6275,7.6275,7.6275,7.6275,7.6275,7.6275,7.6275,7.6275,0.0,7.6275,7.6275,7.6275,7.6275,7.6275,7.6275,7.6275,7.6275,7.6275,7.6275,7.6275,7.6275,7.6275,7.6275,7.6275,7.6275,7.6275,7.6275,7.6275,7.6275,7.6236,7.6049,7.5564,7.5152,0.0,7.4505,7.428,7.4028,7.3832,7.3993,7.4067,7.3599,7.3665,7.3815,7.3864,7.5258,7.6368,7.6181,7.7629,7.874,7.8495,7.8587,7.8427,7.7665,7.7054,7.6366,7.5615,7.5518,7.5518,7.5518,7.4736,7.4201,7.4201,7.2367,7.0992,7.0419,6.9807,6.9693,7.0228,7.1565,7.2406,7.275,7.359,7.4372,7.5021,7.5997,7.7182,7.8537,7.6341,7.5959,0.0,0.0,0.0,0.0,0.0,0.0,0.0,0.0,0.0,0.0,0.0,6.3454,6.6243,0.0,7.1132,7.3523,7.4899,7.5841,7.6239,7.6275,7.6275,7.6275,7.6275,7.6275,7.6275,7.6275,7.6275,7.6275,7.6275,7.6275,7.6275,7.6275,7.6275,7.6275,7.6275,7.6275,7.6275,7.6275,7.6275,7.6275,7.6275,7.6275,7.6275,7.6275,7.6275,7.6275,7.6275,7.6275,7.6275,7.6275,7.6275,7.6275,7.6275,7.6275,7.6275,7.6275,7.6275,7.6275,7.6275,7.6275,7.6275,7.6275,7.6275,7.6236,7.594,7.564,7.537,7.5192,7.5001,7.4838,7.4617,7.4764,7.4828,7.3976,7.3898,7.4004,7.4082,7.509,7.6085,7.634,7.7473,7.8329,7.8155,7.834,7.8313,7.7814,7.7446,7.689,7.5951,7.5818,7.5666,7.5378,7.4976,7.4745,7.4851,7.3667,7.2788,7.2329,7.2063,7.228,7.3173,7.3741,7.4285,7.4702,7.5498,7.6162,7.6617,7.7413,7.8268,7.9102,7.8647,7.8724,0.0,0.0,0.0,0.0,0.0,0.0,0.0,5.8482,6.0991,6.3535,6.5881,6.8416,7.1603,7.2871,7.403,7.5985,7.6275,7.6275,7.6275,7.6275,7.6275,7.6275,7.6275,7.6275,7.6275,7.6275,7.6275,7.6275,7.6275,7.6275,7.6275,7.6275,7.6275,7.6275,7.6275,7.6275,7.6275,7.6275,7.6275,7.6275,7.6275,7.6275,7.6275,7.6275,7.6275,7.6275,7.6275,7.6275,7.6275,7.6275,7.6275,7.6275,7.6275,7.6275,7.6275,7.6275,7.6275,7.6275,7.6275,7.6275,7.6275,7.6275,7.6275,7.6275,7.6275,7.594,7.56,7.5633,7.5447,7.5208,7.5115,7.5287,7.5334,7.4551,7.4394,7.4422,7.4534,7.519,7.593,7.6513,7.7356,7.7883,7.7789,7.7723,7.7719,7.7591,7.7678,7.7269,7.6004,7.582,7.562,7.5163,7.4955,7.4997,7.538,7.4885,7.4581,7.4637,7.4212,7.4346,7.5258,7.4816,7.4956,7.5866,7.6479,7.7117,7.7854,7.8516,7.8816,7.8816,7.8816,7.9297,5.4186,5.5036,5.6006,5.6656,5.7498,5.9681,0.0,6.6765,6.78,7.0879,7.2839,7.4142,7.4612,7.537,7.5985,7.6239,7.6275,7.6275,7.6275,7.6275,7.6275,7.6275,7.6275,7.6275,7.6275,7.6275,7.6275,7.6275,7.6275,7.6275,7.6275,7.6275,7.6275,7.6275,7.6275,7.6275,7.6275,7.6275,7.6275,7.6275,7.6275,7.6275,7.6275,7.6275,7.6275,7.6275,7.6275,7.6275,7.6275,7.6275,7.6275,7.6275,7.6275,7.6275,7.6275,7.6275,7.6275,7.6275,7.6275,7.6275,7.6275,7.6275,7.6275,7.6275,7.6275,7.6273,7.6233,7.6436,7.6429,7.6308,7.5896,7.5892,7.5852,7.5153,7.5121,7.5215,7.5064,7.5661,7.6132,7.5817,7.6413,7.6866,7.6538,7.6472,7.6627,7.702,7.7095,7.6577,7.5047,7.4847,7.481,7.476,7.411,7.407,7.5,7.5614,7.6037,7.6155,7.5989,7.6316,7.7324,7.7018,7.7291,7.8304,7.8214,7.8211,7.8323,7.8398,7.8461,7.8461,7.8461,7.8678,5.9021,5.9578,5.9966,6.1416,6.3384,6.5719,6.879,7.0475,7.1965,7.374,7.5008,7.5804,7.5804,7.6058,7.6275,7.6275,7.6275,7.6275,7.6275,7.6275,7.6275,7.6275,7.6275,7.6275,7.6275,7.6275,7.6275,7.6275,7.6275,7.6275,7.6275,7.6275,7.6275,7.6275,7.6275,7.6275,7.6275,7.6275,7.6275,7.6275,7.6275,7.6275,7.6275,7.6275,7.6275,7.6275,7.6275,7.6275,7.6275,7.6275,7.6275,7.6275,7.6275,7.6275,7.6275,7.6275,7.6275,7.6275,7.6275,7.6275,7.6275,7.6275,7.6275,7.6275,7.6275,7.6275,7.6345,7.6412,7.6478,7.6574,7.634,7.6486,7.6484,7.5739,7.5616,7.5682,7.5555,7.5721,7.5933,7.6158,7.6458,7.661,7.6309,7.6275,7.6363,7.6533,7.6831,7.6684,7.5874,7.5753,7.5585,7.5261,7.5033,7.506,7.5508,7.582,7.6256,7.6818,7.6532,7.6716,7.7615,7.7205,7.7157,7.7577,7.7518,7.7459,7.7459,7.7459,7.7717,7.8159,7.8159,7.8477,6.2008,6.2888,6.3903,6.5642,6.8422,7.0883,7.1526,7.3197,7.4754,7.5334,7.5877,7.6275,7.6275,7.6275,7.6275,7.6275,7.6275,7.6275,7.6275,7.6275,7.6275,7.6275,7.6275,7.6275,7.6275,7.6275,7.6275,7.6275,7.6275,7.6275,7.6275,7.6275,7.6275,7.6275,7.6275,7.6275,7.6275,7.6275,7.6275,7.6275,7.6275,7.6275,7.6275,7.6275,7.6275,7.6275,7.6275,7.6275,7.6275,7.6275,7.6275,7.6275,7.6275,7.6275,7.6275,7.6275,7.6275,7.6275,7.6275,7.6275,7.6275,7.6275,7.6275,7.6275,7.6275,7.6275,7.6275,7.6275,7.6412,7.6548,7.6581,7.6773,7.682,7.6267,7.6152,7.6121,7.6126,7.5963,7.6017,7.6436,7.6548,7.6478,7.6345,7.6275,7.6275,7.6275,7.657,7.6632,7.6197,7.6116,7.5875,7.5195,7.568,7.5967,7.5773,7.5958,7.6393,7.7042,7.6699,7.6728,7.7333,7.6925,7.6672,7.6741,7.6672,7.6639,7.6639,7.6639,7.6931,7.7513,7.7513,7.784,6.1911,6.4439,6.8182,6.9054,7.1677,7.4224,7.4823,7.5623,7.6239,7.6239,7.6275,7.6275,7.6275,7.6275,7.6275,7.6275,7.6275,7.6275,7.6275,7.6275,7.6275,7.6275,7.6275,7.6275,7.6275,7.6275,7.6275,7.6275,7.6275,7.6275,7.6275,7.6275,7.6275,7.6275,7.6275,7.6275,7.6275,7.6275,7.6275,7.6275,7.6275,7.6275,7.6275,7.6275,7.6275,7.6275,7.6275,7.6275,7.6275,7.6275,7.6275,7.6275,7.6275,7.6275,7.6275,7.6275,7.6275,7.6275,7.6275,7.6275,7.6275,7.6275,7.6275,7.6275,7.6275,7.6275,7.6275,7.6275,7.6275,7.6378,7.6548,7.6614,7.6643,7.6769,7.6765,7.6769,7.661,7.6578,7.6512,7.6309,7.6309,7.6311,7.6275,7.6275,7.6275,7.6275,7.6309,7.6055,7.5258,7.5149,7.4823,7.4026,7.5363,7.6079,7.5479,7.6134,7.6636,7.6797,7.6672,7.6639,7.6834,7.6475,7.6412,7.6614,7.6412,7.6345,7.6345,7.6345,7.6345,7.6345,7.6345,7.6381,6.651,6.8094,6.9479,7.1967,7.372,7.5001,7.5732,7.6094,7.6275,7.6275,7.5877,7.5515,7.5515,7.5515,7.5515,7.5515,7.5949,7.6275,7.6275,7.6275,7.6275,7.6275,7.6275,7.6275,7.6275,7.6275,7.6275,7.6275,7.6275,7.6275,7.6275,7.6275,7.6275,7.6275,7.6275,7.6275,7.6275,7.6275,7.6275,7.6275,7.6275,7.6275,7.6275,7.6275,7.6275,7.6275,7.6275,7.6275,7.6275,7.6275,7.6275,7.6275,7.6275,7.6275,7.6275,7.6275,7.6275,7.6275,7.6275,7.6275,7.6275,7.6275,7.6275,7.6275,7.6275,7.6275,7.6275,7.6275,7.6275,7.6345,7.6378,7.6478,7.6614,7.6643,7.6643,7.6643,7.6614,7.6478,7.6378,7.6309,7.6275,7.6275,7.6275,7.6275,7.6275,7.6275,7.6275,7.6203,7.5913,7.5913,7.5804,7.5515,7.5985,7.6236,7.6013,7.6267,7.6445,7.6442,7.6445,7.6445,7.6442,7.6342,7.6345,7.6412,7.6309,7.6275,7.6275,7.6275,7.6565,7.7108,7.7108,7.7651,6.85,6.9666,7.0403,7.3688,7.5037,7.5659,7.6167,7.6275,7.6275,7.6275,7.5189,7.4323,7.4612,7.4464,7.4537,7.5406,7.6456,7.7144,7.7144,7.7144,7.6927,7.6348,7.6275,7.6275,7.6275,7.6275,7.6275,7.6275,7.6275,7.6275,7.6275,7.6275,7.6275,7.6275,7.6275,7.6275,7.6275,7.6275,7.6275,7.6275,7.6275,7.6275,7.6275,7.6275,7.6275,7.6275,7.6275,7.6275,7.6275,7.6275,7.6275,7.6275,7.6275,7.6275,7.6275,7.6275,7.6275,7.6275,7.6275,7.6275,7.6275,7.6275,7.6275,7.6275,7.6275,7.6275,7.6275,7.6275,7.6275,7.6275,7.6275,7.6412,7.6478,7.6478,7.6478,7.6478,7.6478,7.6412,7.6275,7.6275,7.6275,7.6275,7.6275,7.6275,7.6275,7.6275,7.6275,7.6275,7.6275,7.6275,7.6275,7.6275,7.6275,7.6275,7.6275,7.6275,7.6275,7.6275,7.6275,7.6275,7.6275,7.6275,7.6275,7.6275,7.6275,7.6275,7.6275,7.6275,7.6565,7.7072,7.7362,7.805,6.8199,6.943,7.135,7.4428,7.5732,7.6275,7.6275,7.6275,7.6239,7.6094,7.4211,7.2762,7.3378,7.2979,7.3269,7.5551,7.7398,7.8521,7.8521,7.8557,7.8014,7.6456,7.6275,7.6275,7.6275,7.6275,7.6275,7.6275,7.6275,7.6275,7.6275,7.6275,7.6275,7.6275,7.6275,7.6275,7.6275,7.6275,7.6275,7.6275,7.6275,7.6275,7.6275,7.6275,7.6275,7.6275,7.6275,7.6275,7.6275,7.6275,7.6275,7.6275,7.6275,7.6275,7.6275,7.6275,7.6275,7.6275,7.6275,7.6275,7.6275,7.6275,7.6275,7.6275,7.6275,7.6275,7.6275,7.6275,7.6275,7.6275,7.6275,7.6275,7.6275,7.6275,7.6275,7.6275,7.6275,7.6275,7.6275,7.6275,7.6275,7.6275,7.6275,7.6275,7.6275,7.6275,7.6275,7.6275,7.6275,7.6275,7.6275,7.6275,7.6275,7.6275,7.6275,7.6275,7.6275,7.6275,7.6275,7.6275,7.6275,7.6275,7.6275,7.6275,7.6275,7.6275,7.6275,7.6348,7.6348,7.6384,7.7181,7.7579,7.0879,7.269,7.4247,7.5623,7.613,7.6275,7.6275,7.6275,7.5623,7.3233,7.1784,7.0299,6.8126,6.9032,7.0263,7.091,7.3812,7.6022,7.6022,7.6529,7.6746,7.6348,7.6275,7.6275,7.6275,7.6275,7.6275,7.6275,7.6275,7.6275,7.6275,7.6275,7.6275,7.6275,7.6275,7.6275,7.6275,7.6275,7.6275,7.6275,7.6275,7.6275,7.6275,7.6275,7.6275,7.6275,7.6275,7.6275,7.6275,7.6275,7.6275,7.6275,7.6275,7.6275,7.6275,7.6275,7.6275,7.6275,7.6275,7.6275,7.6275,7.6275,7.6275,7.6275,7.6275,7.6275,7.6275,7.6275,7.6275,7.6275,7.6275,7.6275,7.6275,7.6275,7.6275,7.6275,7.6275,7.6275,7.6275,7.6275,7.6275,7.6275,7.6275,7.6275,7.6275,7.6275,7.6275,7.6275,7.6275,7.6275,7.6275,7.6275,7.6275,7.6275,7.6275,7.6275,7.6275,7.6275,7.6275,7.6275,7.6275,7.6275,7.6275,7.6275,7.6275,7.6275,7.6275,7.6891,7.7181,7.7217,7.8014,7.8738,7.2146,7.4138,7.5732,7.6167,7.6818,7.671,7.4247,7.4211,7.3523,6.9249,6.7764,6.646,6.3961,6.6025,6.8235,6.8597,7.2581,7.5768,7.6094,7.6529,7.6674,7.6348,7.6275,7.6275,7.6275,7.6275,7.6275,7.6275,7.6275,7.6275,7.6275,7.6275,7.6275,7.6275,7.6275,7.6275,7.6275,7.6275,7.6275,7.6275,7.6275,7.6275,7.6275,7.6275,7.6275,7.6275,7.6275,7.6275,7.6275,7.6275,7.6275,7.6275,7.6275,7.6275,7.6275,7.6275,7.6275,7.6275,7.6275,7.6275,7.6275,7.6275,7.6275,7.6275,7.6275,7.6275,7.6275,7.6275,7.6208,7.6174,7.6174,7.6142,7.6108,7.614,7.6174,7.6174,7.6275,7.6275,7.6275,7.6275,7.6275,7.6275,7.6275,7.6275,7.6275,7.6275,7.6275,7.6275,7.6275,7.6275,7.6275,7.6275,7.6275,7.6275,7.6275,7.6275,7.6275,7.6275,7.6275,7.6275,7.6275,7.6275,7.6456,7.6818,7.6818,7.7,7.7362,7.7796,7.8014,7.805,7.8847,7.9462,7.2907,7.479,7.6456,7.6565,7.7651,7.7289,7.1797,7.1472,7.0608,6.4766,6.2895,6.1804,6.0088,6.296,6.5958,6.7125,7.1761,7.5595,7.6642,7.7002,7.6893,7.6205,7.6239,7.6275,7.6275,7.6275,7.6275,7.6275,7.6275,7.6275,7.6275,7.6275,7.6275,7.6275,7.6275,7.6275,7.6275,7.6275,7.6275,7.6275,7.6275,7.6275,7.6275,7.6275,7.6275,7.6275,7.6275,7.6275,7.6275,7.6275,7.6275,7.6275,7.6275,7.6275,7.6275,7.6275,7.6275,7.6275,7.6275,7.6275,7.6275,7.6275,7.6275,7.6275,7.6275,7.6275,7.6242,7.6242,7.6106,7.5969,7.5969,7.5867,7.5833,7.5971,7.5969,7.6003,7.621,7.6278,7.6242,7.6275,7.6275,7.6275,7.6275,7.6275,7.6275,7.6275,7.6275,7.6275,7.6275,7.6275,7.6275,7.6275,7.6275,7.6275,7.6275,7.6275,7.6275,7.6275,7.6275,7.6275,7.6275,7.6384,7.6782,7.747,7.7579,7.8014,7.8702,7.881,7.8847,7.8883,7.968,8.0078,7.508,7.6456,7.7434,7.8122,7.8484,7.7476,7.2672,7.0809,6.802,6.0575,5.8432,5.7157,5.4721,5.7064,6.0315,6.3293,6.6971,7.032,7.2772,7.4418,7.5313,7.5169,7.5846,7.6275,7.6275,7.6275,7.6275,7.6275,7.6275,7.6275,7.6275,7.6275,7.6275,7.6275,7.6275,7.6275,7.6275,7.6275,7.6275,7.6275,7.6275,7.6275,7.6275,7.6275,7.6275,7.6275,7.6275,7.6275,7.6275,7.6275,7.6275,7.6275,7.6275,7.6275,7.6275,7.6275,7.6275,7.6275,7.6275,7.6275,7.6275,7.6275,7.6275,7.6275,7.6275,7.6174,7.6038,7.6038,7.5936,7.5833,7.5833,7.5798,7.5798,7.5833,7.5833,7.5833,7.5868,7.5971,7.6106,7.6242,7.6275,7.6275,7.6275,7.6275,7.6275,7.6275,7.6275,7.6275,7.6275,7.6275,7.6275,7.6275,7.6275,7.6275,7.6275,7.6275,7.6275,7.6275,7.6275,7.6275,7.6275,7.6927,7.7362,7.7507,7.8159,7.8557,7.8702,7.939,7.968,7.9716,8.0513,8.0911,7.5768,7.7181,7.8231,7.8593,7.9318,7.7875,6.9917,6.7852,6.4974,5.5546,5.3584,5.2866,5.0336,5.352,5.6981,5.8468,6.3164,6.756,7.0082,7.2568,7.428,7.4676,7.5568,7.614,7.614,7.6242,7.6275,7.6275,7.6275,7.6275,7.6275,7.6275,7.6275,7.6275,7.6275,7.6275,7.6275,7.6275,7.6275,7.6275,7.6275,7.6275,7.6275,7.6275,7.6275,7.6275,7.6275,7.6275,7.6275,7.6275,7.6275,7.6275,7.6275,7.6275,7.6275,7.6275,7.6275,7.6275,7.6275,7.6275,7.6275,7.6275,7.6208,7.614,7.614,7.6039,7.5901,7.5901,7.5762,7.5657,7.5657,7.5585,7.5514,7.5621,7.5727,7.5798,7.5798,7.5901,7.6038,7.6106,7.6208,7.6275,7.6275,7.6275,7.6275,7.6275,7.6275,7.6275,7.6275,7.6275,7.6275,7.6275,7.6275,7.6456,7.6891,7.6927,7.7108,7.7507,7.7543,7.7543,7.7543,7.7905,7.8303,7.8738,7.9136,7.9535,7.9969,8.0332,8.0513,8.0549,8.0947,8.1128,7.635,7.7869,7.8992,7.9173,8.0151,7.8274,6.7461,6.5058,6.2098,5.1382,4.9353,4.9005,4.7222,5.0704,5.4047,5.4739,5.9931,6.4903,6.7795,7.0872,7.3219,7.4147,7.5289,7.6003,7.6003,7.6174,7.6275,7.6275,7.6275,7.6275,7.6275,7.6275,7.6275,7.6275,7.6275,7.6275,7.6275,7.6275,7.6275,7.6275,7.6275,7.6275,7.6275,7.6275,7.6275,7.6275,7.6275,7.6275,7.6275,7.6275,7.6275,7.6275,7.6275,7.6275,7.6275,7.6275,7.6275,7.6275,7.6275,7.6275,7.6275,7.6242,7.6106,7.6003,7.6003,7.5867,7.5727,7.5727,7.5585,7.5406,7.5406,7.5298,7.5225,7.5334,7.5478,7.5585,7.5514,7.5549,7.5584,7.5584,7.569,7.5759,7.5759,7.5759,7.5759,7.5759,7.5759,7.5759,7.5759,7.5759,7.5759,7.5759,7.6106,7.6637,7.7434,7.7507,7.7833,7.8666,7.8702,7.8702,7.8702,7.8883,7.9245,7.9897,8.0078,8.0476,8.1128,8.1128,8.1128,8.1128,8.1128,8.1128,7.7841,7.9136,7.9969,8.0694,8.0984,7.8457,6.8355,6.4402,6.0033,4.996,4.6701,4.5781,4.611,4.7781,5.036,5.4087,5.7117,6.0669,6.5583,6.9,7.1588,7.3079,7.486,7.6003,7.6003,7.6174,7.6275,7.6275,7.6275,7.6275,7.6275,7.6275,7.6275,7.6275,7.6275,7.6275,7.6275,7.6275,7.6275,7.6275,7.6275,7.6275,7.6275,7.6275,7.6275,7.6275,7.6275,7.6275,7.6275,7.6275,7.6275,7.6275,7.6275,7.6275,7.6275,7.6275,7.6275,7.6275,7.6275,7.6275,7.6242,7.6072,7.6003,7.6003,7.6003,7.5797,7.5514,7.5514,7.537,7.5261,7.5261,7.5189,7.5152,7.5005,7.4968,7.4931,7.4673,7.4484,7.4335,7.4299,7.4149,7.4033,7.4033,7.4033,7.4033,7.4033,7.4033,7.4033,7.4033,7.4033,7.4033,7.4033,7.5406,7.6637,7.7434,7.7507,7.7833,7.8666,7.8702,7.8702,7.8702,7.939,7.9825,7.9897,8.0621,8.1056,8.1128,8.1128,8.1128,8.1128,8.1128,8.1128,7.7551,7.9281,8.0114,8.0911,7.9216,7.5299,6.7195,6.1977,5.6524,4.852,4.557,4.4608,4.5274,4.5902,4.7579,5.1356,5.3923,5.6816,6.0666,6.5861,6.9565,7.0309,7.365,7.5901,7.5969,7.6174,7.6275,7.6275,7.6275,7.6275,7.6275,7.6275,7.6275,7.6275,7.6275,7.6275,7.6275,7.6275,7.6275,7.6275,7.6275,7.6275,7.6275,7.6275,7.6275,7.6275,7.6275,7.6275,7.6275,7.6275,7.6275,7.6275,7.6275,7.6275,7.6275,7.6275,7.6275,7.6275,7.6275,7.6275,7.6275,7.6208,7.6039,7.5832,7.5727,7.5514,7.5298,7.5298,7.5262,7.5225,7.5225,7.5116,7.4968,7.4782,7.4631,7.4623,7.4967,7.4495,7.4268,7.5143,7.4506,7.394,7.4396,7.4115,7.3799,7.3799,7.3799,7.3799,7.3799,7.3799,7.3799,7.3799,7.4863,7.5907,7.6697,7.7662,7.8557,7.939,7.9897,8.0151,8.0151,8.0476,8.0621,8.0621,8.0947,8.1128,8.1128,8.1128,8.1128,8.1128,8.1599,8.1817,7.6117,7.8779,8.0404,8.0984,7.7847,7.2905,6.6316,6.0214,5.4117,4.76,4.4957,4.3942,4.4441,4.4873,4.6138,4.9061,5.1631,5.4532,5.8162,6.3393,6.7326,6.8603,7.2223,7.4761,7.519,7.5893,7.6275,7.6275,7.6275,7.6275,7.6275,7.6275,7.6275,7.6275,7.6275,7.6275,7.6275,7.6275,7.6275,7.6275,7.6275,7.6275,7.6275,7.6275,7.6275,7.6275,7.6275,7.6275,7.6275,7.6275,7.6275,7.6275,7.6275,7.6275,7.6275,7.6275,7.6275,7.6275,7.6275,7.6275,7.6275,7.6208,7.6005,7.5763,7.5585,7.5334,7.5225,7.5225,7.5225,7.5188,7.5116,7.5183,7.5139,7.4832,7.478,7.4941,7.5188,7.4671,7.4362,7.5276,7.4497,7.3906,7.4386,7.408,7.3732,7.3732,7.3732,7.3628,7.342,7.3385,7.3385,7.3385,7.394,7.4884,7.6188,7.7523,7.8746,7.9826,8.0658,8.1128,8.1128,8.1128,8.1128,8.1128,8.1128,8.1128,8.1128,8.1346,8.1454,8.1491,8.2251,8.2758,7.3512,7.7523,8.1092,8.1128,7.7452,7.2335,6.6209,5.983,5.3502,4.7345,4.4776,4.3598,4.3598,4.4821,4.6278,4.7769,5.052,5.4228,5.9441,6.2096,6.4926,6.8664,7.0638,7.2175,7.3248,7.5117,7.6275,7.6275,7.6275,7.6275,7.6275,7.6275,7.6275,7.6275,7.6275,7.6275,7.6275,7.6275,7.6275,7.6275,7.6275,7.6275,7.6275,7.6275,7.6275,7.6275,7.6275,7.6275,7.6275,7.6275,7.6275,7.6275,7.6275,7.6275,7.6275,7.6275,7.6275,7.6275,7.6275,7.6275,7.6242,7.6072,7.5901,7.5763,7.5585,7.5334,7.5225,7.5225,7.5225,7.5152,7.4968,7.5427,7.5841,7.5218,7.566,7.5942,7.5085,7.4738,7.4429,7.4014,7.3661,7.3523,7.3523,7.3523,7.3489,7.3489,7.3489,7.3252,7.2507,7.244,7.244,7.244,7.2458,7.3555,7.6077,7.6975,7.8131,7.979,8.0658,8.1128,8.1128,8.1128,8.1128,8.1128,8.1128,8.1128,8.1128,8.1889,8.2287,8.2324,8.3084,8.3881,6.526,6.7864,6.9527,6.8564,6.5792,6.2266,5.838,5.4154,4.9923,4.5937,4.4321,4.3731,4.4257,4.4324,4.5947,5.0883,5.2075,5.4173,5.9331,6.3843,6.7014,6.7968,7.208,7.4977,7.5329,7.5961,7.6275,7.6275,7.6275,7.6275,7.6275,7.6275,7.6275,7.6275,7.6275,7.6275,7.6275,7.6275,7.6275,7.6275,7.6275,7.6275,7.6275,7.6275,7.6275,7.6275,7.6275,7.6275,7.6275,7.6275,7.6275,7.6275,7.6275,7.6275,7.6275,7.6275,7.6275,7.6275,7.6275,7.6275,7.6275,7.6208,7.6005,7.5763,7.5727,7.5478,7.5225,7.5225,7.5225,7.5116,7.4782,7.5236,7.5613,7.5018,7.537,7.5819,7.5907,7.5072,7.4603,7.5481,7.4512,7.3646,7.4153,7.3815,7.3477,7.3477,7.3477,7.3409,7.3172,7.3138,7.3138,7.3138,7.3311,7.3953,7.5151,7.6572,7.7835,7.8956,8.0334,8.1128,8.1128,8.1128,8.1128,8.1128,8.1128,8.1128,8.1128,8.1382,8.2034,8.312,8.3953,8.475,5.872,6.1905,6.3508,6.2624,5.9798,5.6644,5.4548,5.0884,4.7239,4.5119,4.4125,4.3731,4.4191,4.4357,4.5947,5.0618,5.1711,5.3977,5.9683,6.3684,6.685,6.8993,7.2833,7.54,7.5653,7.6036,7.6275,7.6275,7.6275,7.6275,7.6275,7.6275,7.6275,7.6275,7.6275,7.6275,7.6275,7.6275,7.6275,7.6275,7.6275,7.6275,7.6275,7.6275,7.6275,7.6275,7.6275,7.6275,0.0,7.6275,7.6275,7.6275,7.6275,7.6275,7.6275,7.6275,7.6275,7.6275,7.6275,7.6275,7.6275,7.6208,7.5971,7.5692,7.5585,7.5406,7.5225,7.5225,7.5116,7.5005,7.4669,7.5295,7.5878,7.5353,7.5868,7.652,7.6703,7.5908,7.5424,7.6197,7.534,7.4585,7.4931,7.4627,7.4322,7.4322,7.4322,7.4221,7.395,7.3916,7.3963,7.4056,7.3956,7.4344,7.5352,7.6549,7.766,7.8541,7.9966,8.0803,8.0876,8.0948,8.0985,8.0985,8.1056,8.1128,8.1128,8.1708,8.2831,8.4424,8.4895,8.5402,0.0,5.8233,6.1055,6.0914,5.7649,5.428,5.3423,4.94,0.0,4.4754,4.4092,4.3664,4.3929,4.4986,4.6444,4.8365,5.0452,5.4128,6.0702,6.2719,6.5688,7.1708,7.3204,7.408,7.4858,7.5762,7.6275,7.6275,7.6275,7.6275,7.6275,7.6275,7.6275,7.6275,7.6275,7.6275,7.6275,7.6275,7.6275,7.6275,7.6275,7.6275,7.6275,7.6275,7.6275,7.6275,7.6275,7.6275,7.6275,7.6275,7.6275,7.6275,7.6275,7.6275,7.6275,7.6275,7.6275,7.6275,7.6275,7.6275,7.6242,7.6038,7.5762,7.5442,7.5262,7.5225,7.5225,7.5152,7.5042,7.4857,7.4631,7.5568,7.6494,7.6012,7.6949,7.7763,7.7323,7.6975,7.6656,7.6228,7.6122,7.6075,7.5757,7.5757,7.5709,7.5709,7.5709,7.5439,7.4796,7.4695,7.4788,7.5068,7.4502,7.473,7.629,7.6791,7.7433,7.8529,7.9586,8.0245,8.0433,8.0656,8.0767,8.0767,8.1057,8.1201,8.1201,8.2794,8.4352,8.5801,8.5873,8.5909,4.4302,0.0,4.7744,4.6625,4.6754,4.6812,0.0,4.5499,4.5417,4.4125,4.3698,4.4459,4.7305,4.6709,4.7934,5.4427,5.6415,5.8936,6.4183,6.8461,7.235,7.5935,7.5941,7.6087,7.7127,7.6625,7.6275,7.6275,7.6275,7.6275,7.6275,7.6275,7.6275,7.6275,7.6275,7.6275,7.6275,7.6275,7.6275,7.6275,7.6275,7.6275,7.6275,7.6275,7.6275,7.6275,7.6275,7.6275,7.6275,7.6275,7.6275,7.6275,7.6275,7.6275,7.6275,7.6275,7.6275,7.6275,7.6275,7.6275,7.6278,7.5972,7.5692,7.5442,7.5262,7.5225,7.5152,7.5005,7.4931,7.4819,7.4479,7.549,7.6494,7.6012,7.6949,7.7807,7.7579,7.7144,7.6748,7.6691,7.6507,7.6309,7.6075,7.6028,7.5933,7.5757,7.5709,7.5642,7.5473,7.5615,7.5756,7.585,7.6005,7.6074,7.5914,7.6565,7.7348,7.8265,7.9294,7.9944,7.9982,8.036,8.0582,8.0582,8.149,8.1998,8.1998,8.3627,8.4605,8.5004,8.5619,8.5909,4.0348,4.2734,4.492,4.4125,4.5086,4.6013,4.5218,4.492,4.4556,4.3764,4.3863,4.4821,4.7173,4.859,5.0928,5.553,5.9093,6.3056,6.8062,7.2474,7.5715,7.7134,7.7187,7.7127,7.7197,7.6656,7.6275,7.6275,7.6275,7.6275,7.6275,7.6275,7.6275,7.6275,7.6275,7.6275,7.6275,7.6275,7.6275,7.6275,7.6275,7.6275,7.6275,7.6275,7.6275,7.6275,7.6275,7.6275,7.6275,7.6275,7.6275,7.6275,7.6275,7.6275,7.6275,7.6275,7.6275,7.6275,7.6275,7.621,7.6039,7.5868,7.5621,7.5334,7.5225,7.5116,7.5042,7.4931,7.4819,7.4707,7.4364,7.5372,7.6413,7.6135,7.6992,7.785,7.7754,7.7323,7.6964,7.6793,7.6736,7.6553,7.6309,7.6169,7.6075,7.5899,7.5805,7.5574,7.5236,7.5425,7.5523,7.5241,7.5572,7.5671,7.5347,7.5889,7.6447,7.6949,7.8007,7.8589,7.8709,7.9262,7.9711,8.0056,8.145,8.2359,8.2721,8.4061,8.4895,8.5257,8.5692,8.5909,3.9978,4.3975,4.7694,4.6407,4.6941,4.7769,4.7537,4.5649,4.3962,4.4062,4.4589,4.5611,4.7528,5.1125,5.4395,5.6129,6.1234,6.6694,7.1695,7.5066,7.7027,7.704,7.745,7.7441,7.6654,7.6391,7.6275,7.6275,7.6275,7.6275,7.6275,7.6275,7.6275,7.6275,7.6275,7.6275,7.6275,7.6275,7.6275,7.6275,7.6275,7.6275,7.6275,7.6275,7.6275,7.6275,7.6275,7.6275,7.6275,7.6275,7.6275,7.6275,7.6275,7.6275,7.6275,7.6275,7.6275,7.6311,7.6242,7.6039,7.5798,7.5763,7.5514,7.5225,7.5225,7.5042,7.4894,7.4857,7.4707,7.4517,7.4287,7.5187,7.6152,7.6216,7.7006,7.7754,7.785,7.7535,7.7133,7.6918,7.6839,7.6782,7.6587,7.6253,7.6046,7.5952,7.5628,7.5182,7.4572,7.4737,7.473,7.4319,7.4473,7.4694,7.4688,7.4904,7.5076,7.5211,7.6342,7.7118,7.7473,7.8069,7.8635,7.9245,8.0964,8.2171,8.2782,8.4058,8.504,8.5728,8.5837,8.5909,4.3061,4.8296,5.1201,4.4027,4.4688,4.6742,4.5483,4.5317,4.5649,4.6245,4.6477,4.8759,5.5994,5.5701,5.678,6.3983,6.729,7.017,7.3779,7.5549,7.6769,7.7692,7.7091,7.684,7.7639,7.6876,7.6275,7.6275,7.6275,7.6275,7.6275,7.6275,7.6275,7.6275,7.6275,7.6275,7.6275,7.6275,7.6275,7.6275,7.6275,7.6275,7.6275,7.6275,7.6275,7.6275,7.6275,7.6275,7.6275,7.6275,7.6275,7.6275,7.6275,7.6275,7.6275,7.6275,7.6275,7.6311,7.6106,7.5936,7.5763,7.5621,7.5406,7.5225,7.5225,7.5042,7.4857,7.4707,7.4479,7.4287,7.4128,7.4682,7.5409,7.5837,7.6461,7.7085,7.7528,7.7402,7.7178,7.7178,7.7133,7.7054,7.6828,7.6188,7.5595,7.5263,7.458,7.4138,7.4036,7.4196,7.4387,7.4508,7.4728,7.4541,7.3747,7.3757,7.3679,7.347,7.5422,7.6894,7.7709,7.7848,7.8012,7.8238,8.0115,8.1013,8.0927,8.3468,8.475,8.4895,8.5583,8.5909,4.1834,4.6179,4.9673,4.7534,5.17,5.6128,5.5441,5.4372,5.3183,5.2162,5.2234,5.3788,5.8045,5.9507,6.2681,7.0526,7.2018,7.3037,7.5558,7.6479,7.7043,7.733,7.7292,7.7162,7.7092,7.6617,7.6275,7.6275,7.6275,7.6275,7.6275,7.6275,7.6275,7.6275,7.6275,7.6275,7.6275,7.6275,7.6275,7.6275,7.6275,7.6275,7.6275,7.6275,7.6275,7.6275,7.6275,7.6275,7.6275,7.6275,7.6275,7.6275,7.6275,7.6275,7.6275,7.6275,7.6275,7.6242,7.6072,7.5901,7.5763,7.5585,7.5334,7.5152,7.5079,7.4894,7.4707,7.4479,7.4646,7.4777,7.4155,7.4853,7.569,7.5376,7.5729,7.6215,7.6305,7.6113,7.5937,7.5937,7.5937,7.5937,7.577,7.5406,7.5022,7.4843,7.4298,7.3788,7.3514,7.358,7.3499,7.3254,7.336,7.3266,7.2741,7.3049,7.3416,7.3659,7.5032,7.6049,7.6634,7.7075,7.7219,7.715,7.8882,8.0027,8.045,8.2276,8.3422,8.3814,8.4653,8.5107,4.1039,4.453,4.8608,5.1999,5.7081,6.171,6.3414,6.1243,5.8671,5.7977,5.829,5.9047,6.025,6.3954,6.8656,7.4294,7.4823,7.5068,7.6536,7.6945,7.7062,7.6787,7.729,7.7267,7.6389,7.6275,7.6275,7.6275,7.6275,7.6275,7.6275,7.6275,7.6275,7.6275,7.6275,7.6275,7.6275,7.6275,7.6275,7.6275,7.6275,7.6275,7.6275,7.6275,7.6275,7.6275,7.6275,7.6275,7.6275,7.6275,7.6275,7.6275,7.6275,7.6275,7.6275,7.6275,7.6275,7.6242,7.6003,7.5867,7.5763,7.5514,7.5334,7.5152,7.4968,7.4744,7.4555,7.4364,7.4777,7.5121,7.4225,7.4888,7.5579,7.4916,7.5025,7.5303,7.5214,7.5034,7.4903,7.4903,7.4903,7.4903,7.4903,7.46,7.441,7.4322,7.383,7.3299,7.2908,7.2795,7.2556,7.2053,7.2159,7.2227,7.2137,7.2809,7.348,7.423,7.5026,7.5523,7.558,7.6194,7.638,7.6067,7.7682,7.8919,7.9773,8.1025,8.2015,8.2752,8.3663,8.4065,4.3459,4.7346,5.1302,5.4967,5.4024,5.3987,6.0801,5.8793,5.6841,6.1704,6.2748,6.3624,6.6417,7.0001,7.2678,7.3222,7.4632,7.5827,7.629,7.6359,7.6395,7.6355,7.6391,7.6389,7.6311,7.6275,7.6275,7.6275,7.6275,7.6275,7.6275,7.6275,7.6275,7.6275,7.6275,7.6275,7.6275,7.6275,7.6275,7.6275,7.6275,7.6275,7.6275,7.6275,7.6275,7.6275,7.6275,7.6275,7.6275,7.6275,7.6275,7.6275,7.6275,7.6275,7.6275,7.6275,7.6275,7.6242,7.5937,7.5798,7.5727,7.537,7.5189,7.5152,7.4968,7.4744,7.4555,7.4364,7.4699,7.4963,7.4185,7.408,7.4207,7.4467,7.4552,7.4636,7.4861,7.4947,7.4903,7.4903,7.4903,7.4903,7.4903,7.4326,7.3792,7.361,7.2766,7.2122,7.2088,7.1879,7.18,7.1985,7.1985,7.2171,7.2586,7.3152,7.376,7.4538,7.5472,7.5818,7.5373,7.5614,7.5566,7.5115,7.6473,7.7489,7.7984,7.9836,8.1207,8.1901,8.2726,8.3086,4.1012,4.629,5.1943,5.4246,5.5962,5.8695,6.5117,6.5854,6.6005,6.8795,6.9171,6.9105,6.9412,7.2568,7.4828,7.4037,7.515,7.6153,7.6278,7.6275,7.6275,7.6275,7.6275,7.6275,7.6275,7.6275,7.6275,7.6275,7.6275,7.6275,7.6275,7.6275,7.6275,7.6275,7.6275,7.6275,7.6275,7.6275,7.6275,7.6275,7.6275,7.6275,7.6275,7.6275,7.6275,7.6275,7.6275,7.6275,7.6275,7.6275,7.6275,7.6275,7.6275,7.6275,7.6275,7.6275,7.6208,7.6072,7.5868,7.5727,7.5585,7.5297,7.5225,7.5116,7.4819,7.4669,7.4517,7.4245,7.4264,7.4361,7.408,7.4326,7.4522,7.3903,7.3745,7.3732,7.3549,7.3533,7.3533,7.3533,7.3533,7.3533,7.3533,7.3291,7.2999,7.282,7.2286,7.1985,7.1985,7.1766,7.1644,7.1732,7.2042,7.2485,7.3141,7.3794,7.4492,7.5236,7.5635,7.5709,7.5325,7.5422,7.5373,7.5179,7.5723,7.6632,7.7938,7.8653,7.9643,8.0844,8.1747,8.213,4.2018,4.6901,5.2682,5.5251,5.7672,6.1139,6.7717,6.9524,7.0664,7.352,7.343,7.2651,7.2037,7.383,7.5225,7.4571,7.5513,7.6275,7.6275,7.6275,7.6275,7.6275,7.6275,7.6275,7.6275,7.6275,7.6275,7.6275,7.6275,7.6275,7.6275,7.6275,7.6275,7.6275,7.6275,7.6275,7.6275,7.6275,7.6275,7.6275,7.6275,7.6275,7.6275,7.6275,7.6275,7.6275,7.6275,7.6275,7.6275,7.6275,7.6275,7.6275,7.6275,7.6275,7.6275,7.6275,7.6174,7.5969,7.5868,7.5692,7.5442,7.5297,7.5225,7.5151,7.4782,7.4631,7.4517,7.417,7.4049,7.401,7.401,7.4361,7.4487,7.352,7.3293,7.3211,7.2797,7.2713,7.2713,7.2713,7.2713,7.2671,7.2586,7.2586,7.2501,7.2245,7.2029,7.1898,7.1898,7.1678,7.1501,7.1501,7.2045,7.2699,7.3443,7.4187,7.4931,7.5642,7.5709,7.5614,7.5325,7.5373,7.5373,7.5325,7.5373,7.626,7.7976,7.7976,7.8754,8.0209,8.0853,8.116,4.7679,5.0079,5.3923,5.8736,5.8565,5.9366,6.7367,6.7833,6.8399,7.4959,7.4867,7.3865,7.4575,7.4114,7.383,7.4575,7.5619,7.6275,7.6275,7.6275,7.6275,7.6275,7.6275,7.6275,7.6275,7.6275,7.6275,7.6275,7.6275,7.6275,7.6275,7.6275,7.6275,7.6275,7.6275,7.6275,7.6275,7.6275,7.6275,7.6275,7.6275,7.6275,7.6275,7.6275,7.6275,7.6275,7.6275,7.6275,7.6275,7.6275,7.6275,7.6275,7.6275,7.6275,7.6275,7.6311,7.6174,7.5969,7.5868,7.5657,7.5442,7.5262,7.5225,7.5152,7.4968,7.4744,7.4555,7.4364,7.4132,7.401,7.401,7.401,7.3891,7.3415,7.3293,7.3211,7.2797,7.2713,7.2713,7.2713,7.2713,7.2628,7.2373,7.2331,7.2245,7.2029,7.1776,7.16,7.16,7.1412,7.1312,7.1312,7.1988,7.2699,7.3443,7.4187,7.4931,7.5642,7.5709,7.5614,7.5325,7.5566,7.5566,7.5325,7.5566,7.6454,7.7976,7.7976,7.8754,8.0175,8.0175,8.0175,4.2203,4.8927,5.6331,5.6372,6.2611,6.9067,7.0414,7.0343,7.116,7.5422,7.6123,7.5674,7.4858,7.512,7.5331,7.4793,7.5619,7.6275,7.6275,7.6275,7.6275,7.6275,7.6275,7.6275,7.6275,7.6275,7.6275,7.6275,7.6275,7.6275,7.6275,7.6275,7.6275,7.6275,7.6275,7.6275,7.6275,7.6275,7.6275,7.6275,7.6275,7.6275,7.6275,7.6275,7.6275,7.6275,7.6275,7.6275,7.6275,7.6275,7.6275,7.6275,7.6275,7.6275,7.6275,7.614,7.6005,7.5833,7.5657,7.5478,7.5297,7.5189,7.5225,7.5152,7.4968,7.4857,7.4744,7.4402,7.4248,7.417,7.4049,7.401,7.3891,7.3415,7.3293,7.3211,7.2797,7.2713,7.2713,7.2713,7.2544,7.2416,7.2331,7.2202,7.1985,7.1732,7.1644,7.1556,7.1412,7.1356,7.1312,7.1312,7.2428,7.324,7.3477,7.4661,7.5473,7.5676,7.5709,7.5662,7.5614,7.5662,7.5662,7.5614,7.5662,7.6183,7.7232,7.7232,7.7976,7.9431,7.9431,7.9701,4.9457,5.4839,6.0012,6.2753,6.7658,7.2086,7.3114,7.336,7.3928,7.5918,7.6479,7.6373,7.5514,7.5828,7.607,7.5442,7.5898,7.6275,7.6275,7.6275,7.6275,7.6275,7.6275,7.6275,7.6275,7.6275,7.6275,7.6275,7.6275,7.6275,7.6275,7.6275,7.6275,7.6275,7.6275,7.6275,7.6275,7.6275,7.6275,7.6275,7.6275,7.6275,7.6275,7.6275,7.6275,7.6275,7.6275,7.6275,7.6275,7.6275,7.6275,7.6275,7.6275,7.6242,7.6174,7.6038,7.5867,7.5657,7.5514,7.537,7.5225,7.5225,7.5225,7.5188,7.5042,7.4968,7.4857,7.4631,7.4441,7.4287,7.4132,7.4088,7.3891,7.3415,7.3293,7.3211,7.2797,7.2713,7.2671,7.2544,7.2416,7.2245,7.2038,7.1942,7.1766,7.1546,7.1501,7.1457,7.1312,7.1312,7.1312,7.1312,7.2631,7.3477,7.3477,7.483,7.5709,7.5709,7.5709,7.5709,7.5709,7.5709,7.5709,7.5709,7.5709,7.6082,7.6893,7.6893,7.7671,7.9126,7.9126,7.9498,6.2647,6.3965,6.4424,7.3398,7.2653,7.0913,7.5316,7.6275,7.6275,7.6275,7.6275,7.6275,7.6275,7.6275,7.6275,7.6275,7.6275,7.6275,7.6275,7.6275,7.6275,7.6275,7.6275,7.6275,7.6275,7.6275,7.6275,7.6275,7.6275,7.6275,7.6275,7.6275,7.6275,7.6275,7.6275,7.6275,7.6275,7.6275,7.6275,7.6275,7.6275,7.6275,7.6275,7.6275,7.6275,7.6275,7.6275,7.6275,7.6275,7.6275,7.6275,7.6275,7.6275,7.614,7.6003,7.5969,7.5762,7.5478,7.5478,7.5334,7.5225,7.5225,7.5225,7.5225,7.5225,7.5079,7.4931,7.4894,7.4631,7.4364,7.4325,7.417,7.3896,7.3415,7.3293,7.3211,7.2797,7.2671,7.2586,7.2373,7.2288,7.2081,7.1688,7.16,7.1546,7.1312,7.1312,7.1312,7.1312,7.1312,7.1312,7.1312,7.2631,7.3477,7.3477,7.483,7.5709,7.5709,7.5709,7.5709,7.5709,7.5709,7.5709,7.5709,7.5709,7.6048,7.6792,7.6792,7.7536,7.8923,7.8991,7.9397,5.2327,5.9164,6.6459,6.9635,7.2618,7.5031,7.6061,7.6275,7.6275,7.6275,7.6275,7.6275,7.6275,7.6275,7.6275,7.6275,7.6275,7.6275,7.6275,7.6275,7.6275,7.6275,7.6275,7.6275,7.6275,7.6275,7.6275,7.6275,7.6275,7.6275,7.6275,7.6275,7.6275,7.6275,7.6275,7.6275,7.6275,7.6275,7.6275,7.6275,7.6275,7.6275,7.6275,7.6275,7.6275,7.6275,7.6275,7.6275,7.6275,7.6275,7.6275,7.6275,7.6106,7.6038,7.5969,7.5727,7.555,7.5478,7.5298,7.5261,7.5225,7.5225,7.5225,7.5225,7.5225,7.5152,7.5079,7.4931,7.4857,7.4707,7.4402,7.4287,7.4092,7.3456,7.3293,7.3211,7.2797,7.2544,7.2373,7.2331,7.1994,7.1732,7.16,7.1457,7.1356,7.1312,7.1312,7.1312,7.1312,7.1312,7.1312,7.1312,7.2631,7.3477,7.3477,7.483,7.5709,7.5709,7.5709,7.5709,7.5709,7.5709,7.5709,7.5709,7.5709,7.5777,7.5946,7.5946,7.6454,7.7401,7.7976,7.8619,5.5199,6.0508,6.5042,7.0734,7.4117,7.6039,7.6039,7.6039,7.6074,7.614,7.6208,7.6275,7.6275,7.6275,7.6275,7.6275,7.6275,7.6275,7.6275,7.6275,7.6275,7.6275,7.6275,7.6275,7.6275,7.6275,7.6275,7.6275,7.6275,7.6275,7.6275,7.6275,7.6275,7.6275,7.6275,7.6275,7.6275,7.6275,7.6275,7.6275,7.6275,7.6275,7.6275,7.6275,7.6275,7.6275,7.6275,7.6275,7.6275,7.6275,7.6242,7.614,7.6038,7.59,7.5762,7.555,7.5442,7.5334,7.5261,7.5225,7.5225,7.5225,7.5225,7.5225,7.5225,7.5225,7.5152,7.5079,7.4968,7.4857,7.4631,7.4441,7.4209,7.3737,7.3456,7.3211,7.2797,7.2501,7.2288,7.2159,7.1864,7.1556,7.1457,7.1401,7.1312,7.1312,7.1312,7.1312,7.1312,7.1312,7.1312,7.1312,7.2631,7.3477,7.3477,7.483,7.5709,7.5709,7.5709,7.5709,7.5709,7.5709,7.5709,7.5709,7.5709,7.5709,7.5709,7.5709,7.6115,7.6927,7.7299,7.7874,5.8971,6.2105,6.3398,7.3226,7.5692,7.5692,7.5692,7.5727,7.5798,7.5865,7.6072,7.6242,7.6275,7.6275,7.6275,7.6275,7.6275,7.6275,7.6275,7.6275,7.6275,7.6275,7.6275,7.6275,7.6275,7.6275,7.6275,7.6275,7.6275,7.6275,7.6275,7.6275,7.6275,7.6275,7.6275,7.6275,7.6275,7.6275,7.6275,7.6275,7.6275,7.6275,7.6275,7.6275,7.6275,7.6275,7.6275,7.6275,7.6311,7.6242,7.614,7.6003,7.5934,7.5762,7.5478,7.5442,7.5334,7.5225,7.5225,7.5225,7.5225,7.5225,7.5225,7.5225,7.5225,7.5225,7.5225,7.5225,7.5079,7.4931,7.4931,7.4669,7.4325,7.4088,7.3657,7.3217,7.2838,7.2501,7.2202,7.2029,7.1766,7.1501,7.1356,7.1267,7.1222,7.1222,7.1222,7.1222,7.1222,7.1267,7.1312,7.1312,7.2496,7.3308,7.3308,7.4661,7.5506,7.5506,7.5642,7.5709,7.5709,7.5709,7.5709,7.5709,7.5709,7.5709,7.5709,7.5709,7.6048,7.669,7.6826,7.7232,4.7629,5.6217,6.6068,7.3366,7.519,7.519,7.519,7.5371,7.555,7.555,7.5832,7.6072,7.6242,7.6275,7.6275,7.6275,7.6275,7.6275,7.6275,7.6275,7.6275,7.6275,7.6275,7.6275,7.6275,7.6275,7.6275,7.6275,7.6275,7.6275,7.6275,7.6275,7.6275,7.6275,7.6275,7.6275,7.6275,7.6275,7.6275,7.6275,7.6275,7.6275,7.6275,7.6275,7.6275,7.6275,7.6275,7.6275,7.6275,7.6106,7.6003,7.5969,7.5691,7.5514,7.5478,7.5298,7.5189,7.5225,7.5225,7.5225,7.5225,7.5225,7.5225,7.5225,7.5225,7.5225,7.5225,7.5225,7.5152,7.5116,7.4931,7.4857,7.4669,7.4128,7.3777,7.3461,7.3046,7.2459,7.2029,7.1985,7.1634,7.1356,7.1312,7.1131,7.0961,7.0961,7.0961,7.0961,7.0961,7.1176,7.1312,7.1312,7.2056,7.2563,7.2563,7.3916,7.4762,7.4762,7.5337,7.5709,7.5709,7.5709,7.5709,7.5709,7.5709,7.5709,7.5709,7.5709,7.5743,7.5879,7.6589,7.6961,4.9305,5.8048,6.6417,7.2994,7.4427,7.4146,7.4146,7.3935,7.3867,7.4403,7.4619,7.5012,7.5864,7.6005,7.6005,7.6005,7.6005,7.6039,7.6106,7.614,7.6174,7.6275,7.6275,7.6275,7.6275,7.6275,7.6275,7.6275,7.6275,7.6275,7.6275,7.6275,7.6275,7.6275,7.6275,7.6275,7.6275,7.6275,7.6275,7.6275,7.6275,7.6275,7.6275,7.6275,7.6275,7.6275,7.6275,7.6275,7.6275,7.6208,7.6074,7.5867,7.5727,7.555,7.5298,7.5225,7.5225,7.5225,7.5225,7.5225,7.5225,7.5225,7.5225,7.5225,7.5225,7.5225,7.5225,7.5225,7.5225,7.5152,7.5079,7.4968,7.4819,7.4402,7.394,7.3502,7.3088,7.2459,7.1854,7.1457,7.1233,7.1007,7.087,7.0779,7.0687,7.0687,7.0687,7.0733,7.087,7.1007,7.1131,7.1267,7.1954,7.2394,7.2394,7.3375,7.3984,7.3984,7.4695,7.4897,7.4458,7.527,7.5506,7.51,7.5506,7.5709,7.5709,7.5709,7.5709,7.5709,7.6048,7.6217,4.96,5.6348,6.1816,6.9415,7.1227,7.145,7.2557,7.2421,7.2248,7.2963,7.318,7.3614,7.4655,7.5263,7.5621,7.5621,7.5692,7.5763,7.5867,7.5936,7.6039,7.6174,7.6208,7.6242,7.6311,7.6275,7.6275,7.6275,7.6275,7.6275,7.6275,7.6275,7.6275,7.6275,7.6275,7.6275,7.6275,7.6275,7.6275,7.6275,7.6275,7.6275,7.6275,7.6275,7.6275,7.6275,7.6275,7.6275,7.6311,7.6242,7.6074,7.5868,7.5798,7.5621,7.537,7.5297,7.5297,7.5262,7.5225,7.5225,7.5225,7.5225,7.5225,7.5225,7.5225,7.5225,7.5225,7.5225,7.5225,7.5225,7.5225,7.5116,7.5005,7.4782,7.4252,7.3547,7.2804,7.2245,7.1634,7.0916,7.0825,7.0733,7.0515,7.0469,7.0423,7.0423,7.0423,7.0515,7.0779,7.087,7.1007,7.1267,7.1785,7.2124,7.2124,7.28,7.3206,7.3206,7.3916,7.4086,7.351,7.4559,7.4965,7.4627,7.5134,7.5506,7.5709,7.5709,7.5709,7.5709,7.5709,7.5709,4.2069,4.5524,4.9742,6.0532,6.4123,6.6052,7.0253,7.1342,7.1462,7.1536,7.1804,7.2103,7.2176,7.3826,7.5118,7.5118,7.5335,7.5514,7.5514,7.5692,7.5868,7.6003,7.6003,7.6072,7.6275,7.6275,7.6275,7.6275,7.6275,7.6275,7.6275,7.6275,7.6275,7.6275,7.6275,7.6275,7.6275,7.6275,7.6275,7.6275,7.6275,7.6275,7.6275,7.6275,7.6275,7.6275,7.6275,7.6275,7.6275,7.6072,7.6003,7.5969,7.5868,7.5763,7.5727,7.555,7.5478,7.5442,7.5297,7.5225,7.5225,7.5225,7.5225,7.5225,7.5225,7.5225,7.5225,7.5225,7.5225,7.5225,7.5225,7.5334,7.5406,7.5225,7.4671,7.3712,7.2047,7.1467,7.1188,7.0608,7.0515,7.0515,7.0515,7.0363,7.0223,7.0223,7.0223,7.027,7.0469,7.0733,7.1007,7.1267,7.1345,7.1379,7.1379,7.2022,7.2462,7.2462,7.3138,7.3544,7.3477,7.3544,7.3916,7.4593,7.4661,7.4999,7.5709,7.5709,7.5709,7.5709,7.5709,7.5709,4.1137,4.4004,4.7021,5.5492,6.0097,6.3094,6.5083,6.7665,6.9795,7.0318,7.0539,7.0794,7.1319,7.2456,7.3328,7.3328,7.3364,7.3474,7.3618,7.4226,7.4726,7.4901,7.5473,7.5867,7.5971,7.6074,7.6106,7.6106,7.6208,7.6275,7.6275,7.6275,7.6275,7.6275,7.6275,7.6275,7.6275,7.6275,7.6275,7.6275,7.6275,7.6275,7.6275,7.6275,7.6275,7.6275,7.6275,7.6275,7.6275,7.6208,7.6106,7.6003,7.5971,7.5903,7.5763,7.5727,7.5692,7.5692,7.5621,7.5585,7.5585,7.5585,7.5585,7.5585,7.5585,7.5585,7.5585,7.5585,7.5585,7.5585,7.5585,7.555,7.5298,7.4558,7.3747,7.2818,7.161,7.1334,7.1098,7.0456,7.0316,7.027,7.0082,6.9988,6.9941,6.9941,6.9941,7.0035,7.027,7.0469,7.0779,7.1007,7.1222,7.1312,7.1312,7.1548,7.1684,7.1684,7.2394,7.2563,7.2124,7.3003,7.3612,7.3883,7.4356,7.4965,7.5709,7.5709,7.5709,7.5709,7.5709,7.5709,3.8016,4.0536,4.3283,5.0338,5.3977,5.7076,6.1644,6.4186,6.6251,6.8586,6.9154,6.9332,6.9887,7.0542,7.1211,7.1777,7.1958,7.207,7.2257,7.2865,7.351,7.4012,7.4691,7.5227,7.5656,7.5832,7.5934,7.6003,7.6174,7.6275,7.6275,7.6275,7.6275,7.6275,7.6275,7.6275,7.6275,7.6275,7.6275,7.6275,7.6275,7.6275,7.6275,7.6275,7.6275,7.6275,7.6275,7.6275,7.6275,7.6275,7.6208,7.6106,7.6106,7.6039,7.5972,7.5903,7.5868,7.5868,7.5798,7.5798,7.5798,7.5798,7.5798,7.5798,7.5798,7.5798,7.5763,7.5727,7.5692,7.5657,7.555,7.5334,7.4933,7.4022,7.3183,7.2313,7.13,7.1064,7.087,7.0176,7.0082,6.9988,6.9846,6.9798,6.9798,6.9798,6.9798,6.9893,7.0176,7.041,7.0608,7.087,7.1131,7.1312,7.1312,7.1312,7.1312,7.1312,7.1751,7.1819,7.1345,7.2225,7.2868,7.3105,7.3849,7.4593,7.5337,7.5574,7.5709,7.5709,7.5709,7.5709,0.0,0.0,0.0,4.4711,4.5539,4.7877,5.9944,6.0972,6.0886,6.6187,6.7535,6.7765,6.7731,6.8049,6.8886,7.0649,7.1163,7.1396,7.1587,7.1812,7.2356,7.347,7.3613,7.4116,7.5299,7.5584,7.5724,7.5969,7.6174,7.6275,7.6275,7.6275,7.6275,7.6275,7.6275,7.6275,7.6275,7.6275,7.6275,7.6275,7.6275,7.6275,7.6275,7.6275,7.6275,7.6275,7.6275,7.6275,7.6275,7.6275,7.6275,7.6275,7.6275,7.6275,7.6311,7.6072,7.6003,7.5969,7.5868,7.5798,7.5798,7.5798,7.5798,7.5798,7.5798,7.5798,7.5763,7.555,7.5478,7.5406,7.5005,7.4671,7.4332,7.3707,7.3025,7.215,7.1064,7.0687,7.033,6.9893,6.9798,6.9798,6.9798,6.9798,6.9798,6.9798,6.9798,6.9893,7.0129,7.0363,7.0561,7.087,7.1131,7.1312,7.1312,7.1312,7.1312,7.1312,7.1312,7.1312,7.1312,7.1312,7.165,7.2394,7.3105,7.3849,7.4627,7.5337,7.5709,7.5709,7.5709,7.5709,3.3184,0.0,0.0,0.0,0.0,0.0,4.8904,5.482,5.9784,6.1223,6.4319,6.6599,6.6091,6.6107,6.6323,6.6814,6.8327,6.9481,6.9523,7.0202,7.081,7.1099,7.1925,7.282,7.3675,7.4188,7.4798,7.5585,7.59,7.614,7.6275,7.6275,7.6275,7.6275,7.6275,7.6275,7.6275,7.6275,7.6275,7.6275,7.6275,7.6275,7.6275,7.6275,7.6275,7.6275,7.6275,7.6275,7.6275,7.6275,7.6275,7.6275,7.6275,7.6275,7.6275,7.6208,7.6208,7.6208,7.6176,7.6176,7.6176,7.6176,7.6074,7.5971,7.5971,7.5762,7.5585,7.5514,7.5335,7.5117,7.4746,7.4216,7.3667,7.3018,7.2185,7.1221,7.0029,6.9874,6.9988,6.9846,6.9798,6.9798,6.9798,6.9798,6.9798,6.9798,6.9798,6.9846,6.9893,7.0129,7.0363,7.0561,7.087,7.1086,7.1267,7.1312,7.1312,7.1312,7.1312,7.1312,7.1312,7.1312,7.165,7.2394,7.2597,7.3341,7.4627,7.5337,7.5709,7.5709,7.5709,7.5709,3.4695,3.5386,3.6467,3.7513,0.0,0.0,4.7185,5.1926,5.6294,6.0191,6.3384,6.5277,6.4837,6.4816,6.4896,6.4896,6.6057,6.7079,6.7384,6.7919,6.8593,6.9373,7.0091,7.1055,7.2261,7.2857,7.3544,7.4545,7.5012,7.554,7.614,7.6242,7.6275,7.6275,7.6275,7.6275,7.6275,7.6275,7.6275,7.6275,7.6275,7.6275,7.6275,7.6275,7.6275,7.6275,7.6275,7.6275,7.6275,7.6275,7.6275,7.6275,7.6275,7.6275,7.6275,7.6275,7.6242,7.6174,7.6174,7.6142,7.6074,7.6005,7.5901,7.5761,7.5655,7.5442,7.519,7.5117,7.4711,7.4293,7.3909,7.3351,7.2693,7.2013,7.1098,7.009,6.9009,6.865,6.8716,6.9188,6.9574,6.9798,6.9798,6.9798,6.9798,6.9798,6.9798,6.9798,6.9798,7.0035,7.0223,7.0363,7.0595,7.0825,7.1098,7.1131,7.1176,7.1312,7.1312,7.1312,7.1312,7.1312,7.1515,7.1954,7.2225,7.2969,7.4153,7.4897,7.5236,7.5236,7.4931,7.4931,3.6809,3.7273,3.8318,4.0292,3.8899,0.0,4.943,5.0285,5.1321,5.9581,6.1867,6.234,6.2274,6.2539,6.2729,6.2628,6.3208,6.4091,6.5348,6.5495,6.6165,6.7938,6.815,6.8933,7.0814,7.1342,7.2033,7.3065,7.3832,7.4759,7.5898,7.6106,7.6242,7.6242,7.6275,7.6275,7.6275,7.6275,7.6275,7.6275,7.6275,7.6275,7.6242,7.6275,7.6275,7.6242,7.6275,7.6275,7.6242,7.6242,7.6242,7.6311,7.6311,7.6242,7.6242,7.6208,7.6072,7.5934,7.59,7.5832,7.5692,7.5478,7.5406,7.5334,7.5081,7.486,7.4636,7.4408,7.3747,7.3101,7.2853,7.2262,7.1566,7.086,6.9902,6.8944,6.8072,6.7343,6.7118,6.8068,6.8863,6.943,6.943,6.9526,6.9622,6.9622,6.9751,6.9798,6.9798,6.9988,7.0176,7.0176,7.0363,7.0561,7.087,7.0916,7.1007,7.1267,7.1312,7.1312,7.1312,7.1312,7.1312,7.1312,7.2022,7.2732,7.3375,7.4119,7.4492,7.4458,7.3815,7.3849,4.0032,4.0234,4.0786,3.916,4.0234,0.0,4.0001,4.3814,4.7432,4.6693,4.9641,5.2162,5.1539,5.2312,5.2857,5.2312,5.5234,5.9345,6.4319,6.5062,6.5244,6.5828,6.6092,6.676,6.832,6.9042,7.0021,7.1616,7.3037,7.4369,7.5549,7.5761,7.5864,7.6038,7.6208,7.6275,7.6275,7.6275,7.6275,7.6275,7.6275,7.6208,7.6072,7.6208,7.6208,7.6072,7.6208,7.6208,7.6038,7.5864,7.6038,7.6275,7.6106,7.6038,7.6003,7.5762,7.5621,7.5585,7.5371,7.5227,7.5226,7.5008,7.4823,7.4636,7.4446,7.4139,7.3747,7.338,7.2728,7.2176,7.209,7.1433,7.062,7.0029,6.9156,6.8068,6.6753,6.6544,6.6438,6.5929,6.648,6.7054,6.7054,6.782,6.8453,6.8453,6.9204,6.9798,6.9798,6.9846,6.9941,7.0176,7.0223,7.041,7.087,7.0916,7.1007,7.1267,7.1312,7.1312,7.1312,7.1312,7.1312,7.1312,7.2022,7.2462,7.2631,7.3341,7.3713,7.3713,7.3544,7.3578,4.2361,4.2034,4.2382,4.1715,4.1802,0.0,0.0,4.4027,4.6036,4.745,4.8474,4.9273,4.9896,5.0016,4.9985,4.9946,5.2644,5.5588,5.8074,6.0926,6.3018,6.3662,6.4121,6.4886,6.6091,6.6671,6.78,6.9718,7.1482,7.2994,7.407,7.451,7.4941,7.5407,7.5584,7.5831,7.6003,7.6003,7.6106,7.6275,7.6275,7.6242,7.614,7.6038,7.5969,7.5829,7.5725,7.5584,7.5407,7.5299,7.5299,7.5406,7.5513,7.5478,7.5371,7.5226,7.5043,7.4823,7.4711,7.4598,7.4446,7.4178,7.3983,7.3826,7.3472,7.3066,7.2686,7.2219,7.1654,7.1165,7.103,7.0389,6.9622,6.9058,6.8136,6.7046,6.5884,6.5452,6.5016,6.4295,6.4488,6.5118,6.6217,6.6898,6.726,6.726,6.7751,6.8304,6.8879,6.8928,6.9204,6.9941,6.9988,7.0129,7.0502,7.0641,7.0825,7.1052,7.1222,7.1312,7.1312,7.1312,7.1312,7.1312,7.1684,7.1853,7.1853,7.2225,7.2597,7.2935,7.2563,7.2597,4.5127,4.4472,4.4676,4.4705,4.3718,4.339,0.0,0.0,0.0,4.9166,4.8261,4.7162,4.8724,4.8173,4.7621,4.7986,5.007,5.1213,4.9953,5.471,5.8761,6.0038,6.1482,6.2582,6.3194,6.3362,6.4664,6.7635,6.8713,7.0031,7.1948,7.2877,7.3637,7.4277,7.4642,7.5009,7.5371,7.5371,7.5584,7.5933,7.5933,7.5898,7.5864,7.5584,7.5371,7.5335,7.4972,7.4713,7.4563,7.4449,7.4299,7.4181,7.4711,7.4786,7.46,7.4487,7.422,7.3909,7.383,7.3747,7.3507,7.3101,7.2936,7.2811,7.2356,7.196,7.1522,7.112,7.062,7.019,6.9921,6.9301,6.8649,6.8101,6.7201,6.6173,6.5235,6.4493,6.3823,6.3194,6.3079,6.3649,6.5444,6.5951,6.6057,6.6057,6.6269,6.6742,6.7668,6.777,6.8154,6.9058,6.9156,6.9349,6.9813,7.0049,7.0376,7.087,7.1131,7.1222,7.1222,7.1222,7.1267,7.1312,7.1312,7.1312,7.1312,7.1312,7.1616,7.2191,7.1582,7.1616,4.9854,4.9756,4.9582,4.5198,4.6446,4.6911,4.013,0.0,4.1708,3.9542,0.0,3.9442,3.9677,0.0,0.0,3.8884,4.2242,4.4266,4.2401,4.6673,5.0809,5.3062,5.692,5.9117,5.8469,5.7687,5.9671,6.5563,6.3368,6.3945,6.9072,7.1036,7.2121,7.2424,7.3409,7.4033,7.4264,7.4264,7.4414,7.4713,7.4713,7.46,7.4411,7.4338,7.4223,7.4104,7.3991,7.3834,7.3597,7.32,7.2914,7.2901,7.3712,7.4026,7.3909,7.3311,7.3066,7.3018,7.2644,7.2517,7.239,7.1917,7.161,7.1355,7.1086,7.0849,7.0608,7.0296,6.9717,6.914,6.914,6.855,6.7797,6.7233,6.6659,6.583,6.4715,6.4244,6.3823,6.3194,6.3079,6.3194,6.3451,6.4265,6.4868,6.4868,6.5737,6.6428,6.6585,6.6585,6.6638,6.6794,6.6794,6.7311,6.8601,6.8699,6.9331,7.0825,7.0916,7.0961,7.0961,7.0961,7.1052,7.1312,7.1312,7.1312,7.1312,7.1312,7.1345,7.1447,7.1345,7.1345,4.932,4.9524,4.9727,4.6446,4.6592,4.6301,4.1657,4.0786,4.0873,4.0641,0.0,0.0,0.0,0.0,0.0,0.0,4.0254,4.1153,3.9587,4.3006,4.6629,4.9219,5.157,5.3485,5.4754,5.6303,5.8371,6.1176,6.1301,6.2632,6.5874,6.7582,6.9076,7.0413,7.1182,7.2022,7.2927,7.2927,7.3171,7.3685,7.3685,7.3646,7.3562,7.3166,7.2921,7.2838,7.2422,7.2125,7.1901,7.1727,7.142,7.1109,7.1376,7.1901,7.2483,7.2056,7.1839,7.163,7.1355,7.1255,7.121,7.0849,7.0402,7.0076,6.9827,6.9589,6.9349,6.9058,6.8666,6.8251,6.8101,6.7593,6.7005,6.6607,6.6076,6.5429,6.4549,6.4188,6.3823,6.3194,6.3079,6.3079,6.3079,6.3478,6.3732,6.3732,6.4183,6.4709,6.5305,6.5413,6.5683,6.6322,6.6375,6.6638,6.726,6.7433,6.8089,6.9427,7.025,7.0687,7.0687,7.0825,7.0961,7.1086,7.1222,7.1312,7.1312,7.1312,7.1312,7.1312,7.1312,7.1312,4.935,4.9638,4.9774,4.6992,4.6098,4.5198,4.2557,4.1541,4.1424,4.2295,4.1715,0.0,0.0,0.0,3.8986,3.8928,0.0,3.9268,3.7434,3.9719,4.2517,4.5001,4.661,4.8577,5.1256,5.295,5.4648,5.657,5.7628,5.9404,6.2264,6.4068,6.5846,6.7592,6.8681,6.9715,7.0802,7.0961,7.1372,7.1936,7.1936,7.1936,7.1936,7.1328,7.1063,7.1063,7.0498,7.0196,7.0056,6.9963,6.9727,6.9346,6.9138,6.9618,7.0415,7.054,7.0448,7.023,7.0029,6.9969,6.9827,6.9541,6.9204,6.8863,6.8518,6.8269,6.8068,6.7848,6.7542,6.7285,6.7078,6.6712,6.6268,6.5969,6.5483,6.5022,6.4412,6.4075,6.3709,6.3194,6.3079,6.3079,6.3079,6.3079,6.3079,6.3079,6.3079,6.3394,6.4153,6.4265,6.4568,6.5444,6.5498,6.5575,6.5897,6.6132,6.6731,6.7939,6.9235,6.9969,7.0063,7.0515,7.0825,7.0916,7.1176,7.1312,7.1312,7.1312,7.1312,7.1312,7.1312,7.1312,5.171,5.1929,5.1214,4.6229,4.543,4.4734,4.0321,4.1686,4.334,4.1541,4.3573,4.4937,4.2528,4.1482,4.0408,3.8522,3.8783,0.0,0.0,3.5683,3.723,3.9217,4.2486,4.5445,4.7827,4.5225,4.601,5.2345,5.0445,5.1744,5.8064,6.0892,6.2649,6.3404,6.5837,6.7297,6.7556,6.8193,6.865,6.8943,6.8943,6.8943,6.8943,6.865,6.8503,6.8503,6.8321,6.8172,6.8172,6.7903,6.777,6.7719,6.7497,6.7395,6.7548,6.8601,6.8977,6.8928,6.8716,6.8501,6.8251,6.7949,6.7848,6.7746,6.7169,6.693,6.691,6.6744,6.6396,6.6152,6.6152,6.5938,6.5646,6.5406,6.5077,6.4691,6.4162,6.3766,6.3424,6.3137,6.3079,6.3079,6.3079,6.3079,6.3079,6.3079,6.3079,6.3137,6.3137,6.3137,6.3194,6.3194,6.3194,6.3649,6.4678,6.4758,6.5328,6.6783,6.7939,6.8667,6.8944,6.9969,7.0608,7.087,7.1176,7.1312,7.1312,7.1312,7.1312,7.1312,7.1312,7.1312,5.0539,5.171,5.204,4.7342,4.6651,4.5953,4.1482,4.2295,4.3311,4.0931,4.334,4.5111,4.2557,4.1192,4.0089,3.9044,3.797,3.6751,0.0,3.545,3.5973,3.6612,3.9587,4.1768,4.2108,4.4021,4.6137,4.8347,4.948,5.176,5.5689,5.734,5.9364,6.1778,6.2883,6.4057,6.5198,6.5453,6.5873,6.6543,6.6543,6.6799,6.7228,6.6918,6.6815,6.6815,6.6533,6.6459,6.6459,6.6354,6.6195,6.6067,6.596,6.5799,6.5768,6.7086,6.7446,6.724,6.6806,6.6544,6.6491,6.6385,6.6226,6.6045,6.5853,6.5638,6.5475,6.5452,6.5344,6.518,6.5016,6.4936,6.4771,6.4524,6.4356,6.4132,6.3766,6.3595,6.3424,6.3137,6.3079,6.3079,6.3079,6.3079,6.3079,6.3079,6.3079,6.3079,6.3079,6.3079,6.3079,6.3079,6.3079,6.3222,6.3592,6.432,6.4868,6.5382,6.6449,6.7157,6.7228,6.7788,6.8189,6.8502,6.8716,6.9298,7.025,7.025,7.0608,7.1312,7.1312,7.1312,4.9781,5.0864,5.1254,4.7686,4.7131,4.6469,4.2638,4.344,4.4375,4.2241,4.3979,4.5518,4.4327,4.2295,4.0612,3.9973,3.8231,3.6519,0.0,3.5038,3.5038,3.5038,3.7269,3.8759,3.8625,4.1438,4.381,4.5141,4.7137,4.9596,5.2643,5.4296,5.6401,5.9123,6.0393,6.1671,6.2996,6.3192,6.3764,6.4577,6.4577,6.4867,6.5553,6.5367,6.5258,6.5258,6.5125,6.5016,6.5016,6.5016,6.4906,6.4771,6.4771,6.466,6.4629,6.5745,6.6067,6.5853,6.5475,6.5313,6.5313,6.5204,6.507,6.4906,6.4826,6.466,6.4549,6.4549,6.4549,6.4493,6.43,6.4244,6.4188,6.4049,6.3936,6.3766,6.3538,6.3424,6.3309,6.3137,6.3079,6.3079,6.3079,6.3079,6.3079,6.3079,6.3079,6.3079,6.3079,6.3079,6.3079,6.3079,6.3079,6.3079,6.3079,6.3762,6.4097,6.4097,6.5173,6.579,6.579,6.6417,6.6887,6.7105,6.7433,6.8239,6.949,6.9618,7.0203,7.1176,7.1176,7.1176]}]]